<?xml version="1.0" encoding="UTF-8" standalone="no" ?>
<gpx xmlns="http://www.topografix.com/GPX/1/1" xmlns:xsi="http://www.w3.org/2001/XMLSchema-instance" xsi:schemaLocation="http://www.topografix.com/GPX/1/1 http://www.topografix.com/GPX/1/1/gpx.xsd" version="1.1" creator="VisuGPX - https://www.visugpx.com">
  <metadata>
    <name>Encore un tour par la montagne d\'Héricourt</name>
    <desc><![CDATA[Temps clément, terrain sec, super sortie (la descente du Mt VAUDOIS est décidément top)]]></desc>
  </metadata>
  <trk>
    <name><![CDATA[B.iCycle Track from 2014-03-15_13.39.23]]></name>
    <trkseg>
      <trkpt lat="47.50078" lon="6.73466">
        <ele>337.58844</ele>
        <time>2014-03-15T12:40:12.654Z</time>
      </trkpt>
      <trkpt lat="47.50071" lon="6.73491">
        <ele>338.688538</ele>
        <time>2014-03-15T12:40:18.662Z</time>
      </trkpt>
      <trkpt lat="47.50065" lon="6.73521">
        <ele>339.451691</ele>
        <time>2014-03-15T12:40:24.654Z</time>
      </trkpt>
      <trkpt lat="47.50062" lon="6.73549">
        <ele>339.780762</ele>
        <time>2014-03-15T12:40:29.656Z</time>
      </trkpt>
      <trkpt lat="47.50061" lon="6.73578">
        <ele>340.503662</ele>
        <time>2014-03-15T12:40:34.649Z</time>
      </trkpt>
      <trkpt lat="47.5006" lon="6.73605">
        <ele>341.694489</ele>
        <time>2014-03-15T12:40:40.655Z</time>
      </trkpt>
      <trkpt lat="47.5006" lon="6.73633">
        <ele>342.952057</ele>
        <time>2014-03-15T12:40:47.656Z</time>
      </trkpt>
      <trkpt lat="47.50059" lon="6.73664">
        <ele>344.142151</ele>
        <time>2014-03-15T12:40:55.656Z</time>
      </trkpt>
      <trkpt lat="47.50058" lon="6.73693">
        <ele>344.951508</ele>
        <time>2014-03-15T12:41:02.654Z</time>
      </trkpt>
      <trkpt lat="47.50059" lon="6.73724">
        <ele>345.456848</ele>
        <time>2014-03-15T12:41:09.656Z</time>
      </trkpt>
      <trkpt lat="47.50061" lon="6.7375">
        <ele>345.641113</ele>
        <time>2014-03-15T12:41:15.698Z</time>
      </trkpt>
      <trkpt lat="47.50064" lon="6.73781">
        <ele>346.067719</ele>
        <time>2014-03-15T12:41:22.657Z</time>
      </trkpt>
      <trkpt lat="47.50068" lon="6.73807">
        <ele>346.423309</ele>
        <time>2014-03-15T12:41:28.657Z</time>
      </trkpt>
      <trkpt lat="47.50073" lon="6.73836">
        <ele>346.625916</ele>
        <time>2014-03-15T12:41:35.657Z</time>
      </trkpt>
      <trkpt lat="47.50077" lon="6.73865">
        <ele>346.785797</ele>
        <time>2014-03-15T12:41:42.657Z</time>
      </trkpt>
      <trkpt lat="47.50081" lon="6.73893">
        <ele>346.625916</ele>
        <time>2014-03-15T12:41:50.658Z</time>
      </trkpt>
      <trkpt lat="47.50085" lon="6.73922">
        <ele>346.678314</ele>
        <time>2014-03-15T12:41:59.658Z</time>
      </trkpt>
      <trkpt lat="47.5009" lon="6.73949">
        <ele>347.069519</ele>
        <time>2014-03-15T12:42:08.659Z</time>
      </trkpt>
      <trkpt lat="47.50097" lon="6.73975">
        <ele>347.626404</ele>
        <time>2014-03-15T12:42:17.659Z</time>
      </trkpt>
      <trkpt lat="47.50104" lon="6.74001">
        <ele>348.443787</ele>
        <time>2014-03-15T12:42:25.662Z</time>
      </trkpt>
      <trkpt lat="47.50112" lon="6.74026">
        <ele>349.606873</ele>
        <time>2014-03-15T12:42:34.658Z</time>
      </trkpt>
      <trkpt lat="47.50121" lon="6.74051">
        <ele>350.936005</ele>
        <time>2014-03-15T12:42:42.661Z</time>
      </trkpt>
      <trkpt lat="47.50129" lon="6.74076">
        <ele>353.233734</ele>
        <time>2014-03-15T12:42:51.660Z</time>
      </trkpt>
      <trkpt lat="47.50135" lon="6.74102">
        <ele>355.669342</ele>
        <time>2014-03-15T12:43:01.660Z</time>
      </trkpt>
      <trkpt lat="47.50145" lon="6.74125">
        <ele>357.549927</ele>
        <time>2014-03-15T12:43:10.657Z</time>
      </trkpt>
      <trkpt lat="47.50155" lon="6.74148">
        <ele>359.085938</ele>
        <time>2014-03-15T12:43:19.658Z</time>
      </trkpt>
      <trkpt lat="47.50161" lon="6.74173">
        <ele>359.867279</ele>
        <time>2014-03-15T12:43:27.658Z</time>
      </trkpt>
      <trkpt lat="47.50168" lon="6.74198">
        <ele>360.295013</ele>
        <time>2014-03-15T12:43:35.654Z</time>
      </trkpt>
      <trkpt lat="47.50176" lon="6.74223">
        <ele>360.372131</ele>
        <time>2014-03-15T12:43:41.658Z</time>
      </trkpt>
      <trkpt lat="47.50187" lon="6.74247">
        <ele>360.184814</ele>
        <time>2014-03-15T12:43:45.658Z</time>
      </trkpt>
      <trkpt lat="47.50201" lon="6.74272">
        <ele>359.976593</ele>
        <time>2014-03-15T12:43:49.658Z</time>
      </trkpt>
      <trkpt lat="47.50214" lon="6.74292">
        <ele>359.769653</ele>
        <time>2014-03-15T12:43:52.656Z</time>
      </trkpt>
      <trkpt lat="47.50229" lon="6.74313">
        <ele>359.349518</ele>
        <time>2014-03-15T12:43:56.669Z</time>
      </trkpt>
      <trkpt lat="47.50245" lon="6.74333">
        <ele>358.86496</ele>
        <time>2014-03-15T12:44:00.657Z</time>
      </trkpt>
      <trkpt lat="47.50259" lon="6.74362">
        <ele>358.310059</ele>
        <time>2014-03-15T12:44:04.658Z</time>
      </trkpt>
      <trkpt lat="47.50269" lon="6.74386">
        <ele>357.672089</ele>
        <time>2014-03-15T12:44:07.667Z</time>
      </trkpt>
      <trkpt lat="47.50279" lon="6.74415">
        <ele>356.825928</ele>
        <time>2014-03-15T12:44:11.656Z</time>
      </trkpt>
      <trkpt lat="47.50286" lon="6.74447">
        <ele>355.930328</ele>
        <time>2014-03-15T12:44:15.660Z</time>
      </trkpt>
      <trkpt lat="47.5029" lon="6.74474">
        <ele>355.516693</ele>
        <time>2014-03-15T12:44:18.662Z</time>
      </trkpt>
      <trkpt lat="47.50292" lon="6.74501">
        <ele>355.086029</ele>
        <time>2014-03-15T12:44:21.663Z</time>
      </trkpt>
      <trkpt lat="47.50291" lon="6.74534">
        <ele>354.288635</ele>
        <time>2014-03-15T12:44:25.657Z</time>
      </trkpt>
      <trkpt lat="47.5029" lon="6.74562">
        <ele>353.632172</ele>
        <time>2014-03-15T12:44:28.662Z</time>
      </trkpt>
      <trkpt lat="47.50289" lon="6.74592">
        <ele>352.955139</ele>
        <time>2014-03-15T12:44:31.664Z</time>
      </trkpt>
      <trkpt lat="47.50289" lon="6.74622">
        <ele>352.23584</ele>
        <time>2014-03-15T12:44:34.660Z</time>
      </trkpt>
      <trkpt lat="47.50289" lon="6.74653">
        <ele>351.510284</ele>
        <time>2014-03-15T12:44:37.663Z</time>
      </trkpt>
      <trkpt lat="47.50289" lon="6.74685">
        <ele>350.701172</ele>
        <time>2014-03-15T12:44:40.662Z</time>
      </trkpt>
      <trkpt lat="47.50287" lon="6.74717">
        <ele>349.803986</ele>
        <time>2014-03-15T12:44:43.661Z</time>
      </trkpt>
      <trkpt lat="47.50283" lon="6.74751">
        <ele>348.824554</ele>
        <time>2014-03-15T12:44:46.666Z</time>
      </trkpt>
      <trkpt lat="47.50274" lon="6.74785">
        <ele>347.778656</ele>
        <time>2014-03-15T12:44:49.664Z</time>
      </trkpt>
      <trkpt lat="47.50264" lon="6.74816">
        <ele>346.652008</ele>
        <time>2014-03-15T12:44:52.661Z</time>
      </trkpt>
      <trkpt lat="47.50255" lon="6.74846">
        <ele>345.593719</ele>
        <time>2014-03-15T12:44:55.674Z</time>
      </trkpt>
      <trkpt lat="47.50248" lon="6.74871">
        <ele>344.647095</ele>
        <time>2014-03-15T12:44:58.732Z</time>
      </trkpt>
      <trkpt lat="47.50241" lon="6.74904">
        <ele>343.573669</ele>
        <time>2014-03-15T12:45:01.674Z</time>
      </trkpt>
      <trkpt lat="47.50235" lon="6.74935">
        <ele>342.589935</ele>
        <time>2014-03-15T12:45:04.674Z</time>
      </trkpt>
      <trkpt lat="47.50221" lon="6.74962">
        <ele>341.4534</ele>
        <time>2014-03-15T12:45:07.674Z</time>
      </trkpt>
      <trkpt lat="47.50204" lon="6.74986">
        <ele>340.312134</ele>
        <time>2014-03-15T12:45:10.674Z</time>
      </trkpt>
      <trkpt lat="47.50195" lon="6.7502">
        <ele>339.134949</ele>
        <time>2014-03-15T12:45:13.669Z</time>
      </trkpt>
      <trkpt lat="47.50189" lon="6.75059">
        <ele>337.972717</ele>
        <time>2014-03-15T12:45:16.664Z</time>
      </trkpt>
      <trkpt lat="47.50186" lon="6.75093">
        <ele>336.751923</ele>
        <time>2014-03-15T12:45:19.664Z</time>
      </trkpt>
      <trkpt lat="47.50182" lon="6.75119">
        <ele>335.39682</ele>
        <time>2014-03-15T12:45:22.661Z</time>
      </trkpt>
      <trkpt lat="47.50166" lon="6.75141">
        <ele>333.73645</ele>
        <time>2014-03-15T12:45:26.657Z</time>
      </trkpt>
      <trkpt lat="47.50147" lon="6.75159">
        <ele>332.0271</ele>
        <time>2014-03-15T12:45:30.650Z</time>
      </trkpt>
      <trkpt lat="47.5013" lon="6.7517">
        <ele>329.95871</ele>
        <time>2014-03-15T12:45:35.657Z</time>
      </trkpt>
      <trkpt lat="47.50109" lon="6.75183">
        <ele>327.588135</ele>
        <time>2014-03-15T12:45:41.684Z</time>
      </trkpt>
      <trkpt lat="47.50091" lon="6.75191">
        <ele>326.191437</ele>
        <time>2014-03-15T12:45:45.677Z</time>
      </trkpt>
      <trkpt lat="47.50073" lon="6.752">
        <ele>325.041809</ele>
        <time>2014-03-15T12:45:49.670Z</time>
      </trkpt>
      <trkpt lat="47.50054" lon="6.75204">
        <ele>323.995789</ele>
        <time>2014-03-15T12:45:53.663Z</time>
      </trkpt>
      <trkpt lat="47.50035" lon="6.75209">
        <ele>323.083527</ele>
        <time>2014-03-15T12:45:57.671Z</time>
      </trkpt>
      <trkpt lat="47.50017" lon="6.75228">
        <ele>321.925079</ele>
        <time>2014-03-15T12:46:01.650Z</time>
      </trkpt>
      <trkpt lat="47.50008" lon="6.75251">
        <ele>320.929749</ele>
        <time>2014-03-15T12:46:05.661Z</time>
      </trkpt>
      <trkpt lat="47.50008" lon="6.7528">
        <ele>320.369141</ele>
        <time>2014-03-15T12:46:09.652Z</time>
      </trkpt>
      <trkpt lat="47.5001" lon="6.75311">
        <ele>319.905212</ele>
        <time>2014-03-15T12:46:14.660Z</time>
      </trkpt>
      <trkpt lat="47.50012" lon="6.75343">
        <ele>319.661957</ele>
        <time>2014-03-15T12:46:20.670Z</time>
      </trkpt>
      <trkpt lat="47.50008" lon="6.75374">
        <ele>319.784302</ele>
        <time>2014-03-15T12:46:26.670Z</time>
      </trkpt>
      <trkpt lat="47.49997" lon="6.75397">
        <ele>319.948364</ele>
        <time>2014-03-15T12:46:31.670Z</time>
      </trkpt>
      <trkpt lat="47.49981" lon="6.75409">
        <ele>320.063049</ele>
        <time>2014-03-15T12:46:36.657Z</time>
      </trkpt>
      <trkpt lat="47.49961" lon="6.75412">
        <ele>320.148071</ele>
        <time>2014-03-15T12:46:42.655Z</time>
      </trkpt>
      <trkpt lat="47.49942" lon="6.75411">
        <ele>320.319397</ele>
        <time>2014-03-15T12:46:47.666Z</time>
      </trkpt>
      <trkpt lat="47.49922" lon="6.75413">
        <ele>320.445099</ele>
        <time>2014-03-15T12:46:52.658Z</time>
      </trkpt>
      <trkpt lat="47.49905" lon="6.7542">
        <ele>320.109283</ele>
        <time>2014-03-15T12:46:56.665Z</time>
      </trkpt>
      <trkpt lat="47.49888" lon="6.75436">
        <ele>320.289001</ele>
        <time>2014-03-15T12:47:00.649Z</time>
      </trkpt>
      <trkpt lat="47.49873" lon="6.75456">
        <ele>320.709259</ele>
        <time>2014-03-15T12:47:04.655Z</time>
      </trkpt>
      <trkpt lat="47.49859" lon="6.7548">
        <ele>320.989746</ele>
        <time>2014-03-15T12:47:08.660Z</time>
      </trkpt>
      <trkpt lat="47.49844" lon="6.75504">
        <ele>320.984039</ele>
        <time>2014-03-15T12:47:12.665Z</time>
      </trkpt>
      <trkpt lat="47.4983" lon="6.75526">
        <ele>320.868042</ele>
        <time>2014-03-15T12:47:16.650Z</time>
      </trkpt>
      <trkpt lat="47.49816" lon="6.75546">
        <ele>320.683105</ele>
        <time>2014-03-15T12:47:20.656Z</time>
      </trkpt>
      <trkpt lat="47.49798" lon="6.75569">
        <ele>320.53952</ele>
        <time>2014-03-15T12:47:24.662Z</time>
      </trkpt>
      <trkpt lat="47.49784" lon="6.75587">
        <ele>320.226715</ele>
        <time>2014-03-15T12:47:28.667Z</time>
      </trkpt>
      <trkpt lat="47.49768" lon="6.75601">
        <ele>320.157043</ele>
        <time>2014-03-15T12:47:32.654Z</time>
      </trkpt>
      <trkpt lat="47.4975" lon="6.75613">
        <ele>320.231995</ele>
        <time>2014-03-15T12:47:36.658Z</time>
      </trkpt>
      <trkpt lat="47.49733" lon="6.75622">
        <ele>320.159851</ele>
        <time>2014-03-15T12:47:39.658Z</time>
      </trkpt>
      <trkpt lat="47.49715" lon="6.75628">
        <ele>320.219666</ele>
        <time>2014-03-15T12:47:43.662Z</time>
      </trkpt>
      <trkpt lat="47.49694" lon="6.75635">
        <ele>319.797424</ele>
        <time>2014-03-15T12:47:47.669Z</time>
      </trkpt>
      <trkpt lat="47.49674" lon="6.75642">
        <ele>319.77713</ele>
        <time>2014-03-15T12:47:51.653Z</time>
      </trkpt>
      <trkpt lat="47.49656" lon="6.75652">
        <ele>319.749359</ele>
        <time>2014-03-15T12:47:55.658Z</time>
      </trkpt>
      <trkpt lat="47.49636" lon="6.75665">
        <ele>319.758728</ele>
        <time>2014-03-15T12:47:59.664Z</time>
      </trkpt>
      <trkpt lat="47.49616" lon="6.75679">
        <ele>319.457153</ele>
        <time>2014-03-15T12:48:03.649Z</time>
      </trkpt>
      <trkpt lat="47.49597" lon="6.7569">
        <ele>319.368134</ele>
        <time>2014-03-15T12:48:08.657Z</time>
      </trkpt>
      <trkpt lat="47.4958" lon="6.75673">
        <ele>319.320221</ele>
        <time>2014-03-15T12:48:13.654Z</time>
      </trkpt>
      <trkpt lat="47.49565" lon="6.75654">
        <ele>319.368927</ele>
        <time>2014-03-15T12:48:18.666Z</time>
      </trkpt>
      <trkpt lat="47.49552" lon="6.75634">
        <ele>318.89917</ele>
        <time>2014-03-15T12:48:23.656Z</time>
      </trkpt>
      <trkpt lat="47.49532" lon="6.75644">
        <ele>318.785095</ele>
        <time>2014-03-15T12:48:28.649Z</time>
      </trkpt>
      <trkpt lat="47.49516" lon="6.75655">
        <ele>318.384094</ele>
        <time>2014-03-15T12:48:32.654Z</time>
      </trkpt>
      <trkpt lat="47.49496" lon="6.75668">
        <ele>317.339417</ele>
        <time>2014-03-15T12:48:37.648Z</time>
      </trkpt>
      <trkpt lat="47.4948" lon="6.75679">
        <ele>316.582977</ele>
        <time>2014-03-15T12:48:41.651Z</time>
      </trkpt>
      <trkpt lat="47.49463" lon="6.75691">
        <ele>316.338318</ele>
        <time>2014-03-15T12:48:45.656Z</time>
      </trkpt>
      <trkpt lat="47.49445" lon="6.75696">
        <ele>316.009949</ele>
        <time>2014-03-15T12:48:51.655Z</time>
      </trkpt>
      <trkpt lat="47.49437" lon="6.75671">
        <ele>315.87677</ele>
        <time>2014-03-15T12:48:57.652Z</time>
      </trkpt>
      <trkpt lat="47.49417" lon="6.75679">
        <ele>315.543121</ele>
        <time>2014-03-15T12:49:03.654Z</time>
      </trkpt>
      <trkpt lat="47.494" lon="6.75692">
        <ele>314.837006</ele>
        <time>2014-03-15T12:49:09.652Z</time>
      </trkpt>
      <trkpt lat="47.49383" lon="6.75705">
        <ele>314.410828</ele>
        <time>2014-03-15T12:49:14.651Z</time>
      </trkpt>
      <trkpt lat="47.49366" lon="6.75719">
        <ele>313.927887</ele>
        <time>2014-03-15T12:49:20.670Z</time>
      </trkpt>
      <trkpt lat="47.49346" lon="6.75727">
        <ele>314.071625</ele>
        <time>2014-03-15T12:49:29.660Z</time>
      </trkpt>
      <trkpt lat="47.49325" lon="6.75741">
        <ele>314.395935</ele>
        <time>2014-03-15T12:49:33.653Z</time>
      </trkpt>
      <trkpt lat="47.49308" lon="6.75757">
        <ele>315.051025</ele>
        <time>2014-03-15T12:49:37.653Z</time>
      </trkpt>
      <trkpt lat="47.49293" lon="6.75777">
        <ele>315.350159</ele>
        <time>2014-03-15T12:49:42.652Z</time>
      </trkpt>
      <trkpt lat="47.49279" lon="6.758">
        <ele>315.098297</ele>
        <time>2014-03-15T12:49:48.680Z</time>
      </trkpt>
      <trkpt lat="47.49266" lon="6.75822">
        <ele>314.258209</ele>
        <time>2014-03-15T12:49:54.671Z</time>
      </trkpt>
      <trkpt lat="47.49253" lon="6.75847">
        <ele>313.567719</ele>
        <time>2014-03-15T12:50:01.671Z</time>
      </trkpt>
      <trkpt lat="47.49243" lon="6.7587">
        <ele>312.792389</ele>
        <time>2014-03-15T12:50:07.652Z</time>
      </trkpt>
      <trkpt lat="47.49231" lon="6.75898">
        <ele>312.373749</ele>
        <time>2014-03-15T12:50:13.652Z</time>
      </trkpt>
      <trkpt lat="47.49222" lon="6.75922">
        <ele>312.058319</ele>
        <time>2014-03-15T12:50:20.655Z</time>
      </trkpt>
      <trkpt lat="47.4921" lon="6.75942">
        <ele>311.341797</ele>
        <time>2014-03-15T12:50:25.653Z</time>
      </trkpt>
      <trkpt lat="47.49194" lon="6.75971">
        <ele>310.077911</ele>
        <time>2014-03-15T12:50:29.704Z</time>
      </trkpt>
      <trkpt lat="47.49183" lon="6.75999">
        <ele>309.56665</ele>
        <time>2014-03-15T12:50:34.654Z</time>
      </trkpt>
      <trkpt lat="47.4917" lon="6.76023">
        <ele>309.422302</ele>
        <time>2014-03-15T12:50:39.653Z</time>
      </trkpt>
      <trkpt lat="47.49162" lon="6.7605">
        <ele>309.775177</ele>
        <time>2014-03-15T12:50:44.657Z</time>
      </trkpt>
      <trkpt lat="47.49151" lon="6.76076">
        <ele>310.41272</ele>
        <time>2014-03-15T12:50:49.654Z</time>
      </trkpt>
      <trkpt lat="47.49145" lon="6.76104">
        <ele>311.266693</ele>
        <time>2014-03-15T12:50:54.655Z</time>
      </trkpt>
      <trkpt lat="47.49139" lon="6.7613">
        <ele>312.027649</ele>
        <time>2014-03-15T12:50:59.654Z</time>
      </trkpt>
      <trkpt lat="47.49137" lon="6.76159">
        <ele>312.835754</ele>
        <time>2014-03-15T12:51:04.654Z</time>
      </trkpt>
      <trkpt lat="47.49133" lon="6.7619">
        <ele>313.45285</ele>
        <time>2014-03-15T12:51:09.655Z</time>
      </trkpt>
      <trkpt lat="47.49131" lon="6.76219">
        <ele>313.548584</ele>
        <time>2014-03-15T12:51:14.653Z</time>
      </trkpt>
      <trkpt lat="47.49129" lon="6.76247">
        <ele>313.797943</ele>
        <time>2014-03-15T12:51:19.655Z</time>
      </trkpt>
      <trkpt lat="47.49128" lon="6.76275">
        <ele>314.997894</ele>
        <time>2014-03-15T12:51:25.654Z</time>
      </trkpt>
      <trkpt lat="47.4913" lon="6.76305">
        <ele>315.836121</ele>
        <time>2014-03-15T12:51:30.653Z</time>
      </trkpt>
      <trkpt lat="47.49131" lon="6.76338">
        <ele>316.050293</ele>
        <time>2014-03-15T12:51:35.653Z</time>
      </trkpt>
      <trkpt lat="47.4913" lon="6.76366">
        <ele>316.259369</ele>
        <time>2014-03-15T12:51:40.654Z</time>
      </trkpt>
      <trkpt lat="47.49129" lon="6.76397">
        <ele>315.746857</ele>
        <time>2014-03-15T12:51:45.654Z</time>
      </trkpt>
      <trkpt lat="47.49128" lon="6.76427">
        <ele>315.26474</ele>
        <time>2014-03-15T12:51:50.653Z</time>
      </trkpt>
      <trkpt lat="47.49128" lon="6.76455">
        <ele>314.999847</ele>
        <time>2014-03-15T12:51:55.654Z</time>
      </trkpt>
      <trkpt lat="47.49126" lon="6.76487">
        <ele>314.948212</ele>
        <time>2014-03-15T12:52:00.654Z</time>
      </trkpt>
      <trkpt lat="47.49124" lon="6.76518">
        <ele>315.026886</ele>
        <time>2014-03-15T12:52:05.653Z</time>
      </trkpt>
      <trkpt lat="47.49125" lon="6.76546">
        <ele>314.970459</ele>
        <time>2014-03-15T12:52:09.653Z</time>
      </trkpt>
      <trkpt lat="47.49126" lon="6.76575">
        <ele>314.891632</ele>
        <time>2014-03-15T12:52:13.652Z</time>
      </trkpt>
      <trkpt lat="47.4913" lon="6.76604">
        <ele>314.681671</ele>
        <time>2014-03-15T12:52:18.653Z</time>
      </trkpt>
      <trkpt lat="47.49134" lon="6.76632">
        <ele>314.317352</ele>
        <time>2014-03-15T12:52:23.654Z</time>
      </trkpt>
      <trkpt lat="47.49138" lon="6.76659">
        <ele>314.165344</ele>
        <time>2014-03-15T12:52:28.652Z</time>
      </trkpt>
      <trkpt lat="47.49142" lon="6.76686">
        <ele>314.078735</ele>
        <time>2014-03-15T12:52:33.653Z</time>
      </trkpt>
      <trkpt lat="47.49146" lon="6.76715">
        <ele>313.557465</ele>
        <time>2014-03-15T12:52:39.656Z</time>
      </trkpt>
      <trkpt lat="47.49148" lon="6.76746">
        <ele>313.456909</ele>
        <time>2014-03-15T12:52:45.654Z</time>
      </trkpt>
      <trkpt lat="47.49152" lon="6.76773">
        <ele>313.410645</ele>
        <time>2014-03-15T12:52:50.653Z</time>
      </trkpt>
      <trkpt lat="47.49152" lon="6.768">
        <ele>312.988251</ele>
        <time>2014-03-15T12:52:55.653Z</time>
      </trkpt>
      <trkpt lat="47.49153" lon="6.76829">
        <ele>312.583954</ele>
        <time>2014-03-15T12:53:00.653Z</time>
      </trkpt>
      <trkpt lat="47.49152" lon="6.76861">
        <ele>312.30304</ele>
        <time>2014-03-15T12:53:05.653Z</time>
      </trkpt>
      <trkpt lat="47.49151" lon="6.76889">
        <ele>312.324219</ele>
        <time>2014-03-15T12:53:10.654Z</time>
      </trkpt>
      <trkpt lat="47.49151" lon="6.76917">
        <ele>312.585968</ele>
        <time>2014-03-15T12:53:15.653Z</time>
      </trkpt>
      <trkpt lat="47.49149" lon="6.76946">
        <ele>312.642029</ele>
        <time>2014-03-15T12:53:20.653Z</time>
      </trkpt>
      <trkpt lat="47.49147" lon="6.76978">
        <ele>312.623322</ele>
        <time>2014-03-15T12:53:26.653Z</time>
      </trkpt>
      <trkpt lat="47.49155" lon="6.77003">
        <ele>312.743439</ele>
        <time>2014-03-15T12:53:31.654Z</time>
      </trkpt>
      <trkpt lat="47.49165" lon="6.77028">
        <ele>312.762939</ele>
        <time>2014-03-15T12:53:37.653Z</time>
      </trkpt>
      <trkpt lat="47.4917" lon="6.77055">
        <ele>312.85379</ele>
        <time>2014-03-15T12:53:42.688Z</time>
      </trkpt>
      <trkpt lat="47.49173" lon="6.77085">
        <ele>312.974304</ele>
        <time>2014-03-15T12:53:48.654Z</time>
      </trkpt>
      <trkpt lat="47.49174" lon="6.77113">
        <ele>312.781219</ele>
        <time>2014-03-15T12:53:54.655Z</time>
      </trkpt>
      <trkpt lat="47.49171" lon="6.77083">
        <ele>312.760956</ele>
        <time>2014-03-15T12:54:07.650Z</time>
      </trkpt>
      <trkpt lat="47.4917" lon="6.77052">
        <ele>312.609222</ele>
        <time>2014-03-15T12:54:13.654Z</time>
      </trkpt>
      <trkpt lat="47.49164" lon="6.77025">
        <ele>312.431274</ele>
        <time>2014-03-15T12:54:19.656Z</time>
      </trkpt>
      <trkpt lat="47.49153" lon="6.77001">
        <ele>312.582428</ele>
        <time>2014-03-15T12:54:25.654Z</time>
      </trkpt>
      <trkpt lat="47.49149" lon="6.76974">
        <ele>312.559509</ele>
        <time>2014-03-15T12:54:31.653Z</time>
      </trkpt>
      <trkpt lat="47.49152" lon="6.76946">
        <ele>312.444275</ele>
        <time>2014-03-15T12:54:37.654Z</time>
      </trkpt>
      <trkpt lat="47.4915" lon="6.76919">
        <ele>312.236328</ele>
        <time>2014-03-15T12:54:42.654Z</time>
      </trkpt>
      <trkpt lat="47.49151" lon="6.76889">
        <ele>311.989807</ele>
        <time>2014-03-15T12:54:48.654Z</time>
      </trkpt>
      <trkpt lat="47.49152" lon="6.76861">
        <ele>312.05011</ele>
        <time>2014-03-15T12:54:54.654Z</time>
      </trkpt>
      <trkpt lat="47.49153" lon="6.76833">
        <ele>312.003296</ele>
        <time>2014-03-15T12:55:00.655Z</time>
      </trkpt>
      <trkpt lat="47.49152" lon="6.76805">
        <ele>311.690216</ele>
        <time>2014-03-15T12:55:06.655Z</time>
      </trkpt>
      <trkpt lat="47.49151" lon="6.76775">
        <ele>311.335419</ele>
        <time>2014-03-15T12:55:12.654Z</time>
      </trkpt>
      <trkpt lat="47.4915" lon="6.76744">
        <ele>311.458008</ele>
        <time>2014-03-15T12:55:18.655Z</time>
      </trkpt>
      <trkpt lat="47.49147" lon="6.76715">
        <ele>311.232513</ele>
        <time>2014-03-15T12:55:24.654Z</time>
      </trkpt>
      <trkpt lat="47.49143" lon="6.76688">
        <ele>310.974152</ele>
        <time>2014-03-15T12:55:29.654Z</time>
      </trkpt>
      <trkpt lat="47.4914" lon="6.76658">
        <ele>310.767426</ele>
        <time>2014-03-15T12:55:35.657Z</time>
      </trkpt>
      <trkpt lat="47.49137" lon="6.7663">
        <ele>311.001587</ele>
        <time>2014-03-15T12:55:41.655Z</time>
      </trkpt>
      <trkpt lat="47.49131" lon="6.76602">
        <ele>311.108917</ele>
        <time>2014-03-15T12:55:47.657Z</time>
      </trkpt>
      <trkpt lat="47.49126" lon="6.76572">
        <ele>311.018341</ele>
        <time>2014-03-15T12:55:53.659Z</time>
      </trkpt>
      <trkpt lat="47.49123" lon="6.76542">
        <ele>310.924072</ele>
        <time>2014-03-15T12:55:59.657Z</time>
      </trkpt>
      <trkpt lat="47.49137" lon="6.76524">
        <ele>311.215973</ele>
        <time>2014-03-15T12:56:06.657Z</time>
      </trkpt>
      <trkpt lat="47.49156" lon="6.76518">
        <ele>311.680481</ele>
        <time>2014-03-15T12:56:12.656Z</time>
      </trkpt>
      <trkpt lat="47.49174" lon="6.76505">
        <ele>312.015381</ele>
        <time>2014-03-15T12:56:20.655Z</time>
      </trkpt>
      <trkpt lat="47.49193" lon="6.76499">
        <ele>318.52121</ele>
        <time>2014-03-15T12:57:49.658Z</time>
      </trkpt>
      <trkpt lat="47.49212" lon="6.76495">
        <ele>317.853851</ele>
        <time>2014-03-15T12:57:57.658Z</time>
      </trkpt>
      <trkpt lat="47.49231" lon="6.76492">
        <ele>316.45282</ele>
        <time>2014-03-15T12:58:04.657Z</time>
      </trkpt>
      <trkpt lat="47.49245" lon="6.76476">
        <ele>316.580048</ele>
        <time>2014-03-15T12:58:11.663Z</time>
      </trkpt>
      <trkpt lat="47.49247" lon="6.76446">
        <ele>316.974396</ele>
        <time>2014-03-15T12:58:17.672Z</time>
      </trkpt>
      <trkpt lat="47.49247" lon="6.76413">
        <ele>316.94696</ele>
        <time>2014-03-15T12:58:24.660Z</time>
      </trkpt>
      <trkpt lat="47.49247" lon="6.76382">
        <ele>317.095673</ele>
        <time>2014-03-15T12:58:29.659Z</time>
      </trkpt>
      <trkpt lat="47.49244" lon="6.76352">
        <ele>317.081146</ele>
        <time>2014-03-15T12:58:34.659Z</time>
      </trkpt>
      <trkpt lat="47.49242" lon="6.76324">
        <ele>317.059814</ele>
        <time>2014-03-15T12:58:39.669Z</time>
      </trkpt>
      <trkpt lat="47.4924" lon="6.76294">
        <ele>316.678314</ele>
        <time>2014-03-15T12:58:44.659Z</time>
      </trkpt>
      <trkpt lat="47.49243" lon="6.76267">
        <ele>316.691559</ele>
        <time>2014-03-15T12:58:49.658Z</time>
      </trkpt>
      <trkpt lat="47.49253" lon="6.76242">
        <ele>316.995453</ele>
        <time>2014-03-15T12:58:55.658Z</time>
      </trkpt>
      <trkpt lat="47.49261" lon="6.76218">
        <ele>318.474304</ele>
        <time>2014-03-15T12:59:05.660Z</time>
      </trkpt>
      <trkpt lat="47.49269" lon="6.76193">
        <ele>319.894104</ele>
        <time>2014-03-15T12:59:16.660Z</time>
      </trkpt>
      <trkpt lat="47.49276" lon="6.76167">
        <ele>322.447754</ele>
        <time>2014-03-15T12:59:28.660Z</time>
      </trkpt>
      <trkpt lat="47.49284" lon="6.76141">
        <ele>325.109192</ele>
        <time>2014-03-15T12:59:40.660Z</time>
      </trkpt>
      <trkpt lat="47.49289" lon="6.76115">
        <ele>328.260254</ele>
        <time>2014-03-15T12:59:52.661Z</time>
      </trkpt>
      <trkpt lat="47.49297" lon="6.7609">
        <ele>331.435272</ele>
        <time>2014-03-15T13:00:05.660Z</time>
      </trkpt>
      <trkpt lat="47.49306" lon="6.76065">
        <ele>335.012634</ele>
        <time>2014-03-15T13:00:17.661Z</time>
      </trkpt>
      <trkpt lat="47.49322" lon="6.76049">
        <ele>337.931335</ele>
        <time>2014-03-15T13:00:30.663Z</time>
      </trkpt>
      <trkpt lat="47.49339" lon="6.76036">
        <ele>339.940857</ele>
        <time>2014-03-15T13:00:43.663Z</time>
      </trkpt>
      <trkpt lat="47.49357" lon="6.76028">
        <ele>341.374542</ele>
        <time>2014-03-15T13:00:53.663Z</time>
      </trkpt>
      <trkpt lat="47.49376" lon="6.76025">
        <ele>342.708557</ele>
        <time>2014-03-15T13:01:04.661Z</time>
      </trkpt>
      <trkpt lat="47.49396" lon="6.76021">
        <ele>343.576355</ele>
        <time>2014-03-15T13:01:15.662Z</time>
      </trkpt>
      <trkpt lat="47.49414" lon="6.76023">
        <ele>344.226929</ele>
        <time>2014-03-15T13:01:25.662Z</time>
      </trkpt>
      <trkpt lat="47.49433" lon="6.76023">
        <ele>345.718414</ele>
        <time>2014-03-15T13:01:37.659Z</time>
      </trkpt>
      <trkpt lat="47.49452" lon="6.76022">
        <ele>347.124969</ele>
        <time>2014-03-15T13:01:46.662Z</time>
      </trkpt>
      <trkpt lat="47.49471" lon="6.76024">
        <ele>348.566833</ele>
        <time>2014-03-15T13:01:56.663Z</time>
      </trkpt>
      <trkpt lat="47.4949" lon="6.76022">
        <ele>349.836426</ele>
        <time>2014-03-15T13:02:07.666Z</time>
      </trkpt>
      <trkpt lat="47.4951" lon="6.76023">
        <ele>351.269073</ele>
        <time>2014-03-15T13:02:18.662Z</time>
      </trkpt>
      <trkpt lat="47.49528" lon="6.7602">
        <ele>352.824066</ele>
        <time>2014-03-15T13:02:28.661Z</time>
      </trkpt>
      <trkpt lat="47.49546" lon="6.76018">
        <ele>354.405029</ele>
        <time>2014-03-15T13:02:38.662Z</time>
      </trkpt>
      <trkpt lat="47.49565" lon="6.76019">
        <ele>355.519135</ele>
        <time>2014-03-15T13:02:47.661Z</time>
      </trkpt>
      <trkpt lat="47.49584" lon="6.76027">
        <ele>356.538483</ele>
        <time>2014-03-15T13:02:55.662Z</time>
      </trkpt>
      <trkpt lat="47.49598" lon="6.76044">
        <ele>357.855316</ele>
        <time>2014-03-15T13:03:05.660Z</time>
      </trkpt>
      <trkpt lat="47.49611" lon="6.76067">
        <ele>358.941315</ele>
        <time>2014-03-15T13:03:16.661Z</time>
      </trkpt>
      <trkpt lat="47.49625" lon="6.76084">
        <ele>359.984253</ele>
        <time>2014-03-15T13:03:28.661Z</time>
      </trkpt>
      <trkpt lat="47.49638" lon="6.76103">
        <ele>361.81488</ele>
        <time>2014-03-15T13:03:41.688Z</time>
      </trkpt>
      <trkpt lat="47.49653" lon="6.7612">
        <ele>363.48349</ele>
        <time>2014-03-15T13:03:52.664Z</time>
      </trkpt>
      <trkpt lat="47.49669" lon="6.76135">
        <ele>365.075317</ele>
        <time>2014-03-15T13:04:03.663Z</time>
      </trkpt>
      <trkpt lat="47.49683" lon="6.76154">
        <ele>367.185333</ele>
        <time>2014-03-15T13:04:14.664Z</time>
      </trkpt>
      <trkpt lat="47.49696" lon="6.76175">
        <ele>368.969696</ele>
        <time>2014-03-15T13:04:26.671Z</time>
      </trkpt>
      <trkpt lat="47.49711" lon="6.76191">
        <ele>370.72226</ele>
        <time>2014-03-15T13:04:37.672Z</time>
      </trkpt>
      <trkpt lat="47.49726" lon="6.76208">
        <ele>372.521637</ele>
        <time>2014-03-15T13:04:49.672Z</time>
      </trkpt>
      <trkpt lat="47.49739" lon="6.76227">
        <ele>374.055939</ele>
        <time>2014-03-15T13:05:01.672Z</time>
      </trkpt>
      <trkpt lat="47.49754" lon="6.76243">
        <ele>375.957794</ele>
        <time>2014-03-15T13:05:12.672Z</time>
      </trkpt>
      <trkpt lat="47.49768" lon="6.7626">
        <ele>378.46637</ele>
        <time>2014-03-15T13:05:24.676Z</time>
      </trkpt>
      <trkpt lat="47.49783" lon="6.76278">
        <ele>380.562469</ele>
        <time>2014-03-15T13:05:36.672Z</time>
      </trkpt>
      <trkpt lat="47.49798" lon="6.76294">
        <ele>382.743896</ele>
        <time>2014-03-15T13:05:48.674Z</time>
      </trkpt>
      <trkpt lat="47.49817" lon="6.76302">
        <ele>385.939972</ele>
        <time>2014-03-15T13:05:59.672Z</time>
      </trkpt>
      <trkpt lat="47.49832" lon="6.76317">
        <ele>387.66626</ele>
        <time>2014-03-15T13:06:10.672Z</time>
      </trkpt>
      <trkpt lat="47.49844" lon="6.76338">
        <ele>388.424103</ele>
        <time>2014-03-15T13:06:20.672Z</time>
      </trkpt>
      <trkpt lat="47.49841" lon="6.76367">
        <ele>389.546783</ele>
        <time>2014-03-15T13:06:30.679Z</time>
      </trkpt>
      <trkpt lat="47.49852" lon="6.76389">
        <ele>390.144806</ele>
        <time>2014-03-15T13:06:40.674Z</time>
      </trkpt>
      <trkpt lat="47.49868" lon="6.76407">
        <ele>391.452667</ele>
        <time>2014-03-15T13:06:50.670Z</time>
      </trkpt>
      <trkpt lat="47.49882" lon="6.76423">
        <ele>391.477783</ele>
        <time>2014-03-15T13:07:01.667Z</time>
      </trkpt>
      <trkpt lat="47.49898" lon="6.7644">
        <ele>393.260498</ele>
        <time>2014-03-15T13:07:11.668Z</time>
      </trkpt>
      <trkpt lat="47.49916" lon="6.76447">
        <ele>394.5802</ele>
        <time>2014-03-15T13:07:24.670Z</time>
      </trkpt>
      <trkpt lat="47.49932" lon="6.76461">
        <ele>395.753967</ele>
        <time>2014-03-15T13:07:32.671Z</time>
      </trkpt>
      <trkpt lat="47.49947" lon="6.76479">
        <ele>397.705078</ele>
        <time>2014-03-15T13:07:43.671Z</time>
      </trkpt>
      <trkpt lat="47.49966" lon="6.76488">
        <ele>400.752075</ele>
        <time>2014-03-15T13:07:54.673Z</time>
      </trkpt>
      <trkpt lat="47.49984" lon="6.76493">
        <ele>403.181488</ele>
        <time>2014-03-15T13:08:02.669Z</time>
      </trkpt>
      <trkpt lat="47.49993" lon="6.76519">
        <ele>403.340393</ele>
        <time>2014-03-15T13:08:11.672Z</time>
      </trkpt>
      <trkpt lat="47.49991" lon="6.76548">
        <ele>404.271545</ele>
        <time>2014-03-15T13:08:18.672Z</time>
      </trkpt>
      <trkpt lat="47.49992" lon="6.76579">
        <ele>405.58194</ele>
        <time>2014-03-15T13:08:25.671Z</time>
      </trkpt>
      <trkpt lat="47.50011" lon="6.76587">
        <ele>406.803772</ele>
        <time>2014-03-15T13:08:32.671Z</time>
      </trkpt>
      <trkpt lat="47.5003" lon="6.76583">
        <ele>407.906555</ele>
        <time>2014-03-15T13:08:40.671Z</time>
      </trkpt>
      <trkpt lat="47.50051" lon="6.76581">
        <ele>407.628418</ele>
        <time>2014-03-15T13:08:47.671Z</time>
      </trkpt>
      <trkpt lat="47.50069" lon="6.76581">
        <ele>407.596497</ele>
        <time>2014-03-15T13:08:52.670Z</time>
      </trkpt>
      <trkpt lat="47.50087" lon="6.76588">
        <ele>407.654175</ele>
        <time>2014-03-15T13:09:01.670Z</time>
      </trkpt>
      <trkpt lat="47.501" lon="6.76609">
        <ele>408.010986</ele>
        <time>2014-03-15T13:09:07.671Z</time>
      </trkpt>
      <trkpt lat="47.5012" lon="6.76615">
        <ele>408.127014</ele>
        <time>2014-03-15T13:09:17.672Z</time>
      </trkpt>
      <trkpt lat="47.50141" lon="6.76608">
        <ele>407.781403</ele>
        <time>2014-03-15T13:09:22.671Z</time>
      </trkpt>
      <trkpt lat="47.50163" lon="6.76605">
        <ele>407.578033</ele>
        <time>2014-03-15T13:09:27.672Z</time>
      </trkpt>
      <trkpt lat="47.50181" lon="6.76608">
        <ele>407.311279</ele>
        <time>2014-03-15T13:09:30.672Z</time>
      </trkpt>
      <trkpt lat="47.50201" lon="6.76619">
        <ele>406.859131</ele>
        <time>2014-03-15T13:09:34.672Z</time>
      </trkpt>
      <trkpt lat="47.5021" lon="6.76647">
        <ele>406.365875</ele>
        <time>2014-03-15T13:09:39.671Z</time>
      </trkpt>
      <trkpt lat="47.50218" lon="6.76674">
        <ele>406.093292</ele>
        <time>2014-03-15T13:09:44.714Z</time>
      </trkpt>
      <trkpt lat="47.50226" lon="6.767">
        <ele>405.163666</ele>
        <time>2014-03-15T13:09:49.671Z</time>
      </trkpt>
      <trkpt lat="47.50235" lon="6.76725">
        <ele>404.01123</ele>
        <time>2014-03-15T13:09:54.673Z</time>
      </trkpt>
      <trkpt lat="47.50248" lon="6.76745">
        <ele>402.701752</ele>
        <time>2014-03-15T13:09:59.671Z</time>
      </trkpt>
      <trkpt lat="47.50266" lon="6.76747">
        <ele>401.846222</ele>
        <time>2014-03-15T13:10:04.675Z</time>
      </trkpt>
      <trkpt lat="47.50288" lon="6.7674">
        <ele>401.288574</ele>
        <time>2014-03-15T13:10:09.672Z</time>
      </trkpt>
      <trkpt lat="47.50308" lon="6.76735">
        <ele>401.037811</ele>
        <time>2014-03-15T13:10:13.674Z</time>
      </trkpt>
      <trkpt lat="47.50327" lon="6.76728">
        <ele>400.779816</ele>
        <time>2014-03-15T13:10:17.672Z</time>
      </trkpt>
      <trkpt lat="47.50348" lon="6.76718">
        <ele>400.419556</ele>
        <time>2014-03-15T13:10:21.672Z</time>
      </trkpt>
      <trkpt lat="47.50367" lon="6.76709">
        <ele>400.036743</ele>
        <time>2014-03-15T13:10:25.672Z</time>
      </trkpt>
      <trkpt lat="47.50385" lon="6.76702">
        <ele>399.581268</ele>
        <time>2014-03-15T13:10:29.695Z</time>
      </trkpt>
      <trkpt lat="47.50404" lon="6.76692">
        <ele>399.453644</ele>
        <time>2014-03-15T13:10:34.440Z</time>
      </trkpt>
      <trkpt lat="47.50424" lon="6.76685">
        <ele>399.32074</ele>
        <time>2014-03-15T13:10:38.674Z</time>
      </trkpt>
      <trkpt lat="47.50444" lon="6.76676">
        <ele>399.246796</ele>
        <time>2014-03-15T13:10:43.673Z</time>
      </trkpt>
      <trkpt lat="47.50465" lon="6.76666">
        <ele>399.137695</ele>
        <time>2014-03-15T13:10:49.673Z</time>
      </trkpt>
      <trkpt lat="47.50484" lon="6.76659">
        <ele>399.185486</ele>
        <time>2014-03-15T13:10:54.674Z</time>
      </trkpt>
      <trkpt lat="47.50504" lon="6.76653">
        <ele>399.356598</ele>
        <time>2014-03-15T13:11:01.672Z</time>
      </trkpt>
      <trkpt lat="47.50519" lon="6.76678">
        <ele>399.497864</ele>
        <time>2014-03-15T13:11:08.676Z</time>
      </trkpt>
      <trkpt lat="47.50536" lon="6.76693">
        <ele>399.608948</ele>
        <time>2014-03-15T13:11:12.675Z</time>
      </trkpt>
      <trkpt lat="47.50555" lon="6.7669">
        <ele>399.737061</ele>
        <time>2014-03-15T13:11:16.673Z</time>
      </trkpt>
      <trkpt lat="47.50574" lon="6.76683">
        <ele>399.725464</ele>
        <time>2014-03-15T13:11:21.674Z</time>
      </trkpt>
      <trkpt lat="47.50597" lon="6.76676">
        <ele>399.544098</ele>
        <time>2014-03-15T13:11:26.673Z</time>
      </trkpt>
      <trkpt lat="47.50619" lon="6.76668">
        <ele>399.311981</ele>
        <time>2014-03-15T13:11:30.670Z</time>
      </trkpt>
      <trkpt lat="47.50638" lon="6.76661">
        <ele>399.053864</ele>
        <time>2014-03-15T13:11:33.683Z</time>
      </trkpt>
      <trkpt lat="47.50659" lon="6.76647">
        <ele>398.855927</ele>
        <time>2014-03-15T13:11:36.675Z</time>
      </trkpt>
      <trkpt lat="47.50677" lon="6.76636">
        <ele>398.509979</ele>
        <time>2014-03-15T13:11:39.679Z</time>
      </trkpt>
      <trkpt lat="47.50698" lon="6.76632">
        <ele>398.039948</ele>
        <time>2014-03-15T13:11:42.692Z</time>
      </trkpt>
      <trkpt lat="47.50721" lon="6.76632">
        <ele>397.397522</ele>
        <time>2014-03-15T13:11:45.673Z</time>
      </trkpt>
      <trkpt lat="47.5074" lon="6.76642">
        <ele>397.066528</ele>
        <time>2014-03-15T13:11:48.689Z</time>
      </trkpt>
      <trkpt lat="47.50754" lon="6.76662">
        <ele>396.647278</ele>
        <time>2014-03-15T13:11:51.684Z</time>
      </trkpt>
      <trkpt lat="47.50765" lon="6.76683">
        <ele>396.160919</ele>
        <time>2014-03-15T13:11:54.684Z</time>
      </trkpt>
      <trkpt lat="47.50777" lon="6.76705">
        <ele>395.572906</ele>
        <time>2014-03-15T13:11:57.678Z</time>
      </trkpt>
      <trkpt lat="47.50788" lon="6.76734">
        <ele>394.872894</ele>
        <time>2014-03-15T13:12:01.691Z</time>
      </trkpt>
      <trkpt lat="47.50794" lon="6.76765">
        <ele>394.0159</ele>
        <time>2014-03-15T13:12:05.687Z</time>
      </trkpt>
      <trkpt lat="47.50808" lon="6.76793">
        <ele>392.976776</ele>
        <time>2014-03-15T13:12:09.690Z</time>
      </trkpt>
      <trkpt lat="47.50824" lon="6.7682">
        <ele>392.166565</ele>
        <time>2014-03-15T13:12:12.691Z</time>
      </trkpt>
      <trkpt lat="47.5084" lon="6.76849">
        <ele>391.272217</ele>
        <time>2014-03-15T13:12:15.692Z</time>
      </trkpt>
      <trkpt lat="47.50855" lon="6.76874">
        <ele>390.210144</ele>
        <time>2014-03-15T13:12:18.680Z</time>
      </trkpt>
      <trkpt lat="47.50874" lon="6.76898">
        <ele>389.224304</ele>
        <time>2014-03-15T13:12:21.681Z</time>
      </trkpt>
      <trkpt lat="47.50895" lon="6.76919">
        <ele>388.232025</ele>
        <time>2014-03-15T13:12:24.680Z</time>
      </trkpt>
      <trkpt lat="47.50917" lon="6.76934">
        <ele>387.29126</ele>
        <time>2014-03-15T13:12:27.679Z</time>
      </trkpt>
      <trkpt lat="47.50938" lon="6.76942">
        <ele>386.322083</ele>
        <time>2014-03-15T13:12:30.682Z</time>
      </trkpt>
      <trkpt lat="47.50959" lon="6.76944">
        <ele>385.318878</ele>
        <time>2014-03-15T13:12:33.680Z</time>
      </trkpt>
      <trkpt lat="47.50977" lon="6.76947">
        <ele>384.44162</ele>
        <time>2014-03-15T13:12:36.677Z</time>
      </trkpt>
      <trkpt lat="47.50987" lon="6.76971">
        <ele>383.287262</ele>
        <time>2014-03-15T13:12:40.674Z</time>
      </trkpt>
      <trkpt lat="47.50995" lon="6.76998">
        <ele>382.76416</ele>
        <time>2014-03-15T13:12:43.687Z</time>
      </trkpt>
      <trkpt lat="47.51009" lon="6.77021">
        <ele>381.977203</ele>
        <time>2014-03-15T13:12:46.680Z</time>
      </trkpt>
      <trkpt lat="47.51024" lon="6.77043">
        <ele>380.677277</ele>
        <time>2014-03-15T13:12:49.679Z</time>
      </trkpt>
      <trkpt lat="47.5104" lon="6.77061">
        <ele>379.59375</ele>
        <time>2014-03-15T13:12:52.703Z</time>
      </trkpt>
      <trkpt lat="47.51059" lon="6.77078">
        <ele>378.585876</ele>
        <time>2014-03-15T13:12:55.685Z</time>
      </trkpt>
      <trkpt lat="47.51082" lon="6.77088">
        <ele>377.570465</ele>
        <time>2014-03-15T13:12:58.680Z</time>
      </trkpt>
      <trkpt lat="47.51103" lon="6.77094">
        <ele>376.645691</ele>
        <time>2014-03-15T13:13:01.682Z</time>
      </trkpt>
      <trkpt lat="47.51126" lon="6.77098">
        <ele>375.756989</ele>
        <time>2014-03-15T13:13:05.692Z</time>
      </trkpt>
      <trkpt lat="47.51145" lon="6.77099">
        <ele>375.350067</ele>
        <time>2014-03-15T13:13:09.682Z</time>
      </trkpt>
      <trkpt lat="47.51167" lon="6.77105">
        <ele>375.124481</ele>
        <time>2014-03-15T13:13:14.680Z</time>
      </trkpt>
      <trkpt lat="47.51186" lon="6.77115">
        <ele>375.249725</ele>
        <time>2014-03-15T13:13:19.681Z</time>
      </trkpt>
      <trkpt lat="47.51198" lon="6.77136">
        <ele>375.457947</ele>
        <time>2014-03-15T13:13:24.678Z</time>
      </trkpt>
      <trkpt lat="47.5121" lon="6.77157">
        <ele>375.586792</ele>
        <time>2014-03-15T13:13:29.677Z</time>
      </trkpt>
      <trkpt lat="47.5122" lon="6.7718">
        <ele>375.829956</ele>
        <time>2014-03-15T13:13:34.678Z</time>
      </trkpt>
      <trkpt lat="47.51233" lon="6.77205">
        <ele>375.648987</ele>
        <time>2014-03-15T13:13:40.679Z</time>
      </trkpt>
      <trkpt lat="47.51246" lon="6.77231">
        <ele>375.454071</ele>
        <time>2014-03-15T13:13:45.677Z</time>
      </trkpt>
      <trkpt lat="47.51258" lon="6.77255">
        <ele>376.621857</ele>
        <time>2014-03-15T13:13:50.678Z</time>
      </trkpt>
      <trkpt lat="47.51278" lon="6.77268">
        <ele>377.491333</ele>
        <time>2014-03-15T13:13:55.674Z</time>
      </trkpt>
      <trkpt lat="47.51298" lon="6.77278">
        <ele>378.29483</ele>
        <time>2014-03-15T13:13:59.678Z</time>
      </trkpt>
      <trkpt lat="47.51318" lon="6.77286">
        <ele>378.935913</ele>
        <time>2014-03-15T13:14:03.678Z</time>
      </trkpt>
      <trkpt lat="47.51341" lon="6.77283">
        <ele>379.16449</ele>
        <time>2014-03-15T13:14:07.676Z</time>
      </trkpt>
      <trkpt lat="47.51361" lon="6.77267">
        <ele>378.970673</ele>
        <time>2014-03-15T13:14:10.685Z</time>
      </trkpt>
      <trkpt lat="47.51377" lon="6.77253">
        <ele>378.707275</ele>
        <time>2014-03-15T13:14:12.683Z</time>
      </trkpt>
      <trkpt lat="47.514" lon="6.77237">
        <ele>378.380127</ele>
        <time>2014-03-15T13:14:15.683Z</time>
      </trkpt>
      <trkpt lat="47.51425" lon="6.77221">
        <ele>378.074951</ele>
        <time>2014-03-15T13:14:18.682Z</time>
      </trkpt>
      <trkpt lat="47.51449" lon="6.7721">
        <ele>377.707397</ele>
        <time>2014-03-15T13:14:21.685Z</time>
      </trkpt>
      <trkpt lat="47.51468" lon="6.77202">
        <ele>377.225281</ele>
        <time>2014-03-15T13:14:24.685Z</time>
      </trkpt>
      <trkpt lat="47.51481" lon="6.77223">
        <ele>376.201202</ele>
        <time>2014-03-15T13:14:29.668Z</time>
      </trkpt>
      <trkpt lat="47.51488" lon="6.77253">
        <ele>375.838379</ele>
        <time>2014-03-15T13:14:33.668Z</time>
      </trkpt>
      <trkpt lat="47.51505" lon="6.77267">
        <ele>375.891357</ele>
        <time>2014-03-15T13:14:38.670Z</time>
      </trkpt>
      <trkpt lat="47.51522" lon="6.77257">
        <ele>375.788391</ele>
        <time>2014-03-15T13:14:42.669Z</time>
      </trkpt>
      <trkpt lat="47.51542" lon="6.77245">
        <ele>375.640259</ele>
        <time>2014-03-15T13:14:47.690Z</time>
      </trkpt>
      <trkpt lat="47.5156" lon="6.77236">
        <ele>375.329437</ele>
        <time>2014-03-15T13:14:52.689Z</time>
      </trkpt>
      <trkpt lat="47.51578" lon="6.77225">
        <ele>375.057587</ele>
        <time>2014-03-15T13:14:59.687Z</time>
      </trkpt>
      <trkpt lat="47.51594" lon="6.77208">
        <ele>374.61087</ele>
        <time>2014-03-15T13:15:05.679Z</time>
      </trkpt>
      <trkpt lat="47.51614" lon="6.77191">
        <ele>374.954926</ele>
        <time>2014-03-15T13:15:11.679Z</time>
      </trkpt>
      <trkpt lat="47.51631" lon="6.77185">
        <ele>375.528046</ele>
        <time>2014-03-15T13:15:18.678Z</time>
      </trkpt>
      <trkpt lat="47.51649" lon="6.77174">
        <ele>376.469696</ele>
        <time>2014-03-15T13:15:23.677Z</time>
      </trkpt>
      <trkpt lat="47.51667" lon="6.77166">
        <ele>377.846008</ele>
        <time>2014-03-15T13:15:29.678Z</time>
      </trkpt>
      <trkpt lat="47.51685" lon="6.7716">
        <ele>378.259583</ele>
        <time>2014-03-15T13:15:35.677Z</time>
      </trkpt>
      <trkpt lat="47.51704" lon="6.77156">
        <ele>378.883484</ele>
        <time>2014-03-15T13:15:41.676Z</time>
      </trkpt>
      <trkpt lat="47.51723" lon="6.77157">
        <ele>379.130463</ele>
        <time>2014-03-15T13:15:45.678Z</time>
      </trkpt>
      <trkpt lat="47.51742" lon="6.77159">
        <ele>379.504852</ele>
        <time>2014-03-15T13:15:49.678Z</time>
      </trkpt>
      <trkpt lat="47.51762" lon="6.77159">
        <ele>379.311768</ele>
        <time>2014-03-15T13:15:53.676Z</time>
      </trkpt>
      <trkpt lat="47.5178" lon="6.77166">
        <ele>379.204376</ele>
        <time>2014-03-15T13:15:57.679Z</time>
      </trkpt>
      <trkpt lat="47.518" lon="6.77182">
        <ele>379.545532</ele>
        <time>2014-03-15T13:16:02.678Z</time>
      </trkpt>
      <trkpt lat="47.51819" lon="6.77196">
        <ele>379.932556</ele>
        <time>2014-03-15T13:16:06.687Z</time>
      </trkpt>
      <trkpt lat="47.51836" lon="6.77213">
        <ele>380.146667</ele>
        <time>2014-03-15T13:16:10.678Z</time>
      </trkpt>
      <trkpt lat="47.51849" lon="6.77231">
        <ele>379.95578</ele>
        <time>2014-03-15T13:16:15.677Z</time>
      </trkpt>
      <trkpt lat="47.51866" lon="6.77247">
        <ele>379.941254</ele>
        <time>2014-03-15T13:16:20.693Z</time>
      </trkpt>
      <trkpt lat="47.51885" lon="6.77263">
        <ele>379.757019</ele>
        <time>2014-03-15T13:16:26.680Z</time>
      </trkpt>
      <trkpt lat="47.5189" lon="6.77291">
        <ele>380.096466</ele>
        <time>2014-03-15T13:16:33.672Z</time>
      </trkpt>
      <trkpt lat="47.51881" lon="6.7732">
        <ele>380.46225</ele>
        <time>2014-03-15T13:16:38.674Z</time>
      </trkpt>
      <trkpt lat="47.51868" lon="6.77349">
        <ele>381.001404</ele>
        <time>2014-03-15T13:16:43.691Z</time>
      </trkpt>
      <trkpt lat="47.51853" lon="6.77371">
        <ele>381.265259</ele>
        <time>2014-03-15T13:16:48.690Z</time>
      </trkpt>
      <trkpt lat="47.51845" lon="6.77396">
        <ele>381.750183</ele>
        <time>2014-03-15T13:16:53.688Z</time>
      </trkpt>
      <trkpt lat="47.51839" lon="6.77423">
        <ele>381.421844</ele>
        <time>2014-03-15T13:16:57.690Z</time>
      </trkpt>
      <trkpt lat="47.51839" lon="6.77449">
        <ele>381.545593</ele>
        <time>2014-03-15T13:17:02.682Z</time>
      </trkpt>
      <trkpt lat="47.51833" lon="6.77477">
        <ele>381.716949</ele>
        <time>2014-03-15T13:17:07.673Z</time>
      </trkpt>
      <trkpt lat="47.51827" lon="6.77503">
        <ele>382.80899</ele>
        <time>2014-03-15T13:17:14.673Z</time>
      </trkpt>
      <trkpt lat="47.51809" lon="6.77495">
        <ele>384.20459</ele>
        <time>2014-03-15T13:17:22.679Z</time>
      </trkpt>
      <trkpt lat="47.51829" lon="6.77499">
        <ele>388.011047</ele>
        <time>2014-03-15T13:18:20.674Z</time>
      </trkpt>
      <trkpt lat="47.51849" lon="6.77504">
        <ele>388.014893</ele>
        <time>2014-03-15T13:18:26.673Z</time>
      </trkpt>
      <trkpt lat="47.51868" lon="6.77501">
        <ele>387.804321</ele>
        <time>2014-03-15T13:18:32.675Z</time>
      </trkpt>
      <trkpt lat="47.51887" lon="6.77506">
        <ele>387.866852</ele>
        <time>2014-03-15T13:18:38.675Z</time>
      </trkpt>
      <trkpt lat="47.51906" lon="6.77511">
        <ele>387.983368</ele>
        <time>2014-03-15T13:18:44.675Z</time>
      </trkpt>
      <trkpt lat="47.51924" lon="6.77517">
        <ele>388.088257</ele>
        <time>2014-03-15T13:18:50.675Z</time>
      </trkpt>
      <trkpt lat="47.51943" lon="6.7752">
        <ele>388.141907</ele>
        <time>2014-03-15T13:18:56.673Z</time>
      </trkpt>
      <trkpt lat="47.51963" lon="6.77524">
        <ele>388.887115</ele>
        <time>2014-03-15T13:19:02.675Z</time>
      </trkpt>
      <trkpt lat="47.51981" lon="6.7753">
        <ele>389.233917</ele>
        <time>2014-03-15T13:19:07.675Z</time>
      </trkpt>
      <trkpt lat="47.52" lon="6.77535">
        <ele>389.386444</ele>
        <time>2014-03-15T13:19:13.674Z</time>
      </trkpt>
      <trkpt lat="47.52018" lon="6.77537">
        <ele>389.460266</ele>
        <time>2014-03-15T13:19:18.675Z</time>
      </trkpt>
      <trkpt lat="47.52037" lon="6.77543">
        <ele>389.52301</ele>
        <time>2014-03-15T13:19:24.689Z</time>
      </trkpt>
      <trkpt lat="47.52057" lon="6.77546">
        <ele>389.660095</ele>
        <time>2014-03-15T13:19:30.692Z</time>
      </trkpt>
      <trkpt lat="47.52075" lon="6.7755">
        <ele>390.128204</ele>
        <time>2014-03-15T13:19:36.690Z</time>
      </trkpt>
      <trkpt lat="47.52094" lon="6.77561">
        <ele>390.613708</ele>
        <time>2014-03-15T13:19:41.692Z</time>
      </trkpt>
      <trkpt lat="47.52097" lon="6.77594">
        <ele>390.474091</ele>
        <time>2014-03-15T13:19:47.671Z</time>
      </trkpt>
      <trkpt lat="47.52096" lon="6.77621">
        <ele>390.488647</ele>
        <time>2014-03-15T13:19:51.670Z</time>
      </trkpt>
      <trkpt lat="47.52095" lon="6.77653">
        <ele>390.490387</ele>
        <time>2014-03-15T13:19:56.673Z</time>
      </trkpt>
      <trkpt lat="47.52099" lon="6.7768">
        <ele>390.287628</ele>
        <time>2014-03-15T13:20:03.673Z</time>
      </trkpt>
      <trkpt lat="47.52118" lon="6.77666">
        <ele>390.138702</ele>
        <time>2014-03-15T13:20:08.674Z</time>
      </trkpt>
      <trkpt lat="47.5214" lon="6.77651">
        <ele>390.178619</ele>
        <time>2014-03-15T13:20:12.673Z</time>
      </trkpt>
      <trkpt lat="47.52158" lon="6.7764">
        <ele>390.13855</ele>
        <time>2014-03-15T13:20:15.698Z</time>
      </trkpt>
      <trkpt lat="47.52177" lon="6.77627">
        <ele>389.903442</ele>
        <time>2014-03-15T13:20:18.705Z</time>
      </trkpt>
      <trkpt lat="47.52195" lon="6.77613">
        <ele>389.761719</ele>
        <time>2014-03-15T13:20:21.691Z</time>
      </trkpt>
      <trkpt lat="47.52217" lon="6.77598">
        <ele>389.404816</ele>
        <time>2014-03-15T13:20:25.692Z</time>
      </trkpt>
      <trkpt lat="47.52235" lon="6.77585">
        <ele>389.202576</ele>
        <time>2014-03-15T13:20:29.693Z</time>
      </trkpt>
      <trkpt lat="47.52254" lon="6.77572">
        <ele>388.889496</ele>
        <time>2014-03-15T13:20:33.694Z</time>
      </trkpt>
      <trkpt lat="47.52271" lon="6.77559">
        <ele>388.456573</ele>
        <time>2014-03-15T13:20:37.695Z</time>
      </trkpt>
      <trkpt lat="47.52291" lon="6.77548">
        <ele>387.655243</ele>
        <time>2014-03-15T13:20:42.693Z</time>
      </trkpt>
      <trkpt lat="47.52311" lon="6.77535">
        <ele>387.499237</ele>
        <time>2014-03-15T13:20:47.693Z</time>
      </trkpt>
      <trkpt lat="47.52331" lon="6.77521">
        <ele>387.588806</ele>
        <time>2014-03-15T13:20:52.693Z</time>
      </trkpt>
      <trkpt lat="47.5235" lon="6.77509">
        <ele>387.395782</ele>
        <time>2014-03-15T13:20:57.692Z</time>
      </trkpt>
      <trkpt lat="47.5237" lon="6.77498">
        <ele>387.229797</ele>
        <time>2014-03-15T13:21:03.692Z</time>
      </trkpt>
      <trkpt lat="47.5239" lon="6.77484">
        <ele>387.679291</ele>
        <time>2014-03-15T13:21:09.691Z</time>
      </trkpt>
      <trkpt lat="47.52407" lon="6.77473">
        <ele>387.923676</ele>
        <time>2014-03-15T13:21:13.697Z</time>
      </trkpt>
      <trkpt lat="47.52425" lon="6.77459">
        <ele>388.240906</ele>
        <time>2014-03-15T13:21:17.692Z</time>
      </trkpt>
      <trkpt lat="47.52443" lon="6.77469">
        <ele>387.857025</ele>
        <time>2014-03-15T13:21:21.696Z</time>
      </trkpt>
      <trkpt lat="47.52462" lon="6.77477">
        <ele>387.523773</ele>
        <time>2014-03-15T13:21:25.673Z</time>
      </trkpt>
      <trkpt lat="47.5248" lon="6.77478">
        <ele>387.474396</ele>
        <time>2014-03-15T13:21:29.676Z</time>
      </trkpt>
      <trkpt lat="47.52501" lon="6.77486">
        <ele>387.534607</ele>
        <time>2014-03-15T13:21:34.675Z</time>
      </trkpt>
      <trkpt lat="47.52521" lon="6.77485">
        <ele>387.714508</ele>
        <time>2014-03-15T13:21:40.674Z</time>
      </trkpt>
      <trkpt lat="47.52538" lon="6.77476">
        <ele>388.429047</ele>
        <time>2014-03-15T13:21:46.675Z</time>
      </trkpt>
      <trkpt lat="47.52557" lon="6.77479">
        <ele>388.806152</ele>
        <time>2014-03-15T13:21:51.675Z</time>
      </trkpt>
      <trkpt lat="47.52577" lon="6.77485">
        <ele>389.16507</ele>
        <time>2014-03-15T13:21:58.673Z</time>
      </trkpt>
      <trkpt lat="47.52597" lon="6.77497">
        <ele>389.055878</ele>
        <time>2014-03-15T13:22:04.674Z</time>
      </trkpt>
      <trkpt lat="47.52614" lon="6.77486">
        <ele>388.518005</ele>
        <time>2014-03-15T13:22:11.691Z</time>
      </trkpt>
      <trkpt lat="47.52628" lon="6.77459">
        <ele>389.107666</ele>
        <time>2014-03-15T13:22:17.681Z</time>
      </trkpt>
      <trkpt lat="47.52646" lon="6.7745">
        <ele>391.148651</ele>
        <time>2014-03-15T13:22:23.678Z</time>
      </trkpt>
      <trkpt lat="47.52668" lon="6.77449">
        <ele>392.528717</ele>
        <time>2014-03-15T13:22:29.679Z</time>
      </trkpt>
      <trkpt lat="47.52685" lon="6.7746">
        <ele>393.611511</ele>
        <time>2014-03-15T13:22:34.677Z</time>
      </trkpt>
      <trkpt lat="47.52701" lon="6.77475">
        <ele>394.450806</ele>
        <time>2014-03-15T13:22:39.677Z</time>
      </trkpt>
      <trkpt lat="47.52718" lon="6.77492">
        <ele>394.535217</ele>
        <time>2014-03-15T13:22:44.680Z</time>
      </trkpt>
      <trkpt lat="47.52736" lon="6.775">
        <ele>394.493622</ele>
        <time>2014-03-15T13:22:49.679Z</time>
      </trkpt>
      <trkpt lat="47.52755" lon="6.77511">
        <ele>394.577881</ele>
        <time>2014-03-15T13:22:55.676Z</time>
      </trkpt>
      <trkpt lat="47.5277" lon="6.77528">
        <ele>394.798431</ele>
        <time>2014-03-15T13:23:01.677Z</time>
      </trkpt>
      <trkpt lat="47.5279" lon="6.77535">
        <ele>395.447815</ele>
        <time>2014-03-15T13:23:06.677Z</time>
      </trkpt>
      <trkpt lat="47.5281" lon="6.77544">
        <ele>396.128143</ele>
        <time>2014-03-15T13:23:12.676Z</time>
      </trkpt>
      <trkpt lat="47.52827" lon="6.77554">
        <ele>396.17337</ele>
        <time>2014-03-15T13:23:18.677Z</time>
      </trkpt>
      <trkpt lat="47.52848" lon="6.77562">
        <ele>396.336212</ele>
        <time>2014-03-15T13:23:24.676Z</time>
      </trkpt>
      <trkpt lat="47.52869" lon="6.77569">
        <ele>396.249847</ele>
        <time>2014-03-15T13:23:29.680Z</time>
      </trkpt>
      <trkpt lat="47.52891" lon="6.77572">
        <ele>395.480835</ele>
        <time>2014-03-15T13:23:34.692Z</time>
      </trkpt>
      <trkpt lat="47.52909" lon="6.77572">
        <ele>395.054443</ele>
        <time>2014-03-15T13:23:39.692Z</time>
      </trkpt>
      <trkpt lat="47.52928" lon="6.77571">
        <ele>395.260895</ele>
        <time>2014-03-15T13:23:44.678Z</time>
      </trkpt>
      <trkpt lat="47.52951" lon="6.77576">
        <ele>395.408356</ele>
        <time>2014-03-15T13:23:48.678Z</time>
      </trkpt>
      <trkpt lat="47.5297" lon="6.77581">
        <ele>395.831177</ele>
        <time>2014-03-15T13:23:53.678Z</time>
      </trkpt>
      <trkpt lat="47.5299" lon="6.77585">
        <ele>397.256592</ele>
        <time>2014-03-15T13:24:00.671Z</time>
      </trkpt>
      <trkpt lat="47.53007" lon="6.77573">
        <ele>401.461578</ele>
        <time>2014-03-15T13:24:32.677Z</time>
      </trkpt>
      <trkpt lat="47.53007" lon="6.77542">
        <ele>402.219421</ele>
        <time>2014-03-15T13:24:38.681Z</time>
      </trkpt>
      <trkpt lat="47.53004" lon="6.77511">
        <ele>403.610565</ele>
        <time>2014-03-15T13:24:46.680Z</time>
      </trkpt>
      <trkpt lat="47.53003" lon="6.77478">
        <ele>403.796326</ele>
        <time>2014-03-15T13:24:53.679Z</time>
      </trkpt>
      <trkpt lat="47.53005" lon="6.77438">
        <ele>402.071259</ele>
        <time>2014-03-15T13:24:59.675Z</time>
      </trkpt>
      <trkpt lat="47.53001" lon="6.77409">
        <ele>398.482544</ele>
        <time>2014-03-15T13:25:09.680Z</time>
      </trkpt>
      <trkpt lat="47.52999" lon="6.77377">
        <ele>393.92392</ele>
        <time>2014-03-15T13:25:19.682Z</time>
      </trkpt>
      <trkpt lat="47.52997" lon="6.77344">
        <ele>391.165131</ele>
        <time>2014-03-15T13:25:24.681Z</time>
      </trkpt>
      <trkpt lat="47.52995" lon="6.77317">
        <ele>389.968018</ele>
        <time>2014-03-15T13:25:27.681Z</time>
      </trkpt>
      <trkpt lat="47.52993" lon="6.77285">
        <ele>388.822113</ele>
        <time>2014-03-15T13:25:30.678Z</time>
      </trkpt>
      <trkpt lat="47.52998" lon="6.77259">
        <ele>386.895599</ele>
        <time>2014-03-15T13:25:35.680Z</time>
      </trkpt>
      <trkpt lat="47.53017" lon="6.77251">
        <ele>374.799194</ele>
        <time>2014-03-15T13:26:16.682Z</time>
      </trkpt>
      <trkpt lat="47.53038" lon="6.77252">
        <ele>374.437531</ele>
        <time>2014-03-15T13:26:22.680Z</time>
      </trkpt>
      <trkpt lat="47.5306" lon="6.77256">
        <ele>373.134033</ele>
        <time>2014-03-15T13:26:28.680Z</time>
      </trkpt>
      <trkpt lat="47.53078" lon="6.77258">
        <ele>372.191772</ele>
        <time>2014-03-15T13:26:32.679Z</time>
      </trkpt>
      <trkpt lat="47.531" lon="6.77257">
        <ele>371.776062</ele>
        <time>2014-03-15T13:26:37.678Z</time>
      </trkpt>
      <trkpt lat="47.53122" lon="6.77252">
        <ele>371.677307</ele>
        <time>2014-03-15T13:26:42.677Z</time>
      </trkpt>
      <trkpt lat="47.53147" lon="6.7725">
        <ele>372.05896</ele>
        <time>2014-03-15T13:26:46.679Z</time>
      </trkpt>
      <trkpt lat="47.53165" lon="6.77253">
        <ele>372.302948</ele>
        <time>2014-03-15T13:26:50.678Z</time>
      </trkpt>
      <trkpt lat="47.53184" lon="6.77251">
        <ele>373.375824</ele>
        <time>2014-03-15T13:26:56.679Z</time>
      </trkpt>
      <trkpt lat="47.53203" lon="6.77251">
        <ele>372.46582</ele>
        <time>2014-03-15T13:27:01.679Z</time>
      </trkpt>
      <trkpt lat="47.53223" lon="6.77247">
        <ele>369.443542</ele>
        <time>2014-03-15T13:27:08.680Z</time>
      </trkpt>
      <trkpt lat="47.5324" lon="6.77242">
        <ele>366.298584</ele>
        <time>2014-03-15T13:27:16.681Z</time>
      </trkpt>
      <trkpt lat="47.53259" lon="6.77246">
        <ele>363.93988</ele>
        <time>2014-03-15T13:27:24.679Z</time>
      </trkpt>
      <trkpt lat="47.53287" lon="6.77251">
        <ele>363.350372</ele>
        <time>2014-03-15T13:27:28.680Z</time>
      </trkpt>
      <trkpt lat="47.53309" lon="6.7725">
        <ele>363.289307</ele>
        <time>2014-03-15T13:27:30.681Z</time>
      </trkpt>
      <trkpt lat="47.53332" lon="6.77248">
        <ele>363.103607</ele>
        <time>2014-03-15T13:27:34.678Z</time>
      </trkpt>
      <trkpt lat="47.5335" lon="6.77245">
        <ele>362.631744</ele>
        <time>2014-03-15T13:27:38.695Z</time>
      </trkpt>
      <trkpt lat="47.53368" lon="6.77234">
        <ele>362.119843</ele>
        <time>2014-03-15T13:27:43.684Z</time>
      </trkpt>
      <trkpt lat="47.53385" lon="6.77221">
        <ele>361.810669</ele>
        <time>2014-03-15T13:27:49.682Z</time>
      </trkpt>
      <trkpt lat="47.53405" lon="6.77225">
        <ele>360.956757</ele>
        <time>2014-03-15T13:27:58.681Z</time>
      </trkpt>
      <trkpt lat="47.53422" lon="6.77234">
        <ele>359.977783</ele>
        <time>2014-03-15T13:28:10.681Z</time>
      </trkpt>
      <trkpt lat="47.5344" lon="6.77242">
        <ele>360.285553</ele>
        <time>2014-03-15T13:28:21.681Z</time>
      </trkpt>
      <trkpt lat="47.53457" lon="6.77253">
        <ele>360.760773</ele>
        <time>2014-03-15T13:28:33.681Z</time>
      </trkpt>
      <trkpt lat="47.53474" lon="6.77262">
        <ele>359.688965</ele>
        <time>2014-03-15T13:28:48.675Z</time>
      </trkpt>
      <trkpt lat="47.53492" lon="6.77271">
        <ele>360.498383</ele>
        <time>2014-03-15T13:29:01.681Z</time>
      </trkpt>
      <trkpt lat="47.53503" lon="6.77294">
        <ele>362.356964</ele>
        <time>2014-03-15T13:29:13.681Z</time>
      </trkpt>
      <trkpt lat="47.53514" lon="6.77316">
        <ele>363.663086</ele>
        <time>2014-03-15T13:29:24.681Z</time>
      </trkpt>
      <trkpt lat="47.53526" lon="6.77337">
        <ele>365.401123</ele>
        <time>2014-03-15T13:29:32.681Z</time>
      </trkpt>
      <trkpt lat="47.53537" lon="6.7736">
        <ele>366.046692</ele>
        <time>2014-03-15T13:29:41.682Z</time>
      </trkpt>
      <trkpt lat="47.53547" lon="6.77382">
        <ele>366.784119</ele>
        <time>2014-03-15T13:29:48.681Z</time>
      </trkpt>
      <trkpt lat="47.53563" lon="6.77396">
        <ele>366.67868</ele>
        <time>2014-03-15T13:29:55.681Z</time>
      </trkpt>
      <trkpt lat="47.53579" lon="6.7741">
        <ele>366.477997</ele>
        <time>2014-03-15T13:30:02.681Z</time>
      </trkpt>
      <trkpt lat="47.53596" lon="6.77427">
        <ele>366.622192</ele>
        <time>2014-03-15T13:30:09.683Z</time>
      </trkpt>
      <trkpt lat="47.5361" lon="6.77445">
        <ele>366.83374</ele>
        <time>2014-03-15T13:30:14.682Z</time>
      </trkpt>
      <trkpt lat="47.53623" lon="6.77463">
        <ele>367.366547</ele>
        <time>2014-03-15T13:30:18.680Z</time>
      </trkpt>
      <trkpt lat="47.53638" lon="6.77483">
        <ele>367.865143</ele>
        <time>2014-03-15T13:30:23.680Z</time>
      </trkpt>
      <trkpt lat="47.5365" lon="6.77503">
        <ele>367.894714</ele>
        <time>2014-03-15T13:30:27.679Z</time>
      </trkpt>
      <trkpt lat="47.53666" lon="6.77528">
        <ele>367.82724</ele>
        <time>2014-03-15T13:30:31.682Z</time>
      </trkpt>
      <trkpt lat="47.53679" lon="6.7755">
        <ele>367.749664</ele>
        <time>2014-03-15T13:30:34.685Z</time>
      </trkpt>
      <trkpt lat="47.53691" lon="6.77571">
        <ele>367.462128</ele>
        <time>2014-03-15T13:30:37.682Z</time>
      </trkpt>
      <trkpt lat="47.53704" lon="6.77589">
        <ele>367.115112</ele>
        <time>2014-03-15T13:30:40.679Z</time>
      </trkpt>
      <trkpt lat="47.53717" lon="6.77614">
        <ele>366.876129</ele>
        <time>2014-03-15T13:30:43.683Z</time>
      </trkpt>
      <trkpt lat="47.53729" lon="6.77644">
        <ele>366.505951</ele>
        <time>2014-03-15T13:30:46.686Z</time>
      </trkpt>
      <trkpt lat="47.53742" lon="6.77671">
        <ele>366.049072</ele>
        <time>2014-03-15T13:30:49.682Z</time>
      </trkpt>
      <trkpt lat="47.53754" lon="6.77698">
        <ele>365.30603</ele>
        <time>2014-03-15T13:30:52.682Z</time>
      </trkpt>
      <trkpt lat="47.53768" lon="6.77715">
        <ele>364.660736</ele>
        <time>2014-03-15T13:30:55.679Z</time>
      </trkpt>
      <trkpt lat="47.53786" lon="6.77718">
        <ele>363.633698</ele>
        <time>2014-03-15T13:31:00.680Z</time>
      </trkpt>
      <trkpt lat="47.53809" lon="6.77701">
        <ele>362.893555</ele>
        <time>2014-03-15T13:31:04.692Z</time>
      </trkpt>
      <trkpt lat="47.53828" lon="6.77685">
        <ele>362.405792</ele>
        <time>2014-03-15T13:31:07.712Z</time>
      </trkpt>
      <trkpt lat="47.53848" lon="6.7767">
        <ele>361.218628</ele>
        <time>2014-03-15T13:31:11.694Z</time>
      </trkpt>
      <trkpt lat="47.53865" lon="6.7766">
        <ele>360.217926</ele>
        <time>2014-03-15T13:31:14.692Z</time>
      </trkpt>
      <trkpt lat="47.53884" lon="6.77644">
        <ele>357.840851</ele>
        <time>2014-03-15T13:31:20.693Z</time>
      </trkpt>
      <trkpt lat="47.53902" lon="6.77631">
        <ele>355.500092</ele>
        <time>2014-03-15T13:31:25.678Z</time>
      </trkpt>
      <trkpt lat="47.5392" lon="6.77614">
        <ele>353.998779</ele>
        <time>2014-03-15T13:31:30.679Z</time>
      </trkpt>
      <trkpt lat="47.53938" lon="6.77597">
        <ele>353.241913</ele>
        <time>2014-03-15T13:31:35.681Z</time>
      </trkpt>
      <trkpt lat="47.53953" lon="6.77582">
        <ele>352.729919</ele>
        <time>2014-03-15T13:31:41.679Z</time>
      </trkpt>
      <trkpt lat="47.5397" lon="6.77569">
        <ele>353.11795</ele>
        <time>2014-03-15T13:31:49.678Z</time>
      </trkpt>
      <trkpt lat="47.53986" lon="6.77555">
        <ele>354.57312</ele>
        <time>2014-03-15T13:31:57.679Z</time>
      </trkpt>
      <trkpt lat="47.54003" lon="6.77538">
        <ele>355.465729</ele>
        <time>2014-03-15T13:32:04.679Z</time>
      </trkpt>
      <trkpt lat="47.54026" lon="6.77522">
        <ele>357.166504</ele>
        <time>2014-03-15T13:32:12.679Z</time>
      </trkpt>
      <trkpt lat="47.54044" lon="6.77509">
        <ele>359.372925</ele>
        <time>2014-03-15T13:32:19.681Z</time>
      </trkpt>
      <trkpt lat="47.54064" lon="6.77504">
        <ele>360.30481</ele>
        <time>2014-03-15T13:32:24.679Z</time>
      </trkpt>
      <trkpt lat="47.54087" lon="6.77499">
        <ele>360.015625</ele>
        <time>2014-03-15T13:32:28.695Z</time>
      </trkpt>
      <trkpt lat="47.54105" lon="6.77495">
        <ele>359.592773</ele>
        <time>2014-03-15T13:32:31.710Z</time>
      </trkpt>
      <trkpt lat="47.54128" lon="6.77493">
        <ele>359.234192</ele>
        <time>2014-03-15T13:32:35.700Z</time>
      </trkpt>
      <trkpt lat="47.54147" lon="6.7749">
        <ele>358.854553</ele>
        <time>2014-03-15T13:32:38.711Z</time>
      </trkpt>
      <trkpt lat="47.54166" lon="6.77486">
        <ele>358.317841</ele>
        <time>2014-03-15T13:32:41.714Z</time>
      </trkpt>
      <trkpt lat="47.54184" lon="6.77483">
        <ele>357.379639</ele>
        <time>2014-03-15T13:32:44.699Z</time>
      </trkpt>
      <trkpt lat="47.54203" lon="6.77479">
        <ele>356.665375</ele>
        <time>2014-03-15T13:32:47.685Z</time>
      </trkpt>
      <trkpt lat="47.54225" lon="6.77469">
        <ele>355.718445</ele>
        <time>2014-03-15T13:32:51.686Z</time>
      </trkpt>
      <trkpt lat="47.54241" lon="6.77459">
        <ele>354.808289</ele>
        <time>2014-03-15T13:32:55.680Z</time>
      </trkpt>
      <trkpt lat="47.54263" lon="6.77458">
        <ele>354.098572</ele>
        <time>2014-03-15T13:33:00.682Z</time>
      </trkpt>
      <trkpt lat="47.54282" lon="6.77458">
        <ele>353.321533</ele>
        <time>2014-03-15T13:33:06.680Z</time>
      </trkpt>
      <trkpt lat="47.54303" lon="6.7745">
        <ele>352.217896</ele>
        <time>2014-03-15T13:33:13.699Z</time>
      </trkpt>
      <trkpt lat="47.54322" lon="6.77445">
        <ele>350.909882</ele>
        <time>2014-03-15T13:33:19.738Z</time>
      </trkpt>
      <trkpt lat="47.54343" lon="6.7744">
        <ele>350.559235</ele>
        <time>2014-03-15T13:33:24.699Z</time>
      </trkpt>
      <trkpt lat="47.54366" lon="6.77432">
        <ele>350.778625</ele>
        <time>2014-03-15T13:33:28.700Z</time>
      </trkpt>
      <trkpt lat="47.5439" lon="6.7744">
        <ele>350.778992</ele>
        <time>2014-03-15T13:33:32.705Z</time>
      </trkpt>
      <trkpt lat="47.54397" lon="6.77467">
        <ele>350.623108</ele>
        <time>2014-03-15T13:33:35.684Z</time>
      </trkpt>
      <trkpt lat="47.54402" lon="6.77499">
        <ele>350.630127</ele>
        <time>2014-03-15T13:33:38.687Z</time>
      </trkpt>
      <trkpt lat="47.54404" lon="6.77536">
        <ele>350.45697</ele>
        <time>2014-03-15T13:33:42.688Z</time>
      </trkpt>
      <trkpt lat="47.54405" lon="6.77563">
        <ele>350.365143</ele>
        <time>2014-03-15T13:33:45.698Z</time>
      </trkpt>
      <trkpt lat="47.54411" lon="6.77598">
        <ele>350.063019</ele>
        <time>2014-03-15T13:33:49.684Z</time>
      </trkpt>
      <trkpt lat="47.5443" lon="6.77611">
        <ele>349.662292</ele>
        <time>2014-03-15T13:33:52.684Z</time>
      </trkpt>
      <trkpt lat="47.54449" lon="6.77624">
        <ele>349.194855</ele>
        <time>2014-03-15T13:33:55.681Z</time>
      </trkpt>
      <trkpt lat="47.54461" lon="6.77655">
        <ele>348.253754</ele>
        <time>2014-03-15T13:33:58.688Z</time>
      </trkpt>
      <trkpt lat="47.54469" lon="6.77691">
        <ele>346.989777</ele>
        <time>2014-03-15T13:34:01.690Z</time>
      </trkpt>
      <trkpt lat="47.5448" lon="6.77727">
        <ele>345.573578</ele>
        <time>2014-03-15T13:34:04.690Z</time>
      </trkpt>
      <trkpt lat="47.5448" lon="6.77765">
        <ele>344.102386</ele>
        <time>2014-03-15T13:34:07.703Z</time>
      </trkpt>
      <trkpt lat="47.54477" lon="6.77798">
        <ele>342.832947</ele>
        <time>2014-03-15T13:34:10.701Z</time>
      </trkpt>
      <trkpt lat="47.54476" lon="6.77828">
        <ele>341.244385</ele>
        <time>2014-03-15T13:34:13.682Z</time>
      </trkpt>
      <trkpt lat="47.5448" lon="6.77857">
        <ele>339.876648</ele>
        <time>2014-03-15T13:34:16.689Z</time>
      </trkpt>
      <trkpt lat="47.54487" lon="6.77885">
        <ele>338.519897</ele>
        <time>2014-03-15T13:34:19.691Z</time>
      </trkpt>
      <trkpt lat="47.54498" lon="6.77908">
        <ele>337.097687</ele>
        <time>2014-03-15T13:34:22.695Z</time>
      </trkpt>
      <trkpt lat="47.54515" lon="6.77927">
        <ele>335.89389</ele>
        <time>2014-03-15T13:34:25.702Z</time>
      </trkpt>
      <trkpt lat="47.54535" lon="6.77942">
        <ele>334.374603</ele>
        <time>2014-03-15T13:34:29.698Z</time>
      </trkpt>
      <trkpt lat="47.54555" lon="6.77952">
        <ele>333.542664</ele>
        <time>2014-03-15T13:34:32.694Z</time>
      </trkpt>
      <trkpt lat="47.54574" lon="6.77962">
        <ele>332.422577</ele>
        <time>2014-03-15T13:34:36.697Z</time>
      </trkpt>
      <trkpt lat="47.54581" lon="6.77991">
        <ele>331.227356</ele>
        <time>2014-03-15T13:34:40.690Z</time>
      </trkpt>
      <trkpt lat="47.54593" lon="6.78017">
        <ele>329.680145</ele>
        <time>2014-03-15T13:34:45.688Z</time>
      </trkpt>
      <trkpt lat="47.54612" lon="6.78023">
        <ele>328.298126</ele>
        <time>2014-03-15T13:34:49.685Z</time>
      </trkpt>
      <trkpt lat="47.54633" lon="6.78028">
        <ele>327.202972</ele>
        <time>2014-03-15T13:34:53.697Z</time>
      </trkpt>
      <trkpt lat="47.54655" lon="6.78039">
        <ele>326.228149</ele>
        <time>2014-03-15T13:34:57.687Z</time>
      </trkpt>
      <trkpt lat="47.54681" lon="6.78047">
        <ele>325.460327</ele>
        <time>2014-03-15T13:35:01.693Z</time>
      </trkpt>
      <trkpt lat="47.54701" lon="6.78044">
        <ele>325.066925</ele>
        <time>2014-03-15T13:35:04.690Z</time>
      </trkpt>
      <trkpt lat="47.54721" lon="6.78034">
        <ele>324.79483</ele>
        <time>2014-03-15T13:35:07.689Z</time>
      </trkpt>
      <trkpt lat="47.54739" lon="6.78023">
        <ele>324.196411</ele>
        <time>2014-03-15T13:35:10.684Z</time>
      </trkpt>
      <trkpt lat="47.54759" lon="6.78011">
        <ele>324.082642</ele>
        <time>2014-03-15T13:35:13.683Z</time>
      </trkpt>
      <trkpt lat="47.54778" lon="6.78004">
        <ele>323.929779</ele>
        <time>2014-03-15T13:35:16.678Z</time>
      </trkpt>
      <trkpt lat="47.54787" lon="6.78029">
        <ele>323.826691</ele>
        <time>2014-03-15T13:35:20.682Z</time>
      </trkpt>
      <trkpt lat="47.54783" lon="6.78063">
        <ele>323.517792</ele>
        <time>2014-03-15T13:35:24.678Z</time>
      </trkpt>
      <trkpt lat="47.54779" lon="6.78097">
        <ele>323.116425</ele>
        <time>2014-03-15T13:35:28.680Z</time>
      </trkpt>
      <trkpt lat="47.5477" lon="6.78129">
        <ele>322.531921</ele>
        <time>2014-03-15T13:35:32.701Z</time>
      </trkpt>
      <trkpt lat="47.54761" lon="6.78154">
        <ele>321.871155</ele>
        <time>2014-03-15T13:35:35.712Z</time>
      </trkpt>
      <trkpt lat="47.54749" lon="6.78185">
        <ele>321.348572</ele>
        <time>2014-03-15T13:35:39.713Z</time>
      </trkpt>
      <trkpt lat="47.5474" lon="6.78208">
        <ele>321.18808</ele>
        <time>2014-03-15T13:35:42.698Z</time>
      </trkpt>
      <trkpt lat="47.54731" lon="6.78236">
        <ele>321.349823</ele>
        <time>2014-03-15T13:35:46.700Z</time>
      </trkpt>
      <trkpt lat="47.54723" lon="6.78262">
        <ele>321.299957</ele>
        <time>2014-03-15T13:35:49.688Z</time>
      </trkpt>
      <trkpt lat="47.54714" lon="6.78292">
        <ele>321.155334</ele>
        <time>2014-03-15T13:35:53.698Z</time>
      </trkpt>
      <trkpt lat="47.54704" lon="6.78321">
        <ele>321.223511</ele>
        <time>2014-03-15T13:35:57.681Z</time>
      </trkpt>
      <trkpt lat="47.54696" lon="6.78346">
        <ele>321.406525</ele>
        <time>2014-03-15T13:36:00.711Z</time>
      </trkpt>
      <trkpt lat="47.54683" lon="6.7837">
        <ele>321.322113</ele>
        <time>2014-03-15T13:36:04.686Z</time>
      </trkpt>
      <trkpt lat="47.54666" lon="6.78389">
        <ele>321.414734</ele>
        <time>2014-03-15T13:36:08.686Z</time>
      </trkpt>
      <trkpt lat="47.54649" lon="6.78407">
        <ele>321.570343</ele>
        <time>2014-03-15T13:36:11.689Z</time>
      </trkpt>
      <trkpt lat="47.54639" lon="6.78432">
        <ele>321.449768</ele>
        <time>2014-03-15T13:36:15.687Z</time>
      </trkpt>
      <trkpt lat="47.54633" lon="6.78463">
        <ele>321.580902</ele>
        <time>2014-03-15T13:36:19.685Z</time>
      </trkpt>
      <trkpt lat="47.54629" lon="6.78493">
        <ele>322.001892</ele>
        <time>2014-03-15T13:36:23.687Z</time>
      </trkpt>
      <trkpt lat="47.54636" lon="6.78522">
        <ele>322.395996</ele>
        <time>2014-03-15T13:36:28.682Z</time>
      </trkpt>
      <trkpt lat="47.54653" lon="6.78541">
        <ele>322.786072</ele>
        <time>2014-03-15T13:36:32.680Z</time>
      </trkpt>
      <trkpt lat="47.54668" lon="6.7856">
        <ele>323.171997</ele>
        <time>2014-03-15T13:36:36.681Z</time>
      </trkpt>
      <trkpt lat="47.54677" lon="6.78586">
        <ele>323.219971</ele>
        <time>2014-03-15T13:36:41.700Z</time>
      </trkpt>
      <trkpt lat="47.54683" lon="6.78614">
        <ele>323.474976</ele>
        <time>2014-03-15T13:36:47.697Z</time>
      </trkpt>
      <trkpt lat="47.54689" lon="6.7864">
        <ele>323.804504</ele>
        <time>2014-03-15T13:36:52.697Z</time>
      </trkpt>
      <trkpt lat="47.54699" lon="6.78666">
        <ele>324.412354</ele>
        <time>2014-03-15T13:36:58.688Z</time>
      </trkpt>
      <trkpt lat="47.54708" lon="6.78694">
        <ele>325.396973</ele>
        <time>2014-03-15T13:37:06.686Z</time>
      </trkpt>
      <trkpt lat="47.54716" lon="6.78718">
        <ele>326.010895</ele>
        <time>2014-03-15T13:37:12.687Z</time>
      </trkpt>
      <trkpt lat="47.54723" lon="6.78743">
        <ele>326.70813</ele>
        <time>2014-03-15T13:37:18.689Z</time>
      </trkpt>
      <trkpt lat="47.54729" lon="6.7877">
        <ele>327.354858</ele>
        <time>2014-03-15T13:37:25.688Z</time>
      </trkpt>
      <trkpt lat="47.54737" lon="6.78795">
        <ele>327.792816</ele>
        <time>2014-03-15T13:37:32.687Z</time>
      </trkpt>
      <trkpt lat="47.54746" lon="6.78822">
        <ele>329.368835</ele>
        <time>2014-03-15T13:37:41.688Z</time>
      </trkpt>
      <trkpt lat="47.54749" lon="6.78849">
        <ele>331.464142</ele>
        <time>2014-03-15T13:37:53.689Z</time>
      </trkpt>
      <trkpt lat="47.54754" lon="6.78875">
        <ele>333.040985</ele>
        <time>2014-03-15T13:38:03.746Z</time>
      </trkpt>
      <trkpt lat="47.54761" lon="6.78901">
        <ele>336.043182</ele>
        <time>2014-03-15T13:38:14.688Z</time>
      </trkpt>
      <trkpt lat="47.54769" lon="6.78927">
        <ele>338.916504</ele>
        <time>2014-03-15T13:38:25.688Z</time>
      </trkpt>
      <trkpt lat="47.54777" lon="6.78953">
        <ele>341.274506</ele>
        <time>2014-03-15T13:38:36.681Z</time>
      </trkpt>
      <trkpt lat="47.54784" lon="6.78978">
        <ele>343.412689</ele>
        <time>2014-03-15T13:38:46.701Z</time>
      </trkpt>
      <trkpt lat="47.54794" lon="6.79002">
        <ele>345.123383</ele>
        <time>2014-03-15T13:38:57.703Z</time>
      </trkpt>
      <trkpt lat="47.54803" lon="6.79027">
        <ele>346.828369</ele>
        <time>2014-03-15T13:39:08.689Z</time>
      </trkpt>
      <trkpt lat="47.54811" lon="6.79052">
        <ele>347.733734</ele>
        <time>2014-03-15T13:39:17.690Z</time>
      </trkpt>
      <trkpt lat="47.5482" lon="6.79076">
        <ele>348.791687</ele>
        <time>2014-03-15T13:39:26.689Z</time>
      </trkpt>
      <trkpt lat="47.54829" lon="6.79099">
        <ele>349.958313</ele>
        <time>2014-03-15T13:39:33.689Z</time>
      </trkpt>
      <trkpt lat="47.54839" lon="6.79126">
        <ele>350.940186</ele>
        <time>2014-03-15T13:39:40.700Z</time>
      </trkpt>
      <trkpt lat="47.54847" lon="6.79151">
        <ele>352.10968</ele>
        <time>2014-03-15T13:39:47.690Z</time>
      </trkpt>
      <trkpt lat="47.54853" lon="6.7918">
        <ele>353.194977</ele>
        <time>2014-03-15T13:39:55.691Z</time>
      </trkpt>
      <trkpt lat="47.5486" lon="6.79207">
        <ele>353.719574</ele>
        <time>2014-03-15T13:40:02.694Z</time>
      </trkpt>
      <trkpt lat="47.54868" lon="6.79231">
        <ele>354.490417</ele>
        <time>2014-03-15T13:40:08.690Z</time>
      </trkpt>
      <trkpt lat="47.54875" lon="6.79257">
        <ele>355.103119</ele>
        <time>2014-03-15T13:40:14.710Z</time>
      </trkpt>
      <trkpt lat="47.54882" lon="6.79282">
        <ele>356.180634</ele>
        <time>2014-03-15T13:40:23.691Z</time>
      </trkpt>
      <trkpt lat="47.54886" lon="6.7931">
        <ele>356.191101</ele>
        <time>2014-03-15T13:40:33.692Z</time>
      </trkpt>
      <trkpt lat="47.5489" lon="6.79336">
        <ele>356.443665</ele>
        <time>2014-03-15T13:40:45.679Z</time>
      </trkpt>
      <trkpt lat="47.54902" lon="6.79355">
        <ele>356.128998</ele>
        <time>2014-03-15T13:40:57.683Z</time>
      </trkpt>
      <trkpt lat="47.54921" lon="6.79348">
        <ele>355.65448</ele>
        <time>2014-03-15T13:41:05.684Z</time>
      </trkpt>
      <trkpt lat="47.54941" lon="6.7934">
        <ele>355.416077</ele>
        <time>2014-03-15T13:41:11.686Z</time>
      </trkpt>
      <trkpt lat="47.54959" lon="6.7934">
        <ele>355.62854</ele>
        <time>2014-03-15T13:41:20.683Z</time>
      </trkpt>
      <trkpt lat="47.5496" lon="6.79367">
        <ele>355.88269</ele>
        <time>2014-03-15T13:41:28.685Z</time>
      </trkpt>
      <trkpt lat="47.54963" lon="6.79396">
        <ele>355.976349</ele>
        <time>2014-03-15T13:41:34.687Z</time>
      </trkpt>
      <trkpt lat="47.54967" lon="6.79423">
        <ele>355.918793</ele>
        <time>2014-03-15T13:41:38.683Z</time>
      </trkpt>
      <trkpt lat="47.54971" lon="6.79451">
        <ele>355.770538</ele>
        <time>2014-03-15T13:41:41.685Z</time>
      </trkpt>
      <trkpt lat="47.54976" lon="6.79482">
        <ele>355.340118</ele>
        <time>2014-03-15T13:41:44.692Z</time>
      </trkpt>
      <trkpt lat="47.54979" lon="6.7951">
        <ele>354.914825</ele>
        <time>2014-03-15T13:41:47.691Z</time>
      </trkpt>
      <trkpt lat="47.54982" lon="6.79539">
        <ele>354.539459</ele>
        <time>2014-03-15T13:41:52.708Z</time>
      </trkpt>
      <trkpt lat="47.54997" lon="6.79556">
        <ele>354.383453</ele>
        <time>2014-03-15T13:41:59.703Z</time>
      </trkpt>
      <trkpt lat="47.55003" lon="6.79582">
        <ele>353.868011</ele>
        <time>2014-03-15T13:42:09.689Z</time>
      </trkpt>
      <trkpt lat="47.55004" lon="6.79609">
        <ele>352.1492</ele>
        <time>2014-03-15T13:42:28.720Z</time>
      </trkpt>
      <trkpt lat="47.5501" lon="6.79635">
        <ele>353.328949</ele>
        <time>2014-03-15T13:42:45.692Z</time>
      </trkpt>
      <trkpt lat="47.55002" lon="6.79661">
        <ele>356.781128</ele>
        <time>2014-03-15T13:43:03.692Z</time>
      </trkpt>
      <trkpt lat="47.55004" lon="6.79689">
        <ele>358.240112</ele>
        <time>2014-03-15T13:43:17.690Z</time>
      </trkpt>
      <trkpt lat="47.54996" lon="6.79714">
        <ele>358.891602</ele>
        <time>2014-03-15T13:43:29.685Z</time>
      </trkpt>
      <trkpt lat="47.54979" lon="6.79723">
        <ele>358.958496</ele>
        <time>2014-03-15T13:43:35.691Z</time>
      </trkpt>
      <trkpt lat="47.5496" lon="6.79741">
        <ele>358.738556</ele>
        <time>2014-03-15T13:43:39.713Z</time>
      </trkpt>
      <trkpt lat="47.5494" lon="6.79753">
        <ele>358.168121</ele>
        <time>2014-03-15T13:43:43.692Z</time>
      </trkpt>
      <trkpt lat="47.54934" lon="6.79782">
        <ele>358.098907</ele>
        <time>2014-03-15T13:43:50.691Z</time>
      </trkpt>
      <trkpt lat="47.54938" lon="6.79811">
        <ele>357.475006</ele>
        <time>2014-03-15T13:43:55.690Z</time>
      </trkpt>
      <trkpt lat="47.54948" lon="6.79836">
        <ele>355.638641</ele>
        <time>2014-03-15T13:44:05.690Z</time>
      </trkpt>
      <trkpt lat="47.54952" lon="6.79865">
        <ele>352.574646</ele>
        <time>2014-03-15T13:45:06.691Z</time>
      </trkpt>
      <trkpt lat="47.54959" lon="6.79893">
        <ele>353.451935</ele>
        <time>2014-03-15T13:45:16.692Z</time>
      </trkpt>
      <trkpt lat="47.54963" lon="6.79922">
        <ele>353.897949</ele>
        <time>2014-03-15T13:45:24.692Z</time>
      </trkpt>
      <trkpt lat="47.54969" lon="6.7995">
        <ele>353.893188</ele>
        <time>2014-03-15T13:45:31.692Z</time>
      </trkpt>
      <trkpt lat="47.54978" lon="6.79976">
        <ele>353.893616</ele>
        <time>2014-03-15T13:45:40.692Z</time>
      </trkpt>
      <trkpt lat="47.54985" lon="6.80003">
        <ele>354.450958</ele>
        <time>2014-03-15T13:45:47.689Z</time>
      </trkpt>
      <trkpt lat="47.54989" lon="6.80032">
        <ele>355.357666</ele>
        <time>2014-03-15T13:45:57.691Z</time>
      </trkpt>
      <trkpt lat="47.54995" lon="6.8006">
        <ele>355.483276</ele>
        <time>2014-03-15T13:46:06.693Z</time>
      </trkpt>
      <trkpt lat="47.55002" lon="6.80086">
        <ele>354.784637</ele>
        <time>2014-03-15T13:46:14.692Z</time>
      </trkpt>
      <trkpt lat="47.55008" lon="6.80113">
        <ele>354.771179</ele>
        <time>2014-03-15T13:46:22.690Z</time>
      </trkpt>
      <trkpt lat="47.55014" lon="6.80139">
        <ele>355.512604</ele>
        <time>2014-03-15T13:46:29.692Z</time>
      </trkpt>
      <trkpt lat="47.55018" lon="6.80165">
        <ele>356.177887</ele>
        <time>2014-03-15T13:46:35.692Z</time>
      </trkpt>
      <trkpt lat="47.55022" lon="6.80193">
        <ele>356.913635</ele>
        <time>2014-03-15T13:46:43.692Z</time>
      </trkpt>
      <trkpt lat="47.55028" lon="6.8022">
        <ele>355.5466</ele>
        <time>2014-03-15T13:47:07.694Z</time>
      </trkpt>
      <trkpt lat="47.55036" lon="6.80245">
        <ele>352.112518</ele>
        <time>2014-03-15T13:47:31.691Z</time>
      </trkpt>
      <trkpt lat="47.55046" lon="6.80272">
        <ele>352.47644</ele>
        <time>2014-03-15T13:47:39.695Z</time>
      </trkpt>
      <trkpt lat="47.55053" lon="6.803">
        <ele>353.954041</ele>
        <time>2014-03-15T13:47:47.693Z</time>
      </trkpt>
      <trkpt lat="47.55058" lon="6.8033">
        <ele>355.572632</ele>
        <time>2014-03-15T13:47:55.695Z</time>
      </trkpt>
      <trkpt lat="47.55063" lon="6.80356">
        <ele>358.124969</ele>
        <time>2014-03-15T13:48:03.712Z</time>
      </trkpt>
      <trkpt lat="47.55067" lon="6.80382">
        <ele>360.112701</ele>
        <time>2014-03-15T13:48:11.695Z</time>
      </trkpt>
      <trkpt lat="47.55075" lon="6.80408">
        <ele>362.485474</ele>
        <time>2014-03-15T13:48:22.689Z</time>
      </trkpt>
      <trkpt lat="47.5508" lon="6.80436">
        <ele>363.623566</ele>
        <time>2014-03-15T13:48:34.692Z</time>
      </trkpt>
      <trkpt lat="47.55097" lon="6.80425">
        <ele>363.756378</ele>
        <time>2014-03-15T13:48:49.699Z</time>
      </trkpt>
      <trkpt lat="47.55112" lon="6.80406">
        <ele>364.101135</ele>
        <time>2014-03-15T13:48:58.701Z</time>
      </trkpt>
      <trkpt lat="47.55129" lon="6.80393">
        <ele>365.805756</ele>
        <time>2014-03-15T13:49:09.696Z</time>
      </trkpt>
      <trkpt lat="47.55148" lon="6.80383">
        <ele>370.311554</ele>
        <time>2014-03-15T13:49:24.695Z</time>
      </trkpt>
      <trkpt lat="47.55164" lon="6.80371">
        <ele>371.931396</ele>
        <time>2014-03-15T13:49:34.699Z</time>
      </trkpt>
      <trkpt lat="47.55182" lon="6.80354">
        <ele>372.529388</ele>
        <time>2014-03-15T13:49:41.698Z</time>
      </trkpt>
      <trkpt lat="47.55196" lon="6.80335">
        <ele>372.468506</ele>
        <time>2014-03-15T13:49:47.691Z</time>
      </trkpt>
      <trkpt lat="47.5521" lon="6.80318">
        <ele>379.847931</ele>
        <time>2014-03-15T13:51:35.722Z</time>
      </trkpt>
      <trkpt lat="47.55226" lon="6.803">
        <ele>380.202606</ele>
        <time>2014-03-15T13:51:40.687Z</time>
      </trkpt>
      <trkpt lat="47.55245" lon="6.80287">
        <ele>381.960388</ele>
        <time>2014-03-15T13:51:46.689Z</time>
      </trkpt>
      <trkpt lat="47.55264" lon="6.80277">
        <ele>383.214752</ele>
        <time>2014-03-15T13:51:52.689Z</time>
      </trkpt>
      <trkpt lat="47.55284" lon="6.80271">
        <ele>382.017029</ele>
        <time>2014-03-15T13:51:56.689Z</time>
      </trkpt>
      <trkpt lat="47.55305" lon="6.80274">
        <ele>379.231293</ele>
        <time>2014-03-15T13:52:00.697Z</time>
      </trkpt>
      <trkpt lat="47.55325" lon="6.80295">
        <ele>377.821228</ele>
        <time>2014-03-15T13:52:03.690Z</time>
      </trkpt>
      <trkpt lat="47.55343" lon="6.8031">
        <ele>376.865601</ele>
        <time>2014-03-15T13:52:07.689Z</time>
      </trkpt>
      <trkpt lat="47.55362" lon="6.80317">
        <ele>375.620514</ele>
        <time>2014-03-15T13:52:13.691Z</time>
      </trkpt>
      <trkpt lat="47.55381" lon="6.80306">
        <ele>376.060455</ele>
        <time>2014-03-15T13:52:19.689Z</time>
      </trkpt>
      <trkpt lat="47.554" lon="6.80293">
        <ele>377.109375</ele>
        <time>2014-03-15T13:52:24.686Z</time>
      </trkpt>
      <trkpt lat="47.5542" lon="6.80284">
        <ele>376.892883</ele>
        <time>2014-03-15T13:52:30.689Z</time>
      </trkpt>
      <trkpt lat="47.5544" lon="6.80281">
        <ele>377.496735</ele>
        <time>2014-03-15T13:52:37.693Z</time>
      </trkpt>
      <trkpt lat="47.55458" lon="6.80266">
        <ele>377.513275</ele>
        <time>2014-03-15T13:52:42.689Z</time>
      </trkpt>
      <trkpt lat="47.55473" lon="6.80251">
        <ele>376.829651</ele>
        <time>2014-03-15T13:52:47.690Z</time>
      </trkpt>
      <trkpt lat="47.55492" lon="6.8024">
        <ele>376.213654</ele>
        <time>2014-03-15T13:52:54.690Z</time>
      </trkpt>
      <trkpt lat="47.5551" lon="6.80233">
        <ele>376.930573</ele>
        <time>2014-03-15T13:53:03.690Z</time>
      </trkpt>
      <trkpt lat="47.55529" lon="6.80228">
        <ele>377.479065</ele>
        <time>2014-03-15T13:53:13.691Z</time>
      </trkpt>
      <trkpt lat="47.55546" lon="6.80231">
        <ele>376.16571</ele>
        <time>2014-03-15T13:53:21.689Z</time>
      </trkpt>
      <trkpt lat="47.55565" lon="6.80237">
        <ele>374.138855</ele>
        <time>2014-03-15T13:53:29.690Z</time>
      </trkpt>
      <trkpt lat="47.55583" lon="6.80246">
        <ele>371.004974</ele>
        <time>2014-03-15T13:53:37.702Z</time>
      </trkpt>
      <trkpt lat="47.55602" lon="6.80247">
        <ele>369.374023</ele>
        <time>2014-03-15T13:53:44.694Z</time>
      </trkpt>
      <trkpt lat="47.5562" lon="6.80247">
        <ele>368.459595</ele>
        <time>2014-03-15T13:53:50.690Z</time>
      </trkpt>
      <trkpt lat="47.5564" lon="6.80243">
        <ele>368.49585</ele>
        <time>2014-03-15T13:53:57.690Z</time>
      </trkpt>
      <trkpt lat="47.55658" lon="6.80234">
        <ele>369.373047</ele>
        <time>2014-03-15T13:54:07.690Z</time>
      </trkpt>
      <trkpt lat="47.55677" lon="6.80229">
        <ele>373.239655</ele>
        <time>2014-03-15T13:54:20.690Z</time>
      </trkpt>
      <trkpt lat="47.55694" lon="6.80214">
        <ele>378.19812</ele>
        <time>2014-03-15T13:54:31.691Z</time>
      </trkpt>
      <trkpt lat="47.55709" lon="6.80196">
        <ele>383.238007</ele>
        <time>2014-03-15T13:54:41.698Z</time>
      </trkpt>
      <trkpt lat="47.55727" lon="6.8019">
        <ele>388.284912</ele>
        <time>2014-03-15T13:54:52.697Z</time>
      </trkpt>
      <trkpt lat="47.55745" lon="6.80184">
        <ele>390.891052</ele>
        <time>2014-03-15T13:55:04.699Z</time>
      </trkpt>
      <trkpt lat="47.55763" lon="6.80184">
        <ele>392.185547</ele>
        <time>2014-03-15T13:55:13.700Z</time>
      </trkpt>
      <trkpt lat="47.55783" lon="6.80184">
        <ele>393.547363</ele>
        <time>2014-03-15T13:55:22.699Z</time>
      </trkpt>
      <trkpt lat="47.55802" lon="6.80191">
        <ele>393.458374</ele>
        <time>2014-03-15T13:55:31.698Z</time>
      </trkpt>
      <trkpt lat="47.55819" lon="6.80202">
        <ele>393.349762</ele>
        <time>2014-03-15T13:55:38.695Z</time>
      </trkpt>
      <trkpt lat="47.55839" lon="6.8021">
        <ele>392.895233</ele>
        <time>2014-03-15T13:55:45.693Z</time>
      </trkpt>
      <trkpt lat="47.55859" lon="6.80215">
        <ele>392.036865</ele>
        <time>2014-03-15T13:55:52.692Z</time>
      </trkpt>
      <trkpt lat="47.55882" lon="6.80214">
        <ele>391.740723</ele>
        <time>2014-03-15T13:55:58.692Z</time>
      </trkpt>
      <trkpt lat="47.55904" lon="6.802">
        <ele>391.913635</ele>
        <time>2014-03-15T13:56:02.694Z</time>
      </trkpt>
      <trkpt lat="47.55922" lon="6.80183">
        <ele>391.858276</ele>
        <time>2014-03-15T13:56:06.694Z</time>
      </trkpt>
      <trkpt lat="47.55942" lon="6.80171">
        <ele>391.742371</ele>
        <time>2014-03-15T13:56:10.699Z</time>
      </trkpt>
      <trkpt lat="47.5596" lon="6.80166">
        <ele>391.341309</ele>
        <time>2014-03-15T13:56:13.693Z</time>
      </trkpt>
      <trkpt lat="47.55984" lon="6.80167">
        <ele>390.735443</ele>
        <time>2014-03-15T13:56:16.701Z</time>
      </trkpt>
      <trkpt lat="47.56005" lon="6.80183">
        <ele>389.911469</ele>
        <time>2014-03-15T13:56:19.698Z</time>
      </trkpt>
      <trkpt lat="47.56021" lon="6.802">
        <ele>389.049561</ele>
        <time>2014-03-15T13:56:22.697Z</time>
      </trkpt>
      <trkpt lat="47.56039" lon="6.80207">
        <ele>388.224304</ele>
        <time>2014-03-15T13:56:25.699Z</time>
      </trkpt>
      <trkpt lat="47.56058" lon="6.80205">
        <ele>386.688232</ele>
        <time>2014-03-15T13:56:30.703Z</time>
      </trkpt>
      <trkpt lat="47.56078" lon="6.80198">
        <ele>385.628937</ele>
        <time>2014-03-15T13:56:34.692Z</time>
      </trkpt>
      <trkpt lat="47.56096" lon="6.80184">
        <ele>384.836731</ele>
        <time>2014-03-15T13:56:37.692Z</time>
      </trkpt>
      <trkpt lat="47.5611" lon="6.80161">
        <ele>383.797699</ele>
        <time>2014-03-15T13:56:41.692Z</time>
      </trkpt>
      <trkpt lat="47.56132" lon="6.80146">
        <ele>382.842102</ele>
        <time>2014-03-15T13:56:45.710Z</time>
      </trkpt>
      <trkpt lat="47.56152" lon="6.80141">
        <ele>382.323761</ele>
        <time>2014-03-15T13:56:48.696Z</time>
      </trkpt>
      <trkpt lat="47.56172" lon="6.8014">
        <ele>381.683533</ele>
        <time>2014-03-15T13:56:51.707Z</time>
      </trkpt>
      <trkpt lat="47.56189" lon="6.80151">
        <ele>380.723907</ele>
        <time>2014-03-15T13:56:54.693Z</time>
      </trkpt>
      <trkpt lat="47.56209" lon="6.80157">
        <ele>379.754913</ele>
        <time>2014-03-15T13:56:57.694Z</time>
      </trkpt>
      <trkpt lat="47.56229" lon="6.80156">
        <ele>378.719299</ele>
        <time>2014-03-15T13:57:00.691Z</time>
      </trkpt>
      <trkpt lat="47.5625" lon="6.80149">
        <ele>377.499329</ele>
        <time>2014-03-15T13:57:04.692Z</time>
      </trkpt>
      <trkpt lat="47.56268" lon="6.80139">
        <ele>376.78598</ele>
        <time>2014-03-15T13:57:09.692Z</time>
      </trkpt>
      <trkpt lat="47.56288" lon="6.80126">
        <ele>376.846832</ele>
        <time>2014-03-15T13:57:13.692Z</time>
      </trkpt>
      <trkpt lat="47.56309" lon="6.80113">
        <ele>377.356812</ele>
        <time>2014-03-15T13:57:18.693Z</time>
      </trkpt>
      <trkpt lat="47.56328" lon="6.80105">
        <ele>378.168396</ele>
        <time>2014-03-15T13:57:23.704Z</time>
      </trkpt>
      <trkpt lat="47.56346" lon="6.8011">
        <ele>378.733612</ele>
        <time>2014-03-15T13:57:28.695Z</time>
      </trkpt>
      <trkpt lat="47.56364" lon="6.80114">
        <ele>379.25885</ele>
        <time>2014-03-15T13:57:35.699Z</time>
      </trkpt>
      <trkpt lat="47.56384" lon="6.80117">
        <ele>379.586823</ele>
        <time>2014-03-15T13:57:42.699Z</time>
      </trkpt>
      <trkpt lat="47.56406" lon="6.80122">
        <ele>379.765411</ele>
        <time>2014-03-15T13:57:49.713Z</time>
      </trkpt>
      <trkpt lat="47.56426" lon="6.80131">
        <ele>380.026703</ele>
        <time>2014-03-15T13:57:55.699Z</time>
      </trkpt>
      <trkpt lat="47.56446" lon="6.80135">
        <ele>380.789795</ele>
        <time>2014-03-15T13:58:01.695Z</time>
      </trkpt>
      <trkpt lat="47.56466" lon="6.80132">
        <ele>381.059143</ele>
        <time>2014-03-15T13:58:08.697Z</time>
      </trkpt>
      <trkpt lat="47.56485" lon="6.80128">
        <ele>380.07309</ele>
        <time>2014-03-15T13:58:14.714Z</time>
      </trkpt>
      <trkpt lat="47.56504" lon="6.80126">
        <ele>378.729858</ele>
        <time>2014-03-15T13:58:20.717Z</time>
      </trkpt>
      <trkpt lat="47.56525" lon="6.80124">
        <ele>377.99176</ele>
        <time>2014-03-15T13:58:26.714Z</time>
      </trkpt>
      <trkpt lat="47.56543" lon="6.80119">
        <ele>378.119049</ele>
        <time>2014-03-15T13:58:33.714Z</time>
      </trkpt>
      <trkpt lat="47.56562" lon="6.80114">
        <ele>378.306885</ele>
        <time>2014-03-15T13:58:41.715Z</time>
      </trkpt>
      <trkpt lat="47.5658" lon="6.80107">
        <ele>378.69754</ele>
        <time>2014-03-15T13:58:48.718Z</time>
      </trkpt>
      <trkpt lat="47.566" lon="6.80107">
        <ele>379.432556</ele>
        <time>2014-03-15T13:58:56.716Z</time>
      </trkpt>
      <trkpt lat="47.56618" lon="6.80118">
        <ele>379.838806</ele>
        <time>2014-03-15T13:59:04.716Z</time>
      </trkpt>
      <trkpt lat="47.56634" lon="6.80134">
        <ele>380.417358</ele>
        <time>2014-03-15T13:59:10.713Z</time>
      </trkpt>
      <trkpt lat="47.56652" lon="6.80144">
        <ele>381.094574</ele>
        <time>2014-03-15T13:59:17.712Z</time>
      </trkpt>
      <trkpt lat="47.56671" lon="6.80154">
        <ele>382.601929</ele>
        <time>2014-03-15T13:59:24.715Z</time>
      </trkpt>
      <trkpt lat="47.56689" lon="6.80166">
        <ele>383.703308</ele>
        <time>2014-03-15T13:59:32.724Z</time>
      </trkpt>
      <trkpt lat="47.56705" lon="6.80182">
        <ele>385.039368</ele>
        <time>2014-03-15T13:59:41.717Z</time>
      </trkpt>
      <trkpt lat="47.56719" lon="6.80199">
        <ele>386.179291</ele>
        <time>2014-03-15T13:59:49.717Z</time>
      </trkpt>
      <trkpt lat="47.56736" lon="6.80216">
        <ele>387.509369</ele>
        <time>2014-03-15T13:59:58.716Z</time>
      </trkpt>
      <trkpt lat="47.56752" lon="6.8023">
        <ele>388.671265</ele>
        <time>2014-03-15T14:00:07.716Z</time>
      </trkpt>
      <trkpt lat="47.56767" lon="6.80246">
        <ele>390.413635</ele>
        <time>2014-03-15T14:00:16.716Z</time>
      </trkpt>
      <trkpt lat="47.56783" lon="6.80262">
        <ele>391.866608</ele>
        <time>2014-03-15T14:00:27.716Z</time>
      </trkpt>
      <trkpt lat="47.568" lon="6.80274">
        <ele>393.636841</ele>
        <time>2014-03-15T14:00:37.724Z</time>
      </trkpt>
      <trkpt lat="47.56817" lon="6.80284">
        <ele>394.672791</ele>
        <time>2014-03-15T14:00:46.715Z</time>
      </trkpt>
      <trkpt lat="47.56834" lon="6.80297">
        <ele>396.721008</ele>
        <time>2014-03-15T14:00:57.704Z</time>
      </trkpt>
      <trkpt lat="47.56853" lon="6.80308">
        <ele>399.019592</ele>
        <time>2014-03-15T14:01:07.704Z</time>
      </trkpt>
      <trkpt lat="47.5687" lon="6.8032">
        <ele>400.558929</ele>
        <time>2014-03-15T14:01:17.703Z</time>
      </trkpt>
      <trkpt lat="47.5689" lon="6.80327">
        <ele>402.937469</ele>
        <time>2014-03-15T14:01:28.704Z</time>
      </trkpt>
      <trkpt lat="47.56909" lon="6.80329">
        <ele>404.747223</ele>
        <time>2014-03-15T14:01:39.704Z</time>
      </trkpt>
      <trkpt lat="47.56928" lon="6.80327">
        <ele>406.733734</ele>
        <time>2014-03-15T14:01:48.704Z</time>
      </trkpt>
      <trkpt lat="47.56948" lon="6.80327">
        <ele>407.538727</ele>
        <time>2014-03-15T14:01:55.708Z</time>
      </trkpt>
      <trkpt lat="47.56969" lon="6.80327">
        <ele>408.119232</ele>
        <time>2014-03-15T14:02:01.701Z</time>
      </trkpt>
      <trkpt lat="47.5699" lon="6.80327">
        <ele>408.924866</ele>
        <time>2014-03-15T14:02:06.697Z</time>
      </trkpt>
      <trkpt lat="47.57008" lon="6.80326">
        <ele>409.920319</ele>
        <time>2014-03-15T14:02:11.707Z</time>
      </trkpt>
      <trkpt lat="47.57027" lon="6.80317">
        <ele>410.915527</ele>
        <time>2014-03-15T14:02:17.700Z</time>
      </trkpt>
      <trkpt lat="47.57034" lon="6.80344">
        <ele>413.273468</ele>
        <time>2014-03-15T14:02:53.710Z</time>
      </trkpt>
      <trkpt lat="47.57035" lon="6.80372">
        <ele>413.763489</ele>
        <time>2014-03-15T14:02:59.697Z</time>
      </trkpt>
      <trkpt lat="47.5704" lon="6.80399">
        <ele>413.657227</ele>
        <time>2014-03-15T14:03:05.697Z</time>
      </trkpt>
      <trkpt lat="47.57052" lon="6.80423">
        <ele>413.10611</ele>
        <time>2014-03-15T14:03:11.697Z</time>
      </trkpt>
      <trkpt lat="47.57068" lon="6.80443">
        <ele>412.607208</ele>
        <time>2014-03-15T14:03:16.712Z</time>
      </trkpt>
      <trkpt lat="47.57082" lon="6.80462">
        <ele>412.127319</ele>
        <time>2014-03-15T14:03:21.698Z</time>
      </trkpt>
      <trkpt lat="47.57095" lon="6.80487">
        <ele>411.817932</ele>
        <time>2014-03-15T14:03:27.712Z</time>
      </trkpt>
      <trkpt lat="47.5711" lon="6.80506">
        <ele>411.602356</ele>
        <time>2014-03-15T14:03:32.698Z</time>
      </trkpt>
      <trkpt lat="47.57128" lon="6.80516">
        <ele>412.216248</ele>
        <time>2014-03-15T14:03:37.702Z</time>
      </trkpt>
      <trkpt lat="47.57141" lon="6.80538">
        <ele>412.260956</ele>
        <time>2014-03-15T14:03:42.699Z</time>
      </trkpt>
      <trkpt lat="47.57148" lon="6.80565">
        <ele>412.537079</ele>
        <time>2014-03-15T14:03:48.693Z</time>
      </trkpt>
      <trkpt lat="47.57159" lon="6.80589">
        <ele>412.742615</ele>
        <time>2014-03-15T14:03:54.697Z</time>
      </trkpt>
      <trkpt lat="47.57167" lon="6.80615">
        <ele>412.247559</ele>
        <time>2014-03-15T14:04:01.702Z</time>
      </trkpt>
      <trkpt lat="47.57175" lon="6.8064">
        <ele>412.065399</ele>
        <time>2014-03-15T14:04:07.698Z</time>
      </trkpt>
      <trkpt lat="47.57187" lon="6.80664">
        <ele>411.83606</ele>
        <time>2014-03-15T14:04:11.700Z</time>
      </trkpt>
      <trkpt lat="47.57198" lon="6.80691">
        <ele>411.190918</ele>
        <time>2014-03-15T14:04:16.699Z</time>
      </trkpt>
      <trkpt lat="47.57209" lon="6.80716">
        <ele>410.484131</ele>
        <time>2014-03-15T14:04:20.699Z</time>
      </trkpt>
      <trkpt lat="47.57219" lon="6.80739">
        <ele>409.787598</ele>
        <time>2014-03-15T14:04:23.701Z</time>
      </trkpt>
      <trkpt lat="47.5723" lon="6.80762">
        <ele>408.555878</ele>
        <time>2014-03-15T14:04:28.703Z</time>
      </trkpt>
      <trkpt lat="47.57243" lon="6.80786">
        <ele>407.255096</ele>
        <time>2014-03-15T14:04:33.727Z</time>
      </trkpt>
      <trkpt lat="47.57252" lon="6.80811">
        <ele>405.662018</ele>
        <time>2014-03-15T14:04:37.702Z</time>
      </trkpt>
      <trkpt lat="47.5726" lon="6.80839">
        <ele>404.019379</ele>
        <time>2014-03-15T14:04:41.698Z</time>
      </trkpt>
      <trkpt lat="47.57277" lon="6.80863">
        <ele>402.377686</ele>
        <time>2014-03-15T14:04:45.701Z</time>
      </trkpt>
      <trkpt lat="47.57288" lon="6.80883">
        <ele>400.871124</ele>
        <time>2014-03-15T14:04:48.700Z</time>
      </trkpt>
      <trkpt lat="47.57297" lon="6.80908">
        <ele>399.241302</ele>
        <time>2014-03-15T14:04:51.700Z</time>
      </trkpt>
      <trkpt lat="47.57311" lon="6.80929">
        <ele>397.536407</ele>
        <time>2014-03-15T14:04:54.701Z</time>
      </trkpt>
      <trkpt lat="47.57326" lon="6.80947">
        <ele>395.827606</ele>
        <time>2014-03-15T14:04:57.699Z</time>
      </trkpt>
      <trkpt lat="47.57346" lon="6.8096">
        <ele>394.225555</ele>
        <time>2014-03-15T14:05:01.699Z</time>
      </trkpt>
      <trkpt lat="47.57361" lon="6.80946">
        <ele>392.914246</ele>
        <time>2014-03-15T14:05:05.700Z</time>
      </trkpt>
      <trkpt lat="47.57375" lon="6.80925">
        <ele>390.862701</ele>
        <time>2014-03-15T14:05:12.700Z</time>
      </trkpt>
      <trkpt lat="47.57388" lon="6.80902">
        <ele>389.699432</ele>
        <time>2014-03-15T14:05:20.700Z</time>
      </trkpt>
      <trkpt lat="47.57402" lon="6.80881">
        <ele>388.548889</ele>
        <time>2014-03-15T14:05:28.701Z</time>
      </trkpt>
      <trkpt lat="47.57414" lon="6.8086">
        <ele>388.074493</ele>
        <time>2014-03-15T14:05:36.700Z</time>
      </trkpt>
      <trkpt lat="47.57424" lon="6.80837">
        <ele>388.661652</ele>
        <time>2014-03-15T14:05:44.701Z</time>
      </trkpt>
      <trkpt lat="47.57428" lon="6.8081">
        <ele>392.944916</ele>
        <time>2014-03-15T14:05:57.700Z</time>
      </trkpt>
      <trkpt lat="47.57428" lon="6.80782">
        <ele>396.581665</ele>
        <time>2014-03-15T14:06:07.700Z</time>
      </trkpt>
      <trkpt lat="47.57429" lon="6.80753">
        <ele>398.772644</ele>
        <time>2014-03-15T14:06:16.697Z</time>
      </trkpt>
      <trkpt lat="47.57433" lon="6.80725">
        <ele>400.1297</ele>
        <time>2014-03-15T14:06:24.701Z</time>
      </trkpt>
      <trkpt lat="47.57432" lon="6.80698">
        <ele>401.638428</ele>
        <time>2014-03-15T14:06:30.702Z</time>
      </trkpt>
      <trkpt lat="47.57436" lon="6.8067">
        <ele>403.246887</ele>
        <time>2014-03-15T14:06:37.702Z</time>
      </trkpt>
      <trkpt lat="47.5744" lon="6.80644">
        <ele>404.504578</ele>
        <time>2014-03-15T14:06:43.700Z</time>
      </trkpt>
      <trkpt lat="47.5745" lon="6.80617">
        <ele>405.221558</ele>
        <time>2014-03-15T14:06:49.701Z</time>
      </trkpt>
      <trkpt lat="47.5746" lon="6.80594">
        <ele>405.415833</ele>
        <time>2014-03-15T14:06:55.703Z</time>
      </trkpt>
      <trkpt lat="47.5747" lon="6.8057">
        <ele>405.350616</ele>
        <time>2014-03-15T14:07:00.733Z</time>
      </trkpt>
      <trkpt lat="47.57479" lon="6.80546">
        <ele>405.360626</ele>
        <time>2014-03-15T14:07:06.728Z</time>
      </trkpt>
      <trkpt lat="47.57487" lon="6.80523">
        <ele>405.918945</ele>
        <time>2014-03-15T14:07:12.729Z</time>
      </trkpt>
      <trkpt lat="47.57498" lon="6.805">
        <ele>406.968719</ele>
        <time>2014-03-15T14:07:18.702Z</time>
      </trkpt>
      <trkpt lat="47.57508" lon="6.80478">
        <ele>407.849731</ele>
        <time>2014-03-15T14:07:25.701Z</time>
      </trkpt>
      <trkpt lat="47.57525" lon="6.8046">
        <ele>408.61499</ele>
        <time>2014-03-15T14:07:32.700Z</time>
      </trkpt>
      <trkpt lat="47.57542" lon="6.80444">
        <ele>409.286652</ele>
        <time>2014-03-15T14:07:39.701Z</time>
      </trkpt>
      <trkpt lat="47.5756" lon="6.8043">
        <ele>410.095551</ele>
        <time>2014-03-15T14:07:46.699Z</time>
      </trkpt>
      <trkpt lat="47.5758" lon="6.80423">
        <ele>411.336304</ele>
        <time>2014-03-15T14:07:53.701Z</time>
      </trkpt>
      <trkpt lat="47.57598" lon="6.80425">
        <ele>412.301086</ele>
        <time>2014-03-15T14:08:00.702Z</time>
      </trkpt>
      <trkpt lat="47.57618" lon="6.80432">
        <ele>413.857513</ele>
        <time>2014-03-15T14:08:09.736Z</time>
      </trkpt>
      <trkpt lat="47.57636" lon="6.80437">
        <ele>416.559021</ele>
        <time>2014-03-15T14:08:19.703Z</time>
      </trkpt>
      <trkpt lat="47.57656" lon="6.80437">
        <ele>417.541687</ele>
        <time>2014-03-15T14:08:28.700Z</time>
      </trkpt>
      <trkpt lat="47.57674" lon="6.8044">
        <ele>418.259491</ele>
        <time>2014-03-15T14:08:36.702Z</time>
      </trkpt>
      <trkpt lat="47.57693" lon="6.8044">
        <ele>418.255341</ele>
        <time>2014-03-15T14:08:42.700Z</time>
      </trkpt>
      <trkpt lat="47.57712" lon="6.80438">
        <ele>417.727478</ele>
        <time>2014-03-15T14:08:49.700Z</time>
      </trkpt>
      <trkpt lat="47.57731" lon="6.80441">
        <ele>417.570007</ele>
        <time>2014-03-15T14:08:56.701Z</time>
      </trkpt>
      <trkpt lat="47.57752" lon="6.80444">
        <ele>418.206238</ele>
        <time>2014-03-15T14:09:01.734Z</time>
      </trkpt>
      <trkpt lat="47.57777" lon="6.80446">
        <ele>419.173401</ele>
        <time>2014-03-15T14:09:05.701Z</time>
      </trkpt>
      <trkpt lat="47.57799" lon="6.8045">
        <ele>420.574036</ele>
        <time>2014-03-15T14:09:11.720Z</time>
      </trkpt>
      <trkpt lat="47.57818" lon="6.80453">
        <ele>421.679169</ele>
        <time>2014-03-15T14:09:17.703Z</time>
      </trkpt>
      <trkpt lat="47.57837" lon="6.80454">
        <ele>422.999115</ele>
        <time>2014-03-15T14:09:22.699Z</time>
      </trkpt>
      <trkpt lat="47.57858" lon="6.80453">
        <ele>425.264404</ele>
        <time>2014-03-15T14:09:28.702Z</time>
      </trkpt>
      <trkpt lat="47.57879" lon="6.80454">
        <ele>427.58017</ele>
        <time>2014-03-15T14:09:35.704Z</time>
      </trkpt>
      <trkpt lat="47.57898" lon="6.80458">
        <ele>430.628296</ele>
        <time>2014-03-15T14:09:43.698Z</time>
      </trkpt>
      <trkpt lat="47.57918" lon="6.80454">
        <ele>434.623016</ele>
        <time>2014-03-15T14:09:53.705Z</time>
      </trkpt>
      <trkpt lat="47.57935" lon="6.80439">
        <ele>435.785065</ele>
        <time>2014-03-15T14:10:01.703Z</time>
      </trkpt>
      <trkpt lat="47.5795" lon="6.80418">
        <ele>435.285858</ele>
        <time>2014-03-15T14:10:08.701Z</time>
      </trkpt>
      <trkpt lat="47.57964" lon="6.804">
        <ele>434.900848</ele>
        <time>2014-03-15T14:10:14.700Z</time>
      </trkpt>
      <trkpt lat="47.57978" lon="6.80379">
        <ele>434.485748</ele>
        <time>2014-03-15T14:10:19.702Z</time>
      </trkpt>
      <trkpt lat="47.57988" lon="6.80355">
        <ele>416.971466</ele>
        <time>2014-03-15T14:15:21.703Z</time>
      </trkpt>
      <trkpt lat="47.57998" lon="6.80332">
        <ele>416.880646</ele>
        <time>2014-03-15T14:15:27.705Z</time>
      </trkpt>
      <trkpt lat="47.58009" lon="6.80309">
        <ele>418.12204</ele>
        <time>2014-03-15T14:15:31.705Z</time>
      </trkpt>
      <trkpt lat="47.58019" lon="6.80277">
        <ele>419.363861</ele>
        <time>2014-03-15T14:15:35.705Z</time>
      </trkpt>
      <trkpt lat="47.58025" lon="6.80251">
        <ele>420.013397</ele>
        <time>2014-03-15T14:15:38.733Z</time>
      </trkpt>
      <trkpt lat="47.58024" lon="6.80218">
        <ele>420.953827</ele>
        <time>2014-03-15T14:15:41.725Z</time>
      </trkpt>
      <trkpt lat="47.58024" lon="6.80186">
        <ele>420.70755</ele>
        <time>2014-03-15T14:15:44.726Z</time>
      </trkpt>
      <trkpt lat="47.58029" lon="6.80154">
        <ele>420.709747</ele>
        <time>2014-03-15T14:15:47.768Z</time>
      </trkpt>
      <trkpt lat="47.58038" lon="6.80124">
        <ele>421.849396</ele>
        <time>2014-03-15T14:15:50.731Z</time>
      </trkpt>
      <trkpt lat="47.58045" lon="6.80095">
        <ele>423.103333</ele>
        <time>2014-03-15T14:15:53.703Z</time>
      </trkpt>
      <trkpt lat="47.58044" lon="6.80065">
        <ele>424.806274</ele>
        <time>2014-03-15T14:15:56.726Z</time>
      </trkpt>
      <trkpt lat="47.58039" lon="6.80037">
        <ele>426.527344</ele>
        <time>2014-03-15T14:15:59.736Z</time>
      </trkpt>
      <trkpt lat="47.58033" lon="6.80008">
        <ele>427.675232</ele>
        <time>2014-03-15T14:16:02.784Z</time>
      </trkpt>
      <trkpt lat="47.58033" lon="6.79977">
        <ele>426.933899</ele>
        <time>2014-03-15T14:16:05.724Z</time>
      </trkpt>
      <trkpt lat="47.58036" lon="6.79937">
        <ele>424.844666</ele>
        <time>2014-03-15T14:16:08.735Z</time>
      </trkpt>
      <trkpt lat="47.5804" lon="6.79894">
        <ele>422.672516</ele>
        <time>2014-03-15T14:16:11.725Z</time>
      </trkpt>
      <trkpt lat="47.58042" lon="6.79865">
        <ele>421.406128</ele>
        <time>2014-03-15T14:16:13.725Z</time>
      </trkpt>
      <trkpt lat="47.58043" lon="6.79837">
        <ele>420.122009</ele>
        <time>2014-03-15T14:16:15.729Z</time>
      </trkpt>
      <trkpt lat="47.58043" lon="6.79806">
        <ele>418.895752</ele>
        <time>2014-03-15T14:16:17.742Z</time>
      </trkpt>
      <trkpt lat="47.58043" lon="6.79775">
        <ele>417.821472</ele>
        <time>2014-03-15T14:16:19.743Z</time>
      </trkpt>
      <trkpt lat="47.58042" lon="6.79735">
        <ele>416.19223</ele>
        <time>2014-03-15T14:16:22.763Z</time>
      </trkpt>
      <trkpt lat="47.5804" lon="6.79708">
        <ele>414.854492</ele>
        <time>2014-03-15T14:16:24.750Z</time>
      </trkpt>
      <trkpt lat="47.58036" lon="6.79668">
        <ele>412.746887</ele>
        <time>2014-03-15T14:16:27.756Z</time>
      </trkpt>
      <trkpt lat="47.58033" lon="6.79628">
        <ele>410.852264</ele>
        <time>2014-03-15T14:16:30.747Z</time>
      </trkpt>
      <trkpt lat="47.58037" lon="6.79582">
        <ele>408.769073</ele>
        <time>2014-03-15T14:16:33.765Z</time>
      </trkpt>
      <trkpt lat="47.58038" lon="6.79539">
        <ele>406.263306</ele>
        <time>2014-03-15T14:16:36.737Z</time>
      </trkpt>
      <trkpt lat="47.58037" lon="6.79493">
        <ele>404.12027</ele>
        <time>2014-03-15T14:16:39.737Z</time>
      </trkpt>
      <trkpt lat="47.58038" lon="6.79462">
        <ele>402.868713</ele>
        <time>2014-03-15T14:16:41.731Z</time>
      </trkpt>
      <trkpt lat="47.58045" lon="6.79419">
        <ele>401.130432</ele>
        <time>2014-03-15T14:16:44.732Z</time>
      </trkpt>
      <trkpt lat="47.58057" lon="6.79395">
        <ele>399.873566</ele>
        <time>2014-03-15T14:16:46.722Z</time>
      </trkpt>
      <trkpt lat="47.58068" lon="6.79372">
        <ele>398.451019</ele>
        <time>2014-03-15T14:16:48.727Z</time>
      </trkpt>
      <trkpt lat="47.58086" lon="6.79342">
        <ele>396.331024</ele>
        <time>2014-03-15T14:16:51.731Z</time>
      </trkpt>
      <trkpt lat="47.58099" lon="6.79322">
        <ele>394.873871</ele>
        <time>2014-03-15T14:16:53.728Z</time>
      </trkpt>
      <trkpt lat="47.58118" lon="6.79304">
        <ele>392.652405</ele>
        <time>2014-03-15T14:16:56.726Z</time>
      </trkpt>
      <trkpt lat="47.58135" lon="6.79281">
        <ele>390.388092</ele>
        <time>2014-03-15T14:16:59.733Z</time>
      </trkpt>
      <trkpt lat="47.58141" lon="6.79248">
        <ele>388.126129</ele>
        <time>2014-03-15T14:17:02.725Z</time>
      </trkpt>
      <trkpt lat="47.58146" lon="6.79218">
        <ele>384.963562</ele>
        <time>2014-03-15T14:17:06.706Z</time>
      </trkpt>
      <trkpt lat="47.58166" lon="6.79213">
        <ele>381.053833</ele>
        <time>2014-03-15T14:17:12.730Z</time>
      </trkpt>
      <trkpt lat="47.58185" lon="6.79214">
        <ele>378.858643</ele>
        <time>2014-03-15T14:17:16.707Z</time>
      </trkpt>
      <trkpt lat="47.58207" lon="6.7922">
        <ele>376.504822</ele>
        <time>2014-03-15T14:17:20.706Z</time>
      </trkpt>
      <trkpt lat="47.58231" lon="6.7922">
        <ele>374.08905</ele>
        <time>2014-03-15T14:17:24.721Z</time>
      </trkpt>
      <trkpt lat="47.58249" lon="6.79219">
        <ele>372.345398</ele>
        <time>2014-03-15T14:17:27.726Z</time>
      </trkpt>
      <trkpt lat="47.5827" lon="6.79217">
        <ele>370.559601</ele>
        <time>2014-03-15T14:17:30.729Z</time>
      </trkpt>
      <trkpt lat="47.58289" lon="6.79215">
        <ele>369.021423</ele>
        <time>2014-03-15T14:17:33.748Z</time>
      </trkpt>
      <trkpt lat="47.58308" lon="6.79214">
        <ele>367.843079</ele>
        <time>2014-03-15T14:17:36.705Z</time>
      </trkpt>
      <trkpt lat="47.58326" lon="6.79212">
        <ele>366.502136</ele>
        <time>2014-03-15T14:17:39.710Z</time>
      </trkpt>
      <trkpt lat="47.5835" lon="6.79211">
        <ele>364.678162</ele>
        <time>2014-03-15T14:17:43.738Z</time>
      </trkpt>
      <trkpt lat="47.58371" lon="6.79208">
        <ele>362.944061</ele>
        <time>2014-03-15T14:17:47.731Z</time>
      </trkpt>
      <trkpt lat="47.58394" lon="6.79203">
        <ele>361.596283</ele>
        <time>2014-03-15T14:17:51.737Z</time>
      </trkpt>
      <trkpt lat="47.58413" lon="6.79198">
        <ele>360.601929</ele>
        <time>2014-03-15T14:17:55.705Z</time>
      </trkpt>
      <trkpt lat="47.58436" lon="6.79194">
        <ele>359.795502</ele>
        <time>2014-03-15T14:18:00.705Z</time>
      </trkpt>
      <trkpt lat="47.58455" lon="6.79197">
        <ele>359.349609</ele>
        <time>2014-03-15T14:18:04.711Z</time>
      </trkpt>
      <trkpt lat="47.58473" lon="6.79206">
        <ele>358.995819</ele>
        <time>2014-03-15T14:18:08.706Z</time>
      </trkpt>
      <trkpt lat="47.58495" lon="6.79215">
        <ele>358.233673</ele>
        <time>2014-03-15T14:18:13.734Z</time>
      </trkpt>
      <trkpt lat="47.58516" lon="6.79217">
        <ele>357.848724</ele>
        <time>2014-03-15T14:18:17.719Z</time>
      </trkpt>
      <trkpt lat="47.58535" lon="6.79212">
        <ele>357.672363</ele>
        <time>2014-03-15T14:18:21.722Z</time>
      </trkpt>
      <trkpt lat="47.58553" lon="6.79202">
        <ele>357.573395</ele>
        <time>2014-03-15T14:18:25.738Z</time>
      </trkpt>
      <trkpt lat="47.58571" lon="6.79191">
        <ele>357.566376</ele>
        <time>2014-03-15T14:18:29.721Z</time>
      </trkpt>
      <trkpt lat="47.5859" lon="6.79181">
        <ele>357.503021</ele>
        <time>2014-03-15T14:18:33.739Z</time>
      </trkpt>
      <trkpt lat="47.58611" lon="6.79167">
        <ele>357.21048</ele>
        <time>2014-03-15T14:18:37.737Z</time>
      </trkpt>
      <trkpt lat="47.58632" lon="6.79154">
        <ele>357.055573</ele>
        <time>2014-03-15T14:18:41.751Z</time>
      </trkpt>
      <trkpt lat="47.58648" lon="6.79143">
        <ele>356.613159</ele>
        <time>2014-03-15T14:18:44.748Z</time>
      </trkpt>
      <trkpt lat="47.58665" lon="6.79134">
        <ele>356.423035</ele>
        <time>2014-03-15T14:18:47.732Z</time>
      </trkpt>
      <trkpt lat="47.58686" lon="6.79119">
        <ele>356.462158</ele>
        <time>2014-03-15T14:18:51.731Z</time>
      </trkpt>
      <trkpt lat="47.58702" lon="6.79106">
        <ele>356.261932</ele>
        <time>2014-03-15T14:18:54.735Z</time>
      </trkpt>
      <trkpt lat="47.5872" lon="6.79088">
        <ele>356.23822</ele>
        <time>2014-03-15T14:18:59.727Z</time>
      </trkpt>
      <trkpt lat="47.58738" lon="6.79075">
        <ele>356.326019</ele>
        <time>2014-03-15T14:19:03.742Z</time>
      </trkpt>
      <trkpt lat="47.58759" lon="6.79069">
        <ele>356.440796</ele>
        <time>2014-03-15T14:19:07.722Z</time>
      </trkpt>
      <trkpt lat="47.58781" lon="6.79067">
        <ele>356.182373</ele>
        <time>2014-03-15T14:19:11.731Z</time>
      </trkpt>
      <trkpt lat="47.58799" lon="6.79066">
        <ele>355.992981</ele>
        <time>2014-03-15T14:19:14.726Z</time>
      </trkpt>
      <trkpt lat="47.58822" lon="6.79068">
        <ele>355.547516</ele>
        <time>2014-03-15T14:19:18.737Z</time>
      </trkpt>
      <trkpt lat="47.58841" lon="6.79065">
        <ele>355.050476</ele>
        <time>2014-03-15T14:19:21.739Z</time>
      </trkpt>
      <trkpt lat="47.58862" lon="6.79054">
        <ele>354.781769</ele>
        <time>2014-03-15T14:19:25.737Z</time>
      </trkpt>
      <trkpt lat="47.5888" lon="6.79042">
        <ele>354.636292</ele>
        <time>2014-03-15T14:19:29.721Z</time>
      </trkpt>
      <trkpt lat="47.58896" lon="6.79029">
        <ele>354.768036</ele>
        <time>2014-03-15T14:19:35.736Z</time>
      </trkpt>
      <trkpt lat="47.58912" lon="6.79014">
        <ele>356.397278</ele>
        <time>2014-03-15T14:19:45.737Z</time>
      </trkpt>
      <trkpt lat="47.58929" lon="6.79005">
        <ele>358.835602</ele>
        <time>2014-03-15T14:19:55.727Z</time>
      </trkpt>
      <trkpt lat="47.58948" lon="6.78994">
        <ele>360.420624</ele>
        <time>2014-03-15T14:20:06.734Z</time>
      </trkpt>
      <trkpt lat="47.58966" lon="6.78986">
        <ele>363.629395</ele>
        <time>2014-03-15T14:20:18.738Z</time>
      </trkpt>
      <trkpt lat="47.58985" lon="6.7898">
        <ele>367.26062</ele>
        <time>2014-03-15T14:20:30.733Z</time>
      </trkpt>
      <trkpt lat="47.59003" lon="6.78976">
        <ele>371.030487</ele>
        <time>2014-03-15T14:20:45.732Z</time>
      </trkpt>
      <trkpt lat="47.59022" lon="6.78971">
        <ele>372.914978</ele>
        <time>2014-03-15T14:20:57.722Z</time>
      </trkpt>
      <trkpt lat="47.59041" lon="6.78968">
        <ele>375.035095</ele>
        <time>2014-03-15T14:21:08.733Z</time>
      </trkpt>
      <trkpt lat="47.59059" lon="6.78962">
        <ele>376.958588</ele>
        <time>2014-03-15T14:21:20.735Z</time>
      </trkpt>
      <trkpt lat="47.59078" lon="6.78956">
        <ele>377.649628</ele>
        <time>2014-03-15T14:21:29.725Z</time>
      </trkpt>
      <trkpt lat="47.59097" lon="6.78952">
        <ele>378.296356</ele>
        <time>2014-03-15T14:21:36.738Z</time>
      </trkpt>
      <trkpt lat="47.59118" lon="6.78943">
        <ele>379.181244</ele>
        <time>2014-03-15T14:21:43.736Z</time>
      </trkpt>
      <trkpt lat="47.59138" lon="6.78938">
        <ele>379.593781</ele>
        <time>2014-03-15T14:21:49.737Z</time>
      </trkpt>
      <trkpt lat="47.59158" lon="6.78933">
        <ele>380.17569</ele>
        <time>2014-03-15T14:21:54.723Z</time>
      </trkpt>
      <trkpt lat="47.59178" lon="6.78928">
        <ele>380.45697</ele>
        <time>2014-03-15T14:21:59.734Z</time>
      </trkpt>
      <trkpt lat="47.59197" lon="6.78924">
        <ele>380.476196</ele>
        <time>2014-03-15T14:22:03.722Z</time>
      </trkpt>
      <trkpt lat="47.59215" lon="6.7892">
        <ele>380.653931</ele>
        <time>2014-03-15T14:22:07.729Z</time>
      </trkpt>
      <trkpt lat="47.59233" lon="6.78914">
        <ele>380.848267</ele>
        <time>2014-03-15T14:22:11.710Z</time>
      </trkpt>
      <trkpt lat="47.59251" lon="6.78909">
        <ele>380.913361</ele>
        <time>2014-03-15T14:22:15.721Z</time>
      </trkpt>
      <trkpt lat="47.5927" lon="6.78904">
        <ele>380.886322</ele>
        <time>2014-03-15T14:22:19.722Z</time>
      </trkpt>
      <trkpt lat="47.59292" lon="6.78898">
        <ele>381.084167</ele>
        <time>2014-03-15T14:22:25.748Z</time>
      </trkpt>
      <trkpt lat="47.5931" lon="6.78894">
        <ele>381.810608</ele>
        <time>2014-03-15T14:22:32.719Z</time>
      </trkpt>
      <trkpt lat="47.59331" lon="6.78891">
        <ele>382.068512</ele>
        <time>2014-03-15T14:22:37.727Z</time>
      </trkpt>
      <trkpt lat="47.59349" lon="6.78886">
        <ele>382.203217</ele>
        <time>2014-03-15T14:22:41.718Z</time>
      </trkpt>
      <trkpt lat="47.59371" lon="6.78878">
        <ele>381.956543</ele>
        <time>2014-03-15T14:22:45.723Z</time>
      </trkpt>
      <trkpt lat="47.59398" lon="6.78864">
        <ele>381.65863</ele>
        <time>2014-03-15T14:22:48.733Z</time>
      </trkpt>
      <trkpt lat="47.59423" lon="6.78846">
        <ele>381.309814</ele>
        <time>2014-03-15T14:22:51.791Z</time>
      </trkpt>
      <trkpt lat="47.59442" lon="6.78834">
        <ele>380.920105</ele>
        <time>2014-03-15T14:22:55.725Z</time>
      </trkpt>
      <trkpt lat="47.59459" lon="6.78821">
        <ele>381.210876</ele>
        <time>2014-03-15T14:23:00.725Z</time>
      </trkpt>
      <trkpt lat="47.59476" lon="6.78808">
        <ele>381.799377</ele>
        <time>2014-03-15T14:23:04.704Z</time>
      </trkpt>
      <trkpt lat="47.59493" lon="6.788">
        <ele>382.587463</ele>
        <time>2014-03-15T14:23:09.725Z</time>
      </trkpt>
      <trkpt lat="47.59512" lon="6.78802">
        <ele>384.337158</ele>
        <time>2014-03-15T14:23:18.729Z</time>
      </trkpt>
      <trkpt lat="47.5953" lon="6.78802">
        <ele>385.702759</ele>
        <time>2014-03-15T14:23:26.726Z</time>
      </trkpt>
      <trkpt lat="47.5955" lon="6.78804">
        <ele>386.179962</ele>
        <time>2014-03-15T14:23:33.721Z</time>
      </trkpt>
      <trkpt lat="47.59564" lon="6.7878">
        <ele>386.389343</ele>
        <time>2014-03-15T14:23:39.722Z</time>
      </trkpt>
      <trkpt lat="47.59571" lon="6.78753">
        <ele>386.878937</ele>
        <time>2014-03-15T14:23:45.722Z</time>
      </trkpt>
      <trkpt lat="47.59578" lon="6.78722">
        <ele>387.24704</ele>
        <time>2014-03-15T14:23:49.737Z</time>
      </trkpt>
      <trkpt lat="47.59585" lon="6.78693">
        <ele>387.621216</ele>
        <time>2014-03-15T14:23:53.736Z</time>
      </trkpt>
      <trkpt lat="47.59591" lon="6.78664">
        <ele>387.881073</ele>
        <time>2014-03-15T14:23:58.743Z</time>
      </trkpt>
      <trkpt lat="47.59583" lon="6.7864">
        <ele>387.135925</ele>
        <time>2014-03-15T14:24:05.746Z</time>
      </trkpt>
      <trkpt lat="47.59589" lon="6.78612">
        <ele>386.277069</ele>
        <time>2014-03-15T14:24:12.723Z</time>
      </trkpt>
      <trkpt lat="47.59595" lon="6.78586">
        <ele>386.22525</ele>
        <time>2014-03-15T14:24:18.723Z</time>
      </trkpt>
      <trkpt lat="47.5961" lon="6.78565">
        <ele>385.029541</ele>
        <time>2014-03-15T14:24:27.723Z</time>
      </trkpt>
      <trkpt lat="47.59621" lon="6.7854">
        <ele>384.748108</ele>
        <time>2014-03-15T14:24:35.722Z</time>
      </trkpt>
      <trkpt lat="47.59627" lon="6.78515">
        <ele>384.930328</ele>
        <time>2014-03-15T14:24:43.730Z</time>
      </trkpt>
      <trkpt lat="47.59634" lon="6.78487">
        <ele>385.426117</ele>
        <time>2014-03-15T14:24:53.734Z</time>
      </trkpt>
      <trkpt lat="47.59644" lon="6.78464">
        <ele>385.668457</ele>
        <time>2014-03-15T14:25:01.739Z</time>
      </trkpt>
      <trkpt lat="47.59654" lon="6.78439">
        <ele>385.805145</ele>
        <time>2014-03-15T14:25:08.742Z</time>
      </trkpt>
      <trkpt lat="47.59665" lon="6.78416">
        <ele>385.985779</ele>
        <time>2014-03-15T14:25:16.725Z</time>
      </trkpt>
      <trkpt lat="47.59682" lon="6.78403">
        <ele>386.712921</ele>
        <time>2014-03-15T14:25:23.724Z</time>
      </trkpt>
      <trkpt lat="47.59701" lon="6.78398">
        <ele>387.725342</ele>
        <time>2014-03-15T14:25:29.723Z</time>
      </trkpt>
      <trkpt lat="47.59719" lon="6.78394">
        <ele>389.205963</ele>
        <time>2014-03-15T14:25:37.729Z</time>
      </trkpt>
      <trkpt lat="47.59738" lon="6.78387">
        <ele>390.547852</ele>
        <time>2014-03-15T14:25:44.723Z</time>
      </trkpt>
      <trkpt lat="47.59755" lon="6.78379">
        <ele>392.171112</ele>
        <time>2014-03-15T14:25:52.729Z</time>
      </trkpt>
      <trkpt lat="47.59773" lon="6.78365">
        <ele>393.645477</ele>
        <time>2014-03-15T14:25:59.746Z</time>
      </trkpt>
      <trkpt lat="47.59786" lon="6.78343">
        <ele>395.619904</ele>
        <time>2014-03-15T14:26:06.723Z</time>
      </trkpt>
      <trkpt lat="47.59773" lon="6.78322">
        <ele>397.476105</ele>
        <time>2014-03-15T14:26:19.725Z</time>
      </trkpt>
      <trkpt lat="47.59755" lon="6.78316">
        <ele>397.955353</ele>
        <time>2014-03-15T14:26:24.726Z</time>
      </trkpt>
      <trkpt lat="47.59736" lon="6.78311">
        <ele>398.074829</ele>
        <time>2014-03-15T14:26:29.723Z</time>
      </trkpt>
      <trkpt lat="47.59717" lon="6.7831">
        <ele>397.816132</ele>
        <time>2014-03-15T14:26:33.744Z</time>
      </trkpt>
      <trkpt lat="47.59692" lon="6.78312">
        <ele>397.382751</ele>
        <time>2014-03-15T14:26:37.725Z</time>
      </trkpt>
      <trkpt lat="47.59669" lon="6.78319">
        <ele>396.777405</ele>
        <time>2014-03-15T14:26:41.726Z</time>
      </trkpt>
      <trkpt lat="47.59647" lon="6.78325">
        <ele>396.448853</ele>
        <time>2014-03-15T14:26:45.729Z</time>
      </trkpt>
      <trkpt lat="47.59629" lon="6.78331">
        <ele>396.112274</ele>
        <time>2014-03-15T14:26:48.727Z</time>
      </trkpt>
      <trkpt lat="47.59606" lon="6.78342">
        <ele>395.475311</ele>
        <time>2014-03-15T14:26:52.739Z</time>
      </trkpt>
      <trkpt lat="47.59589" lon="6.78352">
        <ele>394.933289</ele>
        <time>2014-03-15T14:26:55.726Z</time>
      </trkpt>
      <trkpt lat="47.59569" lon="6.78373">
        <ele>394.32431</ele>
        <time>2014-03-15T14:26:58.736Z</time>
      </trkpt>
      <trkpt lat="47.59549" lon="6.78395">
        <ele>393.642975</ele>
        <time>2014-03-15T14:27:01.740Z</time>
      </trkpt>
      <trkpt lat="47.59528" lon="6.78398">
        <ele>392.977417</ele>
        <time>2014-03-15T14:27:04.723Z</time>
      </trkpt>
      <trkpt lat="47.59516" lon="6.78371">
        <ele>391.848541</ele>
        <time>2014-03-15T14:27:08.734Z</time>
      </trkpt>
      <trkpt lat="47.59519" lon="6.78341">
        <ele>390.671906</ele>
        <time>2014-03-15T14:27:12.725Z</time>
      </trkpt>
      <trkpt lat="47.59537" lon="6.78328">
        <ele>387.971924</ele>
        <time>2014-03-15T14:27:21.723Z</time>
      </trkpt>
      <trkpt lat="47.59558" lon="6.78319">
        <ele>386.497498</ele>
        <time>2014-03-15T14:27:25.727Z</time>
      </trkpt>
      <trkpt lat="47.59582" lon="6.7831">
        <ele>385.108795</ele>
        <time>2014-03-15T14:27:29.741Z</time>
      </trkpt>
      <trkpt lat="47.59599" lon="6.78296">
        <ele>383.858948</ele>
        <time>2014-03-15T14:27:32.738Z</time>
      </trkpt>
      <trkpt lat="47.59615" lon="6.78282">
        <ele>382.5466</ele>
        <time>2014-03-15T14:27:35.739Z</time>
      </trkpt>
      <trkpt lat="47.5963" lon="6.78267">
        <ele>381.168823</ele>
        <time>2014-03-15T14:27:39.727Z</time>
      </trkpt>
      <trkpt lat="47.59642" lon="6.78247">
        <ele>378.066284</ele>
        <time>2014-03-15T14:27:47.730Z</time>
      </trkpt>
      <trkpt lat="47.59658" lon="6.78225">
        <ele>376.361115</ele>
        <time>2014-03-15T14:27:51.733Z</time>
      </trkpt>
      <trkpt lat="47.59673" lon="6.78208">
        <ele>375.068268</ele>
        <time>2014-03-15T14:27:54.726Z</time>
      </trkpt>
      <trkpt lat="47.5969" lon="6.78197">
        <ele>373.949585</ele>
        <time>2014-03-15T14:27:57.734Z</time>
      </trkpt>
      <trkpt lat="47.59708" lon="6.78191">
        <ele>372.865845</ele>
        <time>2014-03-15T14:28:00.742Z</time>
      </trkpt>
      <trkpt lat="47.59726" lon="6.78175">
        <ele>371.313171</ele>
        <time>2014-03-15T14:28:04.732Z</time>
      </trkpt>
      <trkpt lat="47.59725" lon="6.78147">
        <ele>370.400085</ele>
        <time>2014-03-15T14:28:08.729Z</time>
      </trkpt>
      <trkpt lat="47.59705" lon="6.78134">
        <ele>369.508118</ele>
        <time>2014-03-15T14:28:13.726Z</time>
      </trkpt>
      <trkpt lat="47.59684" lon="6.78136">
        <ele>368.315125</ele>
        <time>2014-03-15T14:28:17.726Z</time>
      </trkpt>
      <trkpt lat="47.59661" lon="6.78137">
        <ele>367.212585</ele>
        <time>2014-03-15T14:28:21.726Z</time>
      </trkpt>
      <trkpt lat="47.59641" lon="6.78134">
        <ele>366.634766</ele>
        <time>2014-03-15T14:28:24.728Z</time>
      </trkpt>
      <trkpt lat="47.59619" lon="6.78138">
        <ele>366.064575</ele>
        <time>2014-03-15T14:28:28.727Z</time>
      </trkpt>
      <trkpt lat="47.59601" lon="6.78147">
        <ele>365.974609</ele>
        <time>2014-03-15T14:28:34.725Z</time>
      </trkpt>
      <trkpt lat="47.59583" lon="6.78157">
        <ele>365.799683</ele>
        <time>2014-03-15T14:28:42.725Z</time>
      </trkpt>
      <trkpt lat="47.59567" lon="6.78171">
        <ele>366.482941</ele>
        <time>2014-03-15T14:28:51.732Z</time>
      </trkpt>
      <trkpt lat="47.5955" lon="6.78183">
        <ele>367.912109</ele>
        <time>2014-03-15T14:29:00.732Z</time>
      </trkpt>
      <trkpt lat="47.59531" lon="6.78178">
        <ele>368.854553</ele>
        <time>2014-03-15T14:29:08.732Z</time>
      </trkpt>
      <trkpt lat="47.59521" lon="6.78155">
        <ele>369.53363</ele>
        <time>2014-03-15T14:29:16.727Z</time>
      </trkpt>
      <trkpt lat="47.5953" lon="6.78132">
        <ele>370.285126</ele>
        <time>2014-03-15T14:29:24.730Z</time>
      </trkpt>
      <trkpt lat="47.59549" lon="6.78131">
        <ele>371.643127</ele>
        <time>2014-03-15T14:29:32.725Z</time>
      </trkpt>
      <trkpt lat="47.59567" lon="6.78138">
        <ele>372.40274</ele>
        <time>2014-03-15T14:29:39.725Z</time>
      </trkpt>
      <trkpt lat="47.59584" lon="6.78131">
        <ele>373.394653</ele>
        <time>2014-03-15T14:29:46.726Z</time>
      </trkpt>
      <trkpt lat="47.59603" lon="6.78117">
        <ele>374.656494</ele>
        <time>2014-03-15T14:29:52.725Z</time>
      </trkpt>
      <trkpt lat="47.59617" lon="6.78095">
        <ele>376.07666</ele>
        <time>2014-03-15T14:29:59.729Z</time>
      </trkpt>
      <trkpt lat="47.59631" lon="6.78078">
        <ele>378.757782</ele>
        <time>2014-03-15T14:30:10.726Z</time>
      </trkpt>
      <trkpt lat="47.59648" lon="6.78064">
        <ele>381.233612</ele>
        <time>2014-03-15T14:30:19.727Z</time>
      </trkpt>
      <trkpt lat="47.59665" lon="6.7805">
        <ele>383.076324</ele>
        <time>2014-03-15T14:30:30.726Z</time>
      </trkpt>
      <trkpt lat="47.59682" lon="6.78036">
        <ele>385.013306</ele>
        <time>2014-03-15T14:30:39.726Z</time>
      </trkpt>
      <trkpt lat="47.59698" lon="6.78021">
        <ele>386.349823</ele>
        <time>2014-03-15T14:30:46.726Z</time>
      </trkpt>
      <trkpt lat="47.59715" lon="6.78013">
        <ele>387.984772</ele>
        <time>2014-03-15T14:30:56.726Z</time>
      </trkpt>
      <trkpt lat="47.59733" lon="6.78001">
        <ele>388.904083</ele>
        <time>2014-03-15T14:31:05.742Z</time>
      </trkpt>
      <trkpt lat="47.59749" lon="6.77988">
        <ele>388.138855</ele>
        <time>2014-03-15T14:31:14.736Z</time>
      </trkpt>
      <trkpt lat="47.59762" lon="6.7797">
        <ele>388.425293</ele>
        <time>2014-03-15T14:31:22.727Z</time>
      </trkpt>
      <trkpt lat="47.59777" lon="6.77952">
        <ele>388.988068</ele>
        <time>2014-03-15T14:31:32.727Z</time>
      </trkpt>
      <trkpt lat="47.59791" lon="6.77933">
        <ele>389.445465</ele>
        <time>2014-03-15T14:31:42.731Z</time>
      </trkpt>
      <trkpt lat="47.59792" lon="6.77896">
        <ele>391.107513</ele>
        <time>2014-03-15T14:31:59.718Z</time>
      </trkpt>
      <trkpt lat="47.59792" lon="6.77863">
        <ele>395.88504</ele>
        <time>2014-03-15T14:32:14.716Z</time>
      </trkpt>
      <trkpt lat="47.59796" lon="6.7783">
        <ele>400.294281</ele>
        <time>2014-03-15T14:32:27.713Z</time>
      </trkpt>
      <trkpt lat="47.59802" lon="6.77802">
        <ele>403.180634</ele>
        <time>2014-03-15T14:32:36.716Z</time>
      </trkpt>
      <trkpt lat="47.59784" lon="6.77798">
        <ele>405.468689</ele>
        <time>2014-03-15T14:32:53.716Z</time>
      </trkpt>
      <trkpt lat="47.59779" lon="6.77825">
        <ele>405.036926</ele>
        <time>2014-03-15T14:33:05.717Z</time>
      </trkpt>
      <trkpt lat="47.5977" lon="6.77848">
        <ele>405.011108</ele>
        <time>2014-03-15T14:33:18.717Z</time>
      </trkpt>
      <trkpt lat="47.59754" lon="6.77861">
        <ele>405.100769</ele>
        <time>2014-03-15T14:33:30.717Z</time>
      </trkpt>
      <trkpt lat="47.59739" lon="6.77878">
        <ele>405.896637</ele>
        <time>2014-03-15T14:33:39.714Z</time>
      </trkpt>
      <trkpt lat="47.59722" lon="6.77891">
        <ele>407.911896</ele>
        <time>2014-03-15T14:33:50.717Z</time>
      </trkpt>
      <trkpt lat="47.59704" lon="6.77892">
        <ele>409.829132</ele>
        <time>2014-03-15T14:34:01.718Z</time>
      </trkpt>
      <trkpt lat="47.59684" lon="6.77879">
        <ele>410.426422</ele>
        <time>2014-03-15T14:34:07.789Z</time>
      </trkpt>
      <trkpt lat="47.59666" lon="6.7786">
        <ele>410.673767</ele>
        <time>2014-03-15T14:34:12.721Z</time>
      </trkpt>
      <trkpt lat="47.59646" lon="6.77841">
        <ele>410.657043</ele>
        <time>2014-03-15T14:34:16.722Z</time>
      </trkpt>
      <trkpt lat="47.59641" lon="6.77813">
        <ele>410.761993</ele>
        <time>2014-03-15T14:34:20.718Z</time>
      </trkpt>
      <trkpt lat="47.59659" lon="6.7781">
        <ele>411.034302</ele>
        <time>2014-03-15T14:34:28.717Z</time>
      </trkpt>
      <trkpt lat="47.59674" lon="6.77829">
        <ele>411.215729</ele>
        <time>2014-03-15T14:34:37.719Z</time>
      </trkpt>
      <trkpt lat="47.5969" lon="6.77846">
        <ele>411.225494</ele>
        <time>2014-03-15T14:34:46.718Z</time>
      </trkpt>
      <trkpt lat="47.59708" lon="6.7784">
        <ele>411.108063</ele>
        <time>2014-03-15T14:34:56.737Z</time>
      </trkpt>
      <trkpt lat="47.59708" lon="6.77813">
        <ele>412.425323</ele>
        <time>2014-03-15T14:35:09.722Z</time>
      </trkpt>
      <trkpt lat="47.59703" lon="6.77787">
        <ele>414.007782</ele>
        <time>2014-03-15T14:35:24.718Z</time>
      </trkpt>
      <trkpt lat="47.59699" lon="6.77761">
        <ele>415.582733</ele>
        <time>2014-03-15T14:35:37.741Z</time>
      </trkpt>
      <trkpt lat="47.59695" lon="6.77734">
        <ele>418.341919</ele>
        <time>2014-03-15T14:35:53.718Z</time>
      </trkpt>
      <trkpt lat="47.59691" lon="6.77707">
        <ele>420.303711</ele>
        <time>2014-03-15T14:36:08.718Z</time>
      </trkpt>
      <trkpt lat="47.59689" lon="6.77679">
        <ele>422.815125</ele>
        <time>2014-03-15T14:36:23.720Z</time>
      </trkpt>
      <trkpt lat="47.59684" lon="6.77651">
        <ele>425.254944</ele>
        <time>2014-03-15T14:36:38.723Z</time>
      </trkpt>
      <trkpt lat="47.59679" lon="6.77626">
        <ele>427.17038</ele>
        <time>2014-03-15T14:36:52.722Z</time>
      </trkpt>
      <trkpt lat="47.59675" lon="6.77599">
        <ele>429.918182</ele>
        <time>2014-03-15T14:37:07.724Z</time>
      </trkpt>
      <trkpt lat="47.5967" lon="6.77572">
        <ele>433.473633</ele>
        <time>2014-03-15T14:37:23.724Z</time>
      </trkpt>
      <trkpt lat="47.59664" lon="6.77547">
        <ele>436.882111</ele>
        <time>2014-03-15T14:37:37.746Z</time>
      </trkpt>
      <trkpt lat="47.59658" lon="6.7752">
        <ele>440.523743</ele>
        <time>2014-03-15T14:37:50.723Z</time>
      </trkpt>
      <trkpt lat="47.59651" lon="6.77495">
        <ele>442.612793</ele>
        <time>2014-03-15T14:38:04.725Z</time>
      </trkpt>
      <trkpt lat="47.59647" lon="6.77466">
        <ele>444.389221</ele>
        <time>2014-03-15T14:38:17.727Z</time>
      </trkpt>
      <trkpt lat="47.59644" lon="6.77439">
        <ele>445.969635</ele>
        <time>2014-03-15T14:38:29.725Z</time>
      </trkpt>
      <trkpt lat="47.59638" lon="6.77412">
        <ele>445.912354</ele>
        <time>2014-03-15T14:38:41.742Z</time>
      </trkpt>
      <trkpt lat="47.59632" lon="6.77386">
        <ele>448.078033</ele>
        <time>2014-03-15T14:38:56.723Z</time>
      </trkpt>
      <trkpt lat="47.59632" lon="6.77358">
        <ele>451.100372</ele>
        <time>2014-03-15T14:39:07.723Z</time>
      </trkpt>
      <trkpt lat="47.59635" lon="6.7733">
        <ele>454.08371</ele>
        <time>2014-03-15T14:39:22.722Z</time>
      </trkpt>
      <trkpt lat="47.59639" lon="6.77303">
        <ele>457.435181</ele>
        <time>2014-03-15T14:39:33.723Z</time>
      </trkpt>
      <trkpt lat="47.59636" lon="6.77275">
        <ele>461.899506</ele>
        <time>2014-03-15T14:39:47.727Z</time>
      </trkpt>
      <trkpt lat="47.59635" lon="6.77248">
        <ele>463.92749</ele>
        <time>2014-03-15T14:40:00.740Z</time>
      </trkpt>
      <trkpt lat="47.5964" lon="6.77222">
        <ele>465.623993</ele>
        <time>2014-03-15T14:40:14.752Z</time>
      </trkpt>
      <trkpt lat="47.59647" lon="6.77197">
        <ele>469.748016</ele>
        <time>2014-03-15T14:40:27.742Z</time>
      </trkpt>
      <trkpt lat="47.59644" lon="6.7717">
        <ele>471.567444</ele>
        <time>2014-03-15T14:40:40.723Z</time>
      </trkpt>
      <trkpt lat="47.59643" lon="6.77142">
        <ele>473.381348</ele>
        <time>2014-03-15T14:40:56.724Z</time>
      </trkpt>
      <trkpt lat="47.5964" lon="6.77116">
        <ele>476.316681</ele>
        <time>2014-03-15T14:41:09.722Z</time>
      </trkpt>
      <trkpt lat="47.59641" lon="6.77088">
        <ele>478.562592</ele>
        <time>2014-03-15T14:41:24.731Z</time>
      </trkpt>
      <trkpt lat="47.59643" lon="6.7706">
        <ele>478.761017</ele>
        <time>2014-03-15T14:41:39.724Z</time>
      </trkpt>
      <trkpt lat="47.59656" lon="6.7704">
        <ele>483.323181</ele>
        <time>2014-03-15T14:43:12.724Z</time>
      </trkpt>
      <trkpt lat="47.59674" lon="6.77036">
        <ele>485.898193</ele>
        <time>2014-03-15T14:43:29.727Z</time>
      </trkpt>
      <trkpt lat="47.59693" lon="6.77032">
        <ele>487.119659</ele>
        <time>2014-03-15T14:43:41.723Z</time>
      </trkpt>
      <trkpt lat="47.59711" lon="6.77022">
        <ele>489.056152</ele>
        <time>2014-03-15T14:43:48.725Z</time>
      </trkpt>
      <trkpt lat="47.59725" lon="6.77005">
        <ele>489.998932</ele>
        <time>2014-03-15T14:43:59.723Z</time>
      </trkpt>
      <trkpt lat="47.59735" lon="6.76981">
        <ele>491.479523</ele>
        <time>2014-03-15T14:44:10.723Z</time>
      </trkpt>
      <trkpt lat="47.59736" lon="6.76954">
        <ele>492.664612</ele>
        <time>2014-03-15T14:44:21.731Z</time>
      </trkpt>
      <trkpt lat="47.59731" lon="6.76926">
        <ele>493.821777</ele>
        <time>2014-03-15T14:44:34.734Z</time>
      </trkpt>
      <trkpt lat="47.59728" lon="6.769">
        <ele>494.114929</ele>
        <time>2014-03-15T14:44:45.724Z</time>
      </trkpt>
      <trkpt lat="47.59728" lon="6.76872">
        <ele>495.677551</ele>
        <time>2014-03-15T14:44:59.724Z</time>
      </trkpt>
      <trkpt lat="47.59731" lon="6.76843">
        <ele>496.781738</ele>
        <time>2014-03-15T14:45:15.724Z</time>
      </trkpt>
      <trkpt lat="47.59741" lon="6.7682">
        <ele>498.169952</ele>
        <time>2014-03-15T14:45:24.724Z</time>
      </trkpt>
      <trkpt lat="47.59746" lon="6.76794">
        <ele>501.893799</ele>
        <time>2014-03-15T14:45:38.724Z</time>
      </trkpt>
      <trkpt lat="47.59748" lon="6.76766">
        <ele>506.268951</ele>
        <time>2014-03-15T14:45:54.722Z</time>
      </trkpt>
      <trkpt lat="47.59745" lon="6.7674">
        <ele>510.084717</ele>
        <time>2014-03-15T14:46:12.725Z</time>
      </trkpt>
      <trkpt lat="47.59735" lon="6.76716">
        <ele>511.299683</ele>
        <time>2014-03-15T14:46:29.725Z</time>
      </trkpt>
      <trkpt lat="47.59737" lon="6.76687">
        <ele>511.911285</ele>
        <time>2014-03-15T14:46:42.727Z</time>
      </trkpt>
      <trkpt lat="47.59737" lon="6.7666">
        <ele>512.088623</ele>
        <time>2014-03-15T14:46:59.722Z</time>
      </trkpt>
      <trkpt lat="47.59729" lon="6.76636">
        <ele>512.080139</ele>
        <time>2014-03-15T14:47:08.725Z</time>
      </trkpt>
      <trkpt lat="47.59735" lon="6.7661">
        <ele>514.177673</ele>
        <time>2014-03-15T14:47:19.759Z</time>
      </trkpt>
      <trkpt lat="47.59722" lon="6.76589">
        <ele>514.97876</ele>
        <time>2014-03-15T14:47:34.725Z</time>
      </trkpt>
      <trkpt lat="47.59703" lon="6.76582">
        <ele>515.10614</ele>
        <time>2014-03-15T14:47:42.725Z</time>
      </trkpt>
      <trkpt lat="47.59704" lon="6.76554">
        <ele>516.418396</ele>
        <time>2014-03-15T14:47:52.729Z</time>
      </trkpt>
      <trkpt lat="47.59708" lon="6.76526">
        <ele>518.579468</ele>
        <time>2014-03-15T14:48:03.727Z</time>
      </trkpt>
      <trkpt lat="47.59713" lon="6.76499">
        <ele>521.363403</ele>
        <time>2014-03-15T14:49:39.786Z</time>
      </trkpt>
      <trkpt lat="47.5972" lon="6.76473">
        <ele>523.19574</ele>
        <time>2014-03-15T14:49:48.735Z</time>
      </trkpt>
      <trkpt lat="47.59733" lon="6.76452">
        <ele>524.994629</ele>
        <time>2014-03-15T14:49:57.744Z</time>
      </trkpt>
      <trkpt lat="47.59738" lon="6.76425">
        <ele>526.618286</ele>
        <time>2014-03-15T14:50:07.727Z</time>
      </trkpt>
      <trkpt lat="47.59745" lon="6.76398">
        <ele>527.875793</ele>
        <time>2014-03-15T14:50:16.734Z</time>
      </trkpt>
      <trkpt lat="47.59754" lon="6.76372">
        <ele>529.630005</ele>
        <time>2014-03-15T14:50:25.728Z</time>
      </trkpt>
      <trkpt lat="47.5976" lon="6.76345">
        <ele>530.843262</ele>
        <time>2014-03-15T14:50:33.734Z</time>
      </trkpt>
      <trkpt lat="47.59763" lon="6.76317">
        <ele>530.403992</ele>
        <time>2014-03-15T14:50:40.728Z</time>
      </trkpt>
      <trkpt lat="47.59768" lon="6.7629">
        <ele>530.129272</ele>
        <time>2014-03-15T14:50:47.728Z</time>
      </trkpt>
      <trkpt lat="47.59769" lon="6.76263">
        <ele>530.253662</ele>
        <time>2014-03-15T14:50:51.726Z</time>
      </trkpt>
      <trkpt lat="47.59771" lon="6.76232">
        <ele>530.252808</ele>
        <time>2014-03-15T14:50:58.838Z</time>
      </trkpt>
      <trkpt lat="47.59768" lon="6.76204">
        <ele>530.642395</ele>
        <time>2014-03-15T14:51:05.724Z</time>
      </trkpt>
      <trkpt lat="47.59766" lon="6.76177">
        <ele>530.322449</ele>
        <time>2014-03-15T14:51:14.728Z</time>
      </trkpt>
      <trkpt lat="47.59771" lon="6.7615">
        <ele>529.777832</ele>
        <time>2014-03-15T14:51:22.728Z</time>
      </trkpt>
      <trkpt lat="47.59773" lon="6.76123">
        <ele>528.692993</ele>
        <time>2014-03-15T14:51:31.728Z</time>
      </trkpt>
      <trkpt lat="47.59775" lon="6.76096">
        <ele>528.363403</ele>
        <time>2014-03-15T14:51:40.737Z</time>
      </trkpt>
      <trkpt lat="47.59775" lon="6.76066">
        <ele>528.968384</ele>
        <time>2014-03-15T14:51:49.728Z</time>
      </trkpt>
      <trkpt lat="47.59773" lon="6.76038">
        <ele>529.155029</ele>
        <time>2014-03-15T14:51:55.731Z</time>
      </trkpt>
      <trkpt lat="47.59771" lon="6.7601">
        <ele>530.686768</ele>
        <time>2014-03-15T14:52:06.729Z</time>
      </trkpt>
      <trkpt lat="47.59765" lon="6.75982">
        <ele>532.643372</ele>
        <time>2014-03-15T14:52:18.729Z</time>
      </trkpt>
      <trkpt lat="47.59761" lon="6.75954">
        <ele>533.646301</ele>
        <time>2014-03-15T14:52:27.730Z</time>
      </trkpt>
      <trkpt lat="47.59757" lon="6.75928">
        <ele>534.381226</ele>
        <time>2014-03-15T14:52:34.732Z</time>
      </trkpt>
      <trkpt lat="47.59752" lon="6.75898">
        <ele>535.28949</ele>
        <time>2014-03-15T14:52:41.728Z</time>
      </trkpt>
      <trkpt lat="47.59747" lon="6.7587">
        <ele>536.076782</ele>
        <time>2014-03-15T14:52:47.730Z</time>
      </trkpt>
      <trkpt lat="47.59739" lon="6.75844">
        <ele>537.208801</ele>
        <time>2014-03-15T14:52:53.728Z</time>
      </trkpt>
      <trkpt lat="47.59733" lon="6.75817">
        <ele>537.731384</ele>
        <time>2014-03-15T14:52:57.729Z</time>
      </trkpt>
      <trkpt lat="47.59724" lon="6.75789">
        <ele>537.570007</ele>
        <time>2014-03-15T14:53:01.734Z</time>
      </trkpt>
      <trkpt lat="47.59712" lon="6.75764">
        <ele>536.871704</ele>
        <time>2014-03-15T14:53:06.738Z</time>
      </trkpt>
      <trkpt lat="47.59697" lon="6.75743">
        <ele>536.371094</ele>
        <time>2014-03-15T14:53:11.732Z</time>
      </trkpt>
      <trkpt lat="47.59686" lon="6.75718">
        <ele>535.959778</ele>
        <time>2014-03-15T14:53:17.730Z</time>
      </trkpt>
      <trkpt lat="47.59675" lon="6.75694">
        <ele>535.619507</ele>
        <time>2014-03-15T14:53:23.729Z</time>
      </trkpt>
      <trkpt lat="47.5966" lon="6.75674">
        <ele>535.940002</ele>
        <time>2014-03-15T14:53:30.729Z</time>
      </trkpt>
      <trkpt lat="47.59645" lon="6.75656">
        <ele>536.135376</ele>
        <time>2014-03-15T14:53:35.729Z</time>
      </trkpt>
      <trkpt lat="47.59634" lon="6.75632">
        <ele>534.539429</ele>
        <time>2014-03-15T14:56:49.732Z</time>
      </trkpt>
      <trkpt lat="47.5962" lon="6.75616">
        <ele>534.658203</ele>
        <time>2014-03-15T14:56:58.733Z</time>
      </trkpt>
      <trkpt lat="47.59601" lon="6.7561">
        <ele>534.054199</ele>
        <time>2014-03-15T14:57:07.730Z</time>
      </trkpt>
      <trkpt lat="47.59585" lon="6.75625">
        <ele>533.07312</ele>
        <time>2014-03-15T14:57:13.733Z</time>
      </trkpt>
      <trkpt lat="47.59571" lon="6.75647">
        <ele>532.425049</ele>
        <time>2014-03-15T14:57:17.731Z</time>
      </trkpt>
      <trkpt lat="47.59566" lon="6.75675">
        <ele>531.854065</ele>
        <time>2014-03-15T14:57:22.741Z</time>
      </trkpt>
      <trkpt lat="47.59547" lon="6.75666">
        <ele>530.46875</ele>
        <time>2014-03-15T14:57:30.733Z</time>
      </trkpt>
      <trkpt lat="47.59535" lon="6.75643">
        <ele>529.918396</ele>
        <time>2014-03-15T14:57:34.732Z</time>
      </trkpt>
      <trkpt lat="47.59522" lon="6.75616">
        <ele>529.406067</ele>
        <time>2014-03-15T14:57:39.733Z</time>
      </trkpt>
      <trkpt lat="47.59509" lon="6.75594">
        <ele>528.892822</ele>
        <time>2014-03-15T14:57:45.730Z</time>
      </trkpt>
      <trkpt lat="47.59494" lon="6.75578">
        <ele>528.24231</ele>
        <time>2014-03-15T14:57:50.732Z</time>
      </trkpt>
      <trkpt lat="47.59476" lon="6.75567">
        <ele>526.936157</ele>
        <time>2014-03-15T14:58:03.734Z</time>
      </trkpt>
      <trkpt lat="47.59464" lon="6.75545">
        <ele>526.08728</ele>
        <time>2014-03-15T14:58:25.734Z</time>
      </trkpt>
      <trkpt lat="47.59461" lon="6.75518">
        <ele>525.06958</ele>
        <time>2014-03-15T14:58:34.735Z</time>
      </trkpt>
      <trkpt lat="47.5946" lon="6.75489">
        <ele>525.010864</ele>
        <time>2014-03-15T14:58:42.733Z</time>
      </trkpt>
      <trkpt lat="47.59452" lon="6.75463">
        <ele>525.417358</ele>
        <time>2014-03-15T14:58:56.730Z</time>
      </trkpt>
      <trkpt lat="47.59435" lon="6.75479">
        <ele>525.675232</ele>
        <time>2014-03-15T14:59:03.733Z</time>
      </trkpt>
      <trkpt lat="47.59421" lon="6.75498">
        <ele>525.299927</ele>
        <time>2014-03-15T14:59:07.735Z</time>
      </trkpt>
      <trkpt lat="47.59403" lon="6.7549">
        <ele>524.109131</ele>
        <time>2014-03-15T14:59:15.733Z</time>
      </trkpt>
      <trkpt lat="47.59393" lon="6.75464">
        <ele>523.541199</ele>
        <time>2014-03-15T14:59:20.733Z</time>
      </trkpt>
      <trkpt lat="47.59376" lon="6.75444">
        <ele>522.543579</ele>
        <time>2014-03-15T14:59:24.733Z</time>
      </trkpt>
      <trkpt lat="47.59358" lon="6.75442">
        <ele>521.655701</ele>
        <time>2014-03-15T14:59:30.733Z</time>
      </trkpt>
      <trkpt lat="47.59341" lon="6.75429">
        <ele>519.64093</ele>
        <time>2014-03-15T14:59:40.735Z</time>
      </trkpt>
      <trkpt lat="47.59327" lon="6.75412">
        <ele>516.04303</ele>
        <time>2014-03-15T14:59:57.735Z</time>
      </trkpt>
      <trkpt lat="47.59318" lon="6.75386">
        <ele>514.146057</ele>
        <time>2014-03-15T15:00:04.736Z</time>
      </trkpt>
      <trkpt lat="47.59299" lon="6.75387">
        <ele>512.806396</ele>
        <time>2014-03-15T15:00:12.734Z</time>
      </trkpt>
      <trkpt lat="47.59281" lon="6.75398">
        <ele>512.112427</ele>
        <time>2014-03-15T15:00:19.734Z</time>
      </trkpt>
      <trkpt lat="47.59262" lon="6.75385">
        <ele>511.681641</ele>
        <time>2014-03-15T15:00:26.734Z</time>
      </trkpt>
      <trkpt lat="47.59244" lon="6.75388">
        <ele>510.401154</ele>
        <time>2014-03-15T15:00:33.733Z</time>
      </trkpt>
      <trkpt lat="47.59224" lon="6.7538">
        <ele>509.323456</ele>
        <time>2014-03-15T15:00:42.734Z</time>
      </trkpt>
      <trkpt lat="47.59204" lon="6.75377">
        <ele>508.219696</ele>
        <time>2014-03-15T15:00:47.736Z</time>
      </trkpt>
      <trkpt lat="47.59187" lon="6.75369">
        <ele>506.084534</ele>
        <time>2014-03-15T15:00:55.753Z</time>
      </trkpt>
      <trkpt lat="47.5917" lon="6.75356">
        <ele>504.294708</ele>
        <time>2014-03-15T15:01:01.733Z</time>
      </trkpt>
      <trkpt lat="47.5915" lon="6.75354">
        <ele>501.553741</ele>
        <time>2014-03-15T15:01:08.734Z</time>
      </trkpt>
      <trkpt lat="47.59131" lon="6.75365">
        <ele>498.754425</ele>
        <time>2014-03-15T15:01:14.746Z</time>
      </trkpt>
      <trkpt lat="47.59113" lon="6.7537">
        <ele>496.302948</ele>
        <time>2014-03-15T15:01:19.735Z</time>
      </trkpt>
      <trkpt lat="47.59092" lon="6.75372">
        <ele>494.730408</ele>
        <time>2014-03-15T15:01:23.736Z</time>
      </trkpt>
      <trkpt lat="47.59075" lon="6.75381">
        <ele>491.865845</ele>
        <time>2014-03-15T15:01:30.735Z</time>
      </trkpt>
      <trkpt lat="47.59053" lon="6.75378">
        <ele>486.590027</ele>
        <time>2014-03-15T15:01:39.736Z</time>
      </trkpt>
      <trkpt lat="47.59036" lon="6.75366">
        <ele>484.613464</ele>
        <time>2014-03-15T15:01:43.735Z</time>
      </trkpt>
      <trkpt lat="47.59021" lon="6.75346">
        <ele>480.565491</ele>
        <time>2014-03-15T15:01:50.735Z</time>
      </trkpt>
      <trkpt lat="47.59012" lon="6.75316">
        <ele>477.709778</ele>
        <time>2014-03-15T15:01:55.734Z</time>
      </trkpt>
      <trkpt lat="47.59006" lon="6.75288">
        <ele>475.46991</ele>
        <time>2014-03-15T15:01:59.735Z</time>
      </trkpt>
      <trkpt lat="47.58983" lon="6.7528">
        <ele>473.379974</ele>
        <time>2014-03-15T15:02:03.765Z</time>
      </trkpt>
      <trkpt lat="47.58978" lon="6.75252">
        <ele>470.032043</ele>
        <time>2014-03-15T15:02:10.737Z</time>
      </trkpt>
      <trkpt lat="47.58973" lon="6.75224">
        <ele>466.762543</ele>
        <time>2014-03-15T15:02:17.736Z</time>
      </trkpt>
      <trkpt lat="47.58955" lon="6.75207">
        <ele>463.36676</ele>
        <time>2014-03-15T15:02:23.737Z</time>
      </trkpt>
      <trkpt lat="47.58941" lon="6.75186">
        <ele>461.04425</ele>
        <time>2014-03-15T15:02:28.737Z</time>
      </trkpt>
      <trkpt lat="47.58926" lon="6.75165">
        <ele>459.293427</ele>
        <time>2014-03-15T15:02:32.737Z</time>
      </trkpt>
      <trkpt lat="47.58908" lon="6.7516">
        <ele>457.553741</ele>
        <time>2014-03-15T15:02:36.739Z</time>
      </trkpt>
      <trkpt lat="47.58888" lon="6.75151">
        <ele>455.79425</ele>
        <time>2014-03-15T15:02:41.737Z</time>
      </trkpt>
      <trkpt lat="47.5887" lon="6.75137">
        <ele>453.806549</ele>
        <time>2014-03-15T15:02:45.739Z</time>
      </trkpt>
      <trkpt lat="47.58853" lon="6.7512">
        <ele>451.8508</ele>
        <time>2014-03-15T15:02:49.737Z</time>
      </trkpt>
      <trkpt lat="47.58843" lon="6.75095">
        <ele>449.540222</ele>
        <time>2014-03-15T15:02:54.738Z</time>
      </trkpt>
      <trkpt lat="47.5883" lon="6.75074">
        <ele>445.512817</ele>
        <time>2014-03-15T15:03:03.737Z</time>
      </trkpt>
      <trkpt lat="47.58827" lon="6.75047">
        <ele>444.124878</ele>
        <time>2014-03-15T15:03:07.737Z</time>
      </trkpt>
      <trkpt lat="47.58815" lon="6.75023">
        <ele>441.473724</ele>
        <time>2014-03-15T15:03:13.739Z</time>
      </trkpt>
      <trkpt lat="47.58802" lon="6.75002">
        <ele>439.025635</ele>
        <time>2014-03-15T15:03:18.733Z</time>
      </trkpt>
      <trkpt lat="47.58786" lon="6.74981">
        <ele>437.510376</ele>
        <time>2014-03-15T15:03:22.739Z</time>
      </trkpt>
      <trkpt lat="47.58773" lon="6.74961">
        <ele>435.330536</ele>
        <time>2014-03-15T15:03:27.737Z</time>
      </trkpt>
      <trkpt lat="47.58759" lon="6.7494">
        <ele>429.530212</ele>
        <time>2014-03-15T15:03:41.735Z</time>
      </trkpt>
      <trkpt lat="47.58756" lon="6.7491">
        <ele>427.812744</ele>
        <time>2014-03-15T15:03:47.737Z</time>
      </trkpt>
      <trkpt lat="47.58753" lon="6.74883">
        <ele>425.53595</ele>
        <time>2014-03-15T15:03:53.738Z</time>
      </trkpt>
      <trkpt lat="47.58742" lon="6.74862">
        <ele>420.735565</ele>
        <time>2014-03-15T15:04:03.738Z</time>
      </trkpt>
      <trkpt lat="47.58739" lon="6.74834">
        <ele>405.867279</ele>
        <time>2014-03-15T15:05:14.738Z</time>
      </trkpt>
      <trkpt lat="47.58719" lon="6.74823">
        <ele>406.395813</ele>
        <time>2014-03-15T15:05:21.739Z</time>
      </trkpt>
      <trkpt lat="47.58698" lon="6.7482">
        <ele>406.139252</ele>
        <time>2014-03-15T15:05:30.740Z</time>
      </trkpt>
      <trkpt lat="47.58679" lon="6.74816">
        <ele>405.502045</ele>
        <time>2014-03-15T15:05:37.739Z</time>
      </trkpt>
      <trkpt lat="47.58661" lon="6.74812">
        <ele>404.738312</ele>
        <time>2014-03-15T15:05:40.738Z</time>
      </trkpt>
      <trkpt lat="47.58641" lon="6.7481">
        <ele>402.803162</ele>
        <time>2014-03-15T15:05:46.739Z</time>
      </trkpt>
      <trkpt lat="47.58627" lon="6.74836">
        <ele>401.39151</ele>
        <time>2014-03-15T15:05:51.738Z</time>
      </trkpt>
      <trkpt lat="47.58609" lon="6.74836">
        <ele>398.986694</ele>
        <time>2014-03-15T15:05:57.738Z</time>
      </trkpt>
      <trkpt lat="47.58591" lon="6.74828">
        <ele>393.773071</ele>
        <time>2014-03-15T15:06:07.738Z</time>
      </trkpt>
      <trkpt lat="47.58581" lon="6.74805">
        <ele>374.658112</ele>
        <time>2014-03-15T15:06:52.752Z</time>
      </trkpt>
      <trkpt lat="47.58575" lon="6.74776">
        <ele>364.263153</ele>
        <time>2014-03-15T15:07:47.739Z</time>
      </trkpt>
      <trkpt lat="47.58564" lon="6.74754">
        <ele>363.572906</ele>
        <time>2014-03-15T15:07:57.739Z</time>
      </trkpt>
      <trkpt lat="47.58552" lon="6.74732">
        <ele>363.351624</ele>
        <time>2014-03-15T15:08:07.739Z</time>
      </trkpt>
      <trkpt lat="47.58536" lon="6.74718">
        <ele>363.275421</ele>
        <time>2014-03-15T15:08:15.739Z</time>
      </trkpt>
      <trkpt lat="47.58528" lon="6.74688">
        <ele>363.099945</ele>
        <time>2014-03-15T15:08:21.739Z</time>
      </trkpt>
      <trkpt lat="47.58529" lon="6.74654">
        <ele>362.932434</ele>
        <time>2014-03-15T15:08:25.740Z</time>
      </trkpt>
      <trkpt lat="47.58529" lon="6.74626">
        <ele>362.791351</ele>
        <time>2014-03-15T15:08:28.745Z</time>
      </trkpt>
      <trkpt lat="47.58529" lon="6.74597">
        <ele>362.610992</ele>
        <time>2014-03-15T15:08:31.739Z</time>
      </trkpt>
      <trkpt lat="47.58529" lon="6.74567">
        <ele>362.336609</ele>
        <time>2014-03-15T15:08:34.764Z</time>
      </trkpt>
      <trkpt lat="47.58529" lon="6.74537">
        <ele>361.953644</ele>
        <time>2014-03-15T15:08:37.765Z</time>
      </trkpt>
      <trkpt lat="47.58531" lon="6.74507">
        <ele>361.429779</ele>
        <time>2014-03-15T15:08:40.762Z</time>
      </trkpt>
      <trkpt lat="47.58534" lon="6.74479">
        <ele>361.008484</ele>
        <time>2014-03-15T15:08:43.758Z</time>
      </trkpt>
      <trkpt lat="47.58535" lon="6.74446">
        <ele>360.326904</ele>
        <time>2014-03-15T15:08:46.762Z</time>
      </trkpt>
      <trkpt lat="47.58538" lon="6.74413">
        <ele>359.776855</ele>
        <time>2014-03-15T15:08:49.758Z</time>
      </trkpt>
      <trkpt lat="47.58542" lon="6.74378">
        <ele>358.905334</ele>
        <time>2014-03-15T15:08:52.757Z</time>
      </trkpt>
      <trkpt lat="47.58548" lon="6.74336">
        <ele>357.910492</ele>
        <time>2014-03-15T15:08:55.757Z</time>
      </trkpt>
      <trkpt lat="47.58561" lon="6.74286">
        <ele>356.674774</ele>
        <time>2014-03-15T15:08:58.755Z</time>
      </trkpt>
      <trkpt lat="47.58573" lon="6.74245">
        <ele>355.204529</ele>
        <time>2014-03-15T15:09:01.777Z</time>
      </trkpt>
      <trkpt lat="47.58559" lon="6.74228">
        <ele>347.947357</ele>
        <time>2014-03-15T15:09:14.789Z</time>
      </trkpt>
      <trkpt lat="47.58529" lon="6.74216">
        <ele>342.151428</ele>
        <time>2014-03-15T15:09:26.742Z</time>
      </trkpt>
      <trkpt lat="47.58512" lon="6.74202">
        <ele>338.085358</ele>
        <time>2014-03-15T15:09:36.743Z</time>
      </trkpt>
      <trkpt lat="47.58527" lon="6.74186">
        <ele>333.013702</ele>
        <time>2014-03-15T15:10:01.740Z</time>
      </trkpt>
      <trkpt lat="47.58533" lon="6.7416">
        <ele>333.819855</ele>
        <time>2014-03-15T15:10:09.741Z</time>
      </trkpt>
      <trkpt lat="47.58539" lon="6.7413">
        <ele>334.331818</ele>
        <time>2014-03-15T15:10:15.745Z</time>
      </trkpt>
      <trkpt lat="47.58545" lon="6.74102">
        <ele>334.41687</ele>
        <time>2014-03-15T15:10:20.757Z</time>
      </trkpt>
      <trkpt lat="47.58552" lon="6.74076">
        <ele>334.396271</ele>
        <time>2014-03-15T15:10:25.745Z</time>
      </trkpt>
      <trkpt lat="47.58557" lon="6.7405">
        <ele>334.496735</ele>
        <time>2014-03-15T15:10:32.740Z</time>
      </trkpt>
      <trkpt lat="47.58559" lon="6.74021">
        <ele>334.660706</ele>
        <time>2014-03-15T15:10:39.742Z</time>
      </trkpt>
      <trkpt lat="47.58569" lon="6.73999">
        <ele>336.116882</ele>
        <time>2014-03-15T15:11:21.743Z</time>
      </trkpt>
      <trkpt lat="47.5858" lon="6.73973">
        <ele>336.901733</ele>
        <time>2014-03-15T15:11:32.752Z</time>
      </trkpt>
      <trkpt lat="47.58591" lon="6.73947">
        <ele>337.124268</ele>
        <time>2014-03-15T15:11:36.758Z</time>
      </trkpt>
      <trkpt lat="47.586" lon="6.7392">
        <ele>337.40036</ele>
        <time>2014-03-15T15:11:41.750Z</time>
      </trkpt>
      <trkpt lat="47.58607" lon="6.73895">
        <ele>337.511139</ele>
        <time>2014-03-15T15:11:46.762Z</time>
      </trkpt>
      <trkpt lat="47.58615" lon="6.73867">
        <ele>337.66806</ele>
        <time>2014-03-15T15:11:51.743Z</time>
      </trkpt>
      <trkpt lat="47.58621" lon="6.73841">
        <ele>337.525574</ele>
        <time>2014-03-15T15:11:55.758Z</time>
      </trkpt>
      <trkpt lat="47.58629" lon="6.73814">
        <ele>337.41687</ele>
        <time>2014-03-15T15:12:01.756Z</time>
      </trkpt>
      <trkpt lat="47.58636" lon="6.73788">
        <ele>337.316193</ele>
        <time>2014-03-15T15:12:06.751Z</time>
      </trkpt>
      <trkpt lat="47.58644" lon="6.73763">
        <ele>336.900757</ele>
        <time>2014-03-15T15:12:11.741Z</time>
      </trkpt>
      <trkpt lat="47.58652" lon="6.73734">
        <ele>336.803345</ele>
        <time>2014-03-15T15:12:15.748Z</time>
      </trkpt>
      <trkpt lat="47.58662" lon="6.7371">
        <ele>336.926819</ele>
        <time>2014-03-15T15:12:19.751Z</time>
      </trkpt>
      <trkpt lat="47.58673" lon="6.73686">
        <ele>336.696716</ele>
        <time>2014-03-15T15:12:23.756Z</time>
      </trkpt>
      <trkpt lat="47.58685" lon="6.73659">
        <ele>336.451721</ele>
        <time>2014-03-15T15:12:28.750Z</time>
      </trkpt>
      <trkpt lat="47.58698" lon="6.73634">
        <ele>336.093658</ele>
        <time>2014-03-15T15:12:33.738Z</time>
      </trkpt>
      <trkpt lat="47.58685" lon="6.73613">
        <ele>335.368042</ele>
        <time>2014-03-15T15:12:43.742Z</time>
      </trkpt>
      <trkpt lat="47.58667" lon="6.73615">
        <ele>335.127228</ele>
        <time>2014-03-15T15:12:48.742Z</time>
      </trkpt>
      <trkpt lat="47.58645" lon="6.73621">
        <ele>335.137299</ele>
        <time>2014-03-15T15:12:53.745Z</time>
      </trkpt>
      <trkpt lat="47.58627" lon="6.73627">
        <ele>335.052399</ele>
        <time>2014-03-15T15:12:57.743Z</time>
      </trkpt>
      <trkpt lat="47.58606" lon="6.73631">
        <ele>335.288116</ele>
        <time>2014-03-15T15:13:02.740Z</time>
      </trkpt>
      <trkpt lat="47.58586" lon="6.73634">
        <ele>334.941376</ele>
        <time>2014-03-15T15:13:07.756Z</time>
      </trkpt>
      <trkpt lat="47.58565" lon="6.73639">
        <ele>335.05188</ele>
        <time>2014-03-15T15:13:11.762Z</time>
      </trkpt>
      <trkpt lat="47.58546" lon="6.73644">
        <ele>335.223633</ele>
        <time>2014-03-15T15:13:16.745Z</time>
      </trkpt>
      <trkpt lat="47.58528" lon="6.73654">
        <ele>335.687683</ele>
        <time>2014-03-15T15:13:23.742Z</time>
      </trkpt>
      <trkpt lat="47.58519" lon="6.7368">
        <ele>335.663391</ele>
        <time>2014-03-15T15:13:30.742Z</time>
      </trkpt>
      <trkpt lat="47.58512" lon="6.73711">
        <ele>335.19632</ele>
        <time>2014-03-15T15:13:36.763Z</time>
      </trkpt>
      <trkpt lat="47.58506" lon="6.73739">
        <ele>335.337891</ele>
        <time>2014-03-15T15:13:41.740Z</time>
      </trkpt>
      <trkpt lat="47.58495" lon="6.73761">
        <ele>335.82074</ele>
        <time>2014-03-15T15:13:47.744Z</time>
      </trkpt>
      <trkpt lat="47.58484" lon="6.73788">
        <ele>335.927216</ele>
        <time>2014-03-15T15:13:53.745Z</time>
      </trkpt>
      <trkpt lat="47.58476" lon="6.73817">
        <ele>335.787506</ele>
        <time>2014-03-15T15:14:00.742Z</time>
      </trkpt>
      <trkpt lat="47.58478" lon="6.73844">
        <ele>335.850952</ele>
        <time>2014-03-15T15:14:05.745Z</time>
      </trkpt>
      <trkpt lat="47.58485" lon="6.7387">
        <ele>336.455231</ele>
        <time>2014-03-15T15:14:10.743Z</time>
      </trkpt>
      <trkpt lat="47.58484" lon="6.739">
        <ele>336.29953</ele>
        <time>2014-03-15T15:14:15.747Z</time>
      </trkpt>
      <trkpt lat="47.5848" lon="6.73926">
        <ele>335.825958</ele>
        <time>2014-03-15T15:14:19.745Z</time>
      </trkpt>
      <trkpt lat="47.58478" lon="6.73957">
        <ele>335.3591</ele>
        <time>2014-03-15T15:14:23.744Z</time>
      </trkpt>
      <trkpt lat="47.58474" lon="6.73987">
        <ele>335.145569</ele>
        <time>2014-03-15T15:14:27.745Z</time>
      </trkpt>
      <trkpt lat="47.58479" lon="6.74014">
        <ele>336.607697</ele>
        <time>2014-03-15T15:14:36.745Z</time>
      </trkpt>
      <trkpt lat="47.58461" lon="6.74006">
        <ele>342.026245</ele>
        <time>2014-03-15T15:15:17.745Z</time>
      </trkpt>
      <trkpt lat="47.58446" lon="6.73989">
        <ele>347.486176</ele>
        <time>2014-03-15T15:15:43.747Z</time>
      </trkpt>
      <trkpt lat="47.58437" lon="6.73966">
        <ele>349.759644</ele>
        <time>2014-03-15T15:16:10.744Z</time>
      </trkpt>
      <trkpt lat="47.58427" lon="6.73945">
        <ele>355.513702</ele>
        <time>2014-03-15T15:17:00.747Z</time>
      </trkpt>
      <trkpt lat="47.58411" lon="6.73932">
        <ele>356.533722</ele>
        <time>2014-03-15T15:17:24.747Z</time>
      </trkpt>
      <trkpt lat="47.58396" lon="6.7395">
        <ele>359.249573</ele>
        <time>2014-03-15T15:17:48.748Z</time>
      </trkpt>
      <trkpt lat="47.58382" lon="6.73965">
        <ele>365.9534</ele>
        <time>2014-03-15T15:21:36.751Z</time>
      </trkpt>
      <trkpt lat="47.58365" lon="6.73977">
        <ele>364.544067</ele>
        <time>2014-03-15T15:21:46.752Z</time>
      </trkpt>
      <trkpt lat="47.58348" lon="6.73986">
        <ele>363.901001</ele>
        <time>2014-03-15T15:21:55.750Z</time>
      </trkpt>
      <trkpt lat="47.5833" lon="6.73996">
        <ele>363.421631</ele>
        <time>2014-03-15T15:22:02.752Z</time>
      </trkpt>
      <trkpt lat="47.58315" lon="6.7398">
        <ele>363.262909</ele>
        <time>2014-03-15T15:22:10.755Z</time>
      </trkpt>
      <trkpt lat="47.5831" lon="6.73952">
        <ele>361.939972</ele>
        <time>2014-03-15T15:22:17.750Z</time>
      </trkpt>
      <trkpt lat="47.58305" lon="6.73923">
        <ele>360.508972</ele>
        <time>2014-03-15T15:22:24.754Z</time>
      </trkpt>
      <trkpt lat="47.58302" lon="6.73895">
        <ele>359.974884</ele>
        <time>2014-03-15T15:22:30.762Z</time>
      </trkpt>
      <trkpt lat="47.58305" lon="6.73866">
        <ele>359.519745</ele>
        <time>2014-03-15T15:22:36.761Z</time>
      </trkpt>
      <trkpt lat="47.58309" lon="6.7384">
        <ele>358.892029</ele>
        <time>2014-03-15T15:22:42.763Z</time>
      </trkpt>
      <trkpt lat="47.5832" lon="6.73816">
        <ele>358.335876</ele>
        <time>2014-03-15T15:22:47.763Z</time>
      </trkpt>
      <trkpt lat="47.58335" lon="6.73793">
        <ele>358.121857</ele>
        <time>2014-03-15T15:22:53.763Z</time>
      </trkpt>
      <trkpt lat="47.58349" lon="6.73767">
        <ele>357.607544</ele>
        <time>2014-03-15T15:22:58.765Z</time>
      </trkpt>
      <trkpt lat="47.58359" lon="6.73742">
        <ele>356.944092</ele>
        <time>2014-03-15T15:23:02.756Z</time>
      </trkpt>
      <trkpt lat="47.58371" lon="6.73717">
        <ele>355.536957</ele>
        <time>2014-03-15T15:23:08.752Z</time>
      </trkpt>
      <trkpt lat="47.58372" lon="6.73684">
        <ele>354.72049</ele>
        <time>2014-03-15T15:23:12.754Z</time>
      </trkpt>
      <trkpt lat="47.58373" lon="6.73656">
        <ele>353.259003</ele>
        <time>2014-03-15T15:23:20.764Z</time>
      </trkpt>
      <trkpt lat="47.58354" lon="6.73657">
        <ele>351.492401</ele>
        <time>2014-03-15T15:23:37.751Z</time>
      </trkpt>
      <trkpt lat="47.58337" lon="6.73668">
        <ele>350.784912</ele>
        <time>2014-03-15T15:23:43.760Z</time>
      </trkpt>
      <trkpt lat="47.58323" lon="6.73685">
        <ele>349.814484</ele>
        <time>2014-03-15T15:23:49.764Z</time>
      </trkpt>
      <trkpt lat="47.58306" lon="6.73704">
        <ele>348.395355</ele>
        <time>2014-03-15T15:23:55.764Z</time>
      </trkpt>
      <trkpt lat="47.58289" lon="6.73719">
        <ele>347.812683</ele>
        <time>2014-03-15T15:24:00.748Z</time>
      </trkpt>
      <trkpt lat="47.58272" lon="6.73727">
        <ele>347.631622</ele>
        <time>2014-03-15T15:24:04.752Z</time>
      </trkpt>
      <trkpt lat="47.58254" lon="6.73721">
        <ele>347.611511</ele>
        <time>2014-03-15T15:24:08.753Z</time>
      </trkpt>
      <trkpt lat="47.58233" lon="6.73724">
        <ele>347.484192</ele>
        <time>2014-03-15T15:24:13.768Z</time>
      </trkpt>
      <trkpt lat="47.58215" lon="6.73717">
        <ele>347.261475</ele>
        <time>2014-03-15T15:24:17.751Z</time>
      </trkpt>
      <trkpt lat="47.58198" lon="6.73697">
        <ele>347.091919</ele>
        <time>2014-03-15T15:24:21.757Z</time>
      </trkpt>
      <trkpt lat="47.5818" lon="6.73679">
        <ele>347.0755</ele>
        <time>2014-03-15T15:24:25.754Z</time>
      </trkpt>
      <trkpt lat="47.58165" lon="6.73663">
        <ele>346.894958</ele>
        <time>2014-03-15T15:24:29.759Z</time>
      </trkpt>
      <trkpt lat="47.58148" lon="6.73644">
        <ele>346.447144</ele>
        <time>2014-03-15T15:24:34.754Z</time>
      </trkpt>
      <trkpt lat="47.58131" lon="6.73629">
        <ele>346.308167</ele>
        <time>2014-03-15T15:24:39.754Z</time>
      </trkpt>
      <trkpt lat="47.58112" lon="6.73616">
        <ele>346.535492</ele>
        <time>2014-03-15T15:24:44.756Z</time>
      </trkpt>
      <trkpt lat="47.58094" lon="6.73607">
        <ele>346.850342</ele>
        <time>2014-03-15T15:24:49.755Z</time>
      </trkpt>
      <trkpt lat="47.58076" lon="6.73599">
        <ele>347.154694</ele>
        <time>2014-03-15T15:24:54.756Z</time>
      </trkpt>
      <trkpt lat="47.58058" lon="6.73589">
        <ele>347.646362</ele>
        <time>2014-03-15T15:25:02.755Z</time>
      </trkpt>
      <trkpt lat="47.58038" lon="6.7358">
        <ele>347.909119</ele>
        <time>2014-03-15T15:25:12.755Z</time>
      </trkpt>
      <trkpt lat="47.58019" lon="6.73572">
        <ele>347.935516</ele>
        <time>2014-03-15T15:25:17.754Z</time>
      </trkpt>
      <trkpt lat="47.58001" lon="6.73572">
        <ele>347.322296</ele>
        <time>2014-03-15T15:25:32.756Z</time>
      </trkpt>
      <trkpt lat="47.5798" lon="6.73574">
        <ele>347.209717</ele>
        <time>2014-03-15T15:25:38.755Z</time>
      </trkpt>
      <trkpt lat="47.57962" lon="6.73579">
        <ele>347.071991</ele>
        <time>2014-03-15T15:25:43.754Z</time>
      </trkpt>
      <trkpt lat="47.57943" lon="6.73587">
        <ele>346.824982</ele>
        <time>2014-03-15T15:25:48.754Z</time>
      </trkpt>
      <trkpt lat="47.57924" lon="6.73594">
        <ele>346.6828</ele>
        <time>2014-03-15T15:25:53.754Z</time>
      </trkpt>
      <trkpt lat="47.57905" lon="6.73602">
        <ele>346.576569</ele>
        <time>2014-03-15T15:25:58.749Z</time>
      </trkpt>
      <trkpt lat="47.57888" lon="6.7361">
        <ele>346.514832</ele>
        <time>2014-03-15T15:26:03.757Z</time>
      </trkpt>
      <trkpt lat="47.57871" lon="6.73619">
        <ele>346.497192</ele>
        <time>2014-03-15T15:26:08.751Z</time>
      </trkpt>
      <trkpt lat="47.57851" lon="6.73629">
        <ele>346.602936</ele>
        <time>2014-03-15T15:26:14.756Z</time>
      </trkpt>
      <trkpt lat="47.57832" lon="6.73637">
        <ele>346.788361</ele>
        <time>2014-03-15T15:26:20.756Z</time>
      </trkpt>
      <trkpt lat="47.57812" lon="6.73645">
        <ele>347.402496</ele>
        <time>2014-03-15T15:26:26.757Z</time>
      </trkpt>
      <trkpt lat="47.57794" lon="6.73654">
        <ele>347.914307</ele>
        <time>2014-03-15T15:26:32.764Z</time>
      </trkpt>
      <trkpt lat="47.57775" lon="6.73664">
        <ele>348.243011</ele>
        <time>2014-03-15T15:26:38.764Z</time>
      </trkpt>
      <trkpt lat="47.57756" lon="6.73673">
        <ele>348.573761</ele>
        <time>2014-03-15T15:26:44.765Z</time>
      </trkpt>
      <trkpt lat="47.57735" lon="6.73681">
        <ele>348.910614</ele>
        <time>2014-03-15T15:26:50.755Z</time>
      </trkpt>
      <trkpt lat="47.57718" lon="6.73687">
        <ele>349.189209</ele>
        <time>2014-03-15T15:26:55.752Z</time>
      </trkpt>
      <trkpt lat="47.57697" lon="6.73692">
        <ele>349.480988</ele>
        <time>2014-03-15T15:27:01.756Z</time>
      </trkpt>
      <trkpt lat="47.57675" lon="6.73691">
        <ele>349.657349</ele>
        <time>2014-03-15T15:27:06.755Z</time>
      </trkpt>
      <trkpt lat="47.57654" lon="6.73683">
        <ele>349.767242</ele>
        <time>2014-03-15T15:27:10.756Z</time>
      </trkpt>
      <trkpt lat="47.57636" lon="6.73675">
        <ele>349.754333</ele>
        <time>2014-03-15T15:27:13.765Z</time>
      </trkpt>
      <trkpt lat="47.57618" lon="6.73666">
        <ele>349.727203</ele>
        <time>2014-03-15T15:27:16.760Z</time>
      </trkpt>
      <trkpt lat="47.576" lon="6.73656">
        <ele>349.639374</ele>
        <time>2014-03-15T15:27:19.763Z</time>
      </trkpt>
      <trkpt lat="47.57581" lon="6.73643">
        <ele>349.461548</ele>
        <time>2014-03-15T15:27:22.780Z</time>
      </trkpt>
      <trkpt lat="47.57566" lon="6.73624">
        <ele>349.352753</ele>
        <time>2014-03-15T15:27:25.772Z</time>
      </trkpt>
      <trkpt lat="47.57551" lon="6.73599">
        <ele>348.944489</ele>
        <time>2014-03-15T15:27:29.760Z</time>
      </trkpt>
      <trkpt lat="47.57538" lon="6.73572">
        <ele>348.744049</ele>
        <time>2014-03-15T15:27:33.773Z</time>
      </trkpt>
      <trkpt lat="47.57525" lon="6.73547">
        <ele>348.468201</ele>
        <time>2014-03-15T15:27:37.756Z</time>
      </trkpt>
      <trkpt lat="47.57514" lon="6.73525">
        <ele>348.061768</ele>
        <time>2014-03-15T15:27:41.774Z</time>
      </trkpt>
      <trkpt lat="47.57501" lon="6.73502">
        <ele>347.634064</ele>
        <time>2014-03-15T15:27:46.786Z</time>
      </trkpt>
      <trkpt lat="47.57488" lon="6.73482">
        <ele>347.271027</ele>
        <time>2014-03-15T15:27:50.773Z</time>
      </trkpt>
      <trkpt lat="47.57468" lon="6.73466">
        <ele>346.845032</ele>
        <time>2014-03-15T15:27:55.774Z</time>
      </trkpt>
      <trkpt lat="47.57451" lon="6.73458">
        <ele>346.445404</ele>
        <time>2014-03-15T15:27:59.758Z</time>
      </trkpt>
      <trkpt lat="47.5743" lon="6.73452">
        <ele>345.832214</ele>
        <time>2014-03-15T15:28:04.765Z</time>
      </trkpt>
      <trkpt lat="47.57413" lon="6.73446">
        <ele>345.36911</ele>
        <time>2014-03-15T15:28:08.772Z</time>
      </trkpt>
      <trkpt lat="47.57393" lon="6.73441">
        <ele>344.983154</ele>
        <time>2014-03-15T15:28:13.764Z</time>
      </trkpt>
      <trkpt lat="47.57375" lon="6.73434">
        <ele>344.620819</ele>
        <time>2014-03-15T15:28:18.757Z</time>
      </trkpt>
      <trkpt lat="47.57357" lon="6.73423">
        <ele>344.406799</ele>
        <time>2014-03-15T15:28:24.759Z</time>
      </trkpt>
      <trkpt lat="47.57341" lon="6.73408">
        <ele>344.737488</ele>
        <time>2014-03-15T15:28:30.759Z</time>
      </trkpt>
      <trkpt lat="47.57319" lon="6.73397">
        <ele>345.005951</ele>
        <time>2014-03-15T15:28:35.775Z</time>
      </trkpt>
      <trkpt lat="47.57301" lon="6.73387">
        <ele>345.039764</ele>
        <time>2014-03-15T15:28:39.759Z</time>
      </trkpt>
      <trkpt lat="47.57282" lon="6.73385">
        <ele>344.91452</ele>
        <time>2014-03-15T15:28:44.771Z</time>
      </trkpt>
      <trkpt lat="47.57262" lon="6.73394">
        <ele>344.739838</ele>
        <time>2014-03-15T15:28:48.759Z</time>
      </trkpt>
      <trkpt lat="47.57242" lon="6.73404">
        <ele>344.56369</ele>
        <time>2014-03-15T15:28:53.757Z</time>
      </trkpt>
      <trkpt lat="47.57221" lon="6.73418">
        <ele>344.027527</ele>
        <time>2014-03-15T15:28:58.776Z</time>
      </trkpt>
      <trkpt lat="47.57208" lon="6.73438">
        <ele>343.983887</ele>
        <time>2014-03-15T15:29:02.772Z</time>
      </trkpt>
      <trkpt lat="47.57195" lon="6.73459">
        <ele>343.607452</ele>
        <time>2014-03-15T15:29:07.773Z</time>
      </trkpt>
      <trkpt lat="47.57179" lon="6.73479">
        <ele>343.349457</ele>
        <time>2014-03-15T15:29:12.775Z</time>
      </trkpt>
      <trkpt lat="47.57162" lon="6.73497">
        <ele>343.128937</ele>
        <time>2014-03-15T15:29:16.764Z</time>
      </trkpt>
      <trkpt lat="47.57143" lon="6.73508">
        <ele>343.290436</ele>
        <time>2014-03-15T15:29:21.753Z</time>
      </trkpt>
      <trkpt lat="47.57124" lon="6.73519">
        <ele>343.425964</ele>
        <time>2014-03-15T15:29:26.771Z</time>
      </trkpt>
      <trkpt lat="47.57103" lon="6.73526">
        <ele>343.463135</ele>
        <time>2014-03-15T15:29:31.755Z</time>
      </trkpt>
      <trkpt lat="47.57085" lon="6.73527">
        <ele>342.852417</ele>
        <time>2014-03-15T15:29:37.755Z</time>
      </trkpt>
      <trkpt lat="47.57064" lon="6.73529">
        <ele>342.700989</ele>
        <time>2014-03-15T15:29:42.771Z</time>
      </trkpt>
      <trkpt lat="47.57044" lon="6.73529">
        <ele>342.654083</ele>
        <time>2014-03-15T15:29:49.755Z</time>
      </trkpt>
      <trkpt lat="47.57026" lon="6.73533">
        <ele>343.034515</ele>
        <time>2014-03-15T15:29:56.755Z</time>
      </trkpt>
      <trkpt lat="47.57008" lon="6.73539">
        <ele>343.906647</ele>
        <time>2014-03-15T15:30:02.758Z</time>
      </trkpt>
      <trkpt lat="47.56991" lon="6.73549">
        <ele>345.179626</ele>
        <time>2014-03-15T15:30:09.763Z</time>
      </trkpt>
      <trkpt lat="47.56972" lon="6.73561">
        <ele>346.591461</ele>
        <time>2014-03-15T15:30:15.760Z</time>
      </trkpt>
      <trkpt lat="47.56954" lon="6.73576">
        <ele>347.706787</ele>
        <time>2014-03-15T15:30:22.760Z</time>
      </trkpt>
      <trkpt lat="47.5694" lon="6.73598">
        <ele>348.359131</ele>
        <time>2014-03-15T15:30:28.759Z</time>
      </trkpt>
      <trkpt lat="47.56932" lon="6.73624">
        <ele>348.834412</ele>
        <time>2014-03-15T15:30:33.765Z</time>
      </trkpt>
      <trkpt lat="47.56924" lon="6.73653">
        <ele>349.639069</ele>
        <time>2014-03-15T15:30:38.773Z</time>
      </trkpt>
      <trkpt lat="47.5692" lon="6.73679">
        <ele>350.225891</ele>
        <time>2014-03-15T15:30:42.759Z</time>
      </trkpt>
      <trkpt lat="47.56914" lon="6.73707">
        <ele>350.874573</ele>
        <time>2014-03-15T15:30:46.760Z</time>
      </trkpt>
      <trkpt lat="47.56902" lon="6.73734">
        <ele>351.928864</ele>
        <time>2014-03-15T15:30:51.758Z</time>
      </trkpt>
      <trkpt lat="47.56887" lon="6.73755">
        <ele>352.317627</ele>
        <time>2014-03-15T15:30:55.772Z</time>
      </trkpt>
      <trkpt lat="47.56872" lon="6.73772">
        <ele>352.79071</ele>
        <time>2014-03-15T15:30:59.759Z</time>
      </trkpt>
      <trkpt lat="47.56856" lon="6.73792">
        <ele>352.629669</ele>
        <time>2014-03-15T15:31:04.758Z</time>
      </trkpt>
      <trkpt lat="47.56843" lon="6.73814">
        <ele>352.388184</ele>
        <time>2014-03-15T15:31:09.762Z</time>
      </trkpt>
      <trkpt lat="47.5683" lon="6.73835">
        <ele>352.392151</ele>
        <time>2014-03-15T15:31:14.762Z</time>
      </trkpt>
      <trkpt lat="47.56816" lon="6.73857">
        <ele>352.429535</ele>
        <time>2014-03-15T15:31:19.766Z</time>
      </trkpt>
      <trkpt lat="47.56801" lon="6.73877">
        <ele>352.562531</ele>
        <time>2014-03-15T15:31:24.763Z</time>
      </trkpt>
      <trkpt lat="47.56784" lon="6.73892">
        <ele>353.545593</ele>
        <time>2014-03-15T15:31:30.760Z</time>
      </trkpt>
      <trkpt lat="47.56766" lon="6.73904">
        <ele>355.546021</ele>
        <time>2014-03-15T15:31:37.779Z</time>
      </trkpt>
      <trkpt lat="47.56748" lon="6.7391">
        <ele>357.022308</ele>
        <time>2014-03-15T15:31:43.765Z</time>
      </trkpt>
      <trkpt lat="47.5673" lon="6.73915">
        <ele>358.641449</ele>
        <time>2014-03-15T15:31:51.761Z</time>
      </trkpt>
      <trkpt lat="47.56711" lon="6.73919">
        <ele>360.756287</ele>
        <time>2014-03-15T15:32:00.762Z</time>
      </trkpt>
      <trkpt lat="47.56691" lon="6.73922">
        <ele>362.500519</ele>
        <time>2014-03-15T15:32:08.764Z</time>
      </trkpt>
      <trkpt lat="47.56673" lon="6.73928">
        <ele>362.926971</ele>
        <time>2014-03-15T15:32:12.764Z</time>
      </trkpt>
      <trkpt lat="47.56654" lon="6.73935">
        <ele>363.33432</ele>
        <time>2014-03-15T15:32:16.764Z</time>
      </trkpt>
      <trkpt lat="47.56634" lon="6.73941">
        <ele>363.681885</ele>
        <time>2014-03-15T15:32:20.777Z</time>
      </trkpt>
      <trkpt lat="47.56615" lon="6.73943">
        <ele>363.781342</ele>
        <time>2014-03-15T15:32:24.762Z</time>
      </trkpt>
      <trkpt lat="47.56595" lon="6.73941">
        <ele>363.539398</ele>
        <time>2014-03-15T15:32:28.765Z</time>
      </trkpt>
      <trkpt lat="47.56576" lon="6.73939">
        <ele>363.099091</ele>
        <time>2014-03-15T15:32:32.772Z</time>
      </trkpt>
      <trkpt lat="47.56557" lon="6.73939">
        <ele>362.555817</ele>
        <time>2014-03-15T15:32:36.765Z</time>
      </trkpt>
      <trkpt lat="47.56536" lon="6.7394">
        <ele>362.023041</ele>
        <time>2014-03-15T15:32:41.764Z</time>
      </trkpt>
      <trkpt lat="47.56516" lon="6.7395">
        <ele>361.74292</ele>
        <time>2014-03-15T15:32:47.761Z</time>
      </trkpt>
      <trkpt lat="47.56498" lon="6.73946">
        <ele>361.407593</ele>
        <time>2014-03-15T15:32:53.763Z</time>
      </trkpt>
      <trkpt lat="47.5648" lon="6.73938">
        <ele>360.842529</ele>
        <time>2014-03-15T15:33:00.763Z</time>
      </trkpt>
      <trkpt lat="47.56462" lon="6.73935">
        <ele>361.393219</ele>
        <time>2014-03-15T15:33:08.764Z</time>
      </trkpt>
      <trkpt lat="47.56442" lon="6.73939">
        <ele>362.629669</ele>
        <time>2014-03-15T15:33:19.772Z</time>
      </trkpt>
      <trkpt lat="47.56425" lon="6.73949">
        <ele>364.988647</ele>
        <time>2014-03-15T15:33:33.770Z</time>
      </trkpt>
      <trkpt lat="47.56408" lon="6.73962">
        <ele>368.288086</ele>
        <time>2014-03-15T15:33:48.762Z</time>
      </trkpt>
      <trkpt lat="47.56403" lon="6.73988">
        <ele>372.402344</ele>
        <time>2014-03-15T15:34:17.774Z</time>
      </trkpt>
      <trkpt lat="47.56386" lon="6.74001">
        <ele>373.869629</ele>
        <time>2014-03-15T15:34:30.773Z</time>
      </trkpt>
      <trkpt lat="47.56369" lon="6.74014">
        <ele>374.391998</ele>
        <time>2014-03-15T15:34:43.774Z</time>
      </trkpt>
      <trkpt lat="47.56354" lon="6.74029">
        <ele>375.469543</ele>
        <time>2014-03-15T15:34:59.775Z</time>
      </trkpt>
      <trkpt lat="47.56338" lon="6.74046">
        <ele>377.628693</ele>
        <time>2014-03-15T15:35:15.773Z</time>
      </trkpt>
      <trkpt lat="47.56323" lon="6.74059">
        <ele>379.545563</ele>
        <time>2014-03-15T15:35:30.766Z</time>
      </trkpt>
      <trkpt lat="47.56308" lon="6.74076">
        <ele>382.514008</ele>
        <time>2014-03-15T15:35:47.765Z</time>
      </trkpt>
      <trkpt lat="47.56289" lon="6.74076">
        <ele>385.02002</ele>
        <time>2014-03-15T15:36:05.764Z</time>
      </trkpt>
      <trkpt lat="47.56273" lon="6.74089">
        <ele>390.615875</ele>
        <time>2014-03-15T15:36:29.763Z</time>
      </trkpt>
      <trkpt lat="47.56257" lon="6.741">
        <ele>396.282959</ele>
        <time>2014-03-15T15:36:47.773Z</time>
      </trkpt>
      <trkpt lat="47.5624" lon="6.74108">
        <ele>402.91507</ele>
        <time>2014-03-15T15:37:07.767Z</time>
      </trkpt>
      <trkpt lat="47.56221" lon="6.74118">
        <ele>406.305023</ele>
        <time>2014-03-15T15:37:23.773Z</time>
      </trkpt>
      <trkpt lat="47.56206" lon="6.74132">
        <ele>406.697815</ele>
        <time>2014-03-15T15:37:39.773Z</time>
      </trkpt>
      <trkpt lat="47.56189" lon="6.74143">
        <ele>407.713348</ele>
        <time>2014-03-15T15:37:58.766Z</time>
      </trkpt>
      <trkpt lat="47.56174" lon="6.7416">
        <ele>410.622131</ele>
        <time>2014-03-15T15:38:19.774Z</time>
      </trkpt>
      <trkpt lat="47.56157" lon="6.74171">
        <ele>413.567017</ele>
        <time>2014-03-15T15:38:33.776Z</time>
      </trkpt>
      <trkpt lat="47.56145" lon="6.7419">
        <ele>417.532928</ele>
        <time>2014-03-15T15:38:51.775Z</time>
      </trkpt>
      <trkpt lat="47.56129" lon="6.74205">
        <ele>418.909119</ele>
        <time>2014-03-15T15:39:01.774Z</time>
      </trkpt>
      <trkpt lat="47.56111" lon="6.74212">
        <ele>419.671539</ele>
        <time>2014-03-15T15:39:14.778Z</time>
      </trkpt>
      <trkpt lat="47.56093" lon="6.74214">
        <ele>420.597961</ele>
        <time>2014-03-15T15:39:28.779Z</time>
      </trkpt>
      <trkpt lat="47.56075" lon="6.74222">
        <ele>420.418243</ele>
        <time>2014-03-15T15:39:41.777Z</time>
      </trkpt>
      <trkpt lat="47.56057" lon="6.74231">
        <ele>422.054138</ele>
        <time>2014-03-15T15:39:55.777Z</time>
      </trkpt>
      <trkpt lat="47.56039" lon="6.74236">
        <ele>423.279358</ele>
        <time>2014-03-15T15:40:08.778Z</time>
      </trkpt>
      <trkpt lat="47.56021" lon="6.74243">
        <ele>424.846771</ele>
        <time>2014-03-15T15:40:22.793Z</time>
      </trkpt>
      <trkpt lat="47.56001" lon="6.74246">
        <ele>425.486328</ele>
        <time>2014-03-15T15:40:34.770Z</time>
      </trkpt>
      <trkpt lat="47.55982" lon="6.74247">
        <ele>421.812408</ele>
        <time>2014-03-15T15:41:23.779Z</time>
      </trkpt>
      <trkpt lat="47.55964" lon="6.74253">
        <ele>421.748871</ele>
        <time>2014-03-15T15:41:33.781Z</time>
      </trkpt>
      <trkpt lat="47.55945" lon="6.7426">
        <ele>421.828827</ele>
        <time>2014-03-15T15:41:41.780Z</time>
      </trkpt>
      <trkpt lat="47.55924" lon="6.74267">
        <ele>421.700836</ele>
        <time>2014-03-15T15:41:48.781Z</time>
      </trkpt>
      <trkpt lat="47.55906" lon="6.74268">
        <ele>421.690369</ele>
        <time>2014-03-15T15:41:54.773Z</time>
      </trkpt>
      <trkpt lat="47.55892" lon="6.74247">
        <ele>421.775269</ele>
        <time>2014-03-15T15:42:02.767Z</time>
      </trkpt>
      <trkpt lat="47.55889" lon="6.74216">
        <ele>421.689911</ele>
        <time>2014-03-15T15:42:09.766Z</time>
      </trkpt>
      <trkpt lat="47.55885" lon="6.74187">
        <ele>421.483917</ele>
        <time>2014-03-15T15:42:15.771Z</time>
      </trkpt>
      <trkpt lat="47.55882" lon="6.74161">
        <ele>421.073242</ele>
        <time>2014-03-15T15:42:20.768Z</time>
      </trkpt>
      <trkpt lat="47.55878" lon="6.74134">
        <ele>420.640808</ele>
        <time>2014-03-15T15:42:25.770Z</time>
      </trkpt>
      <trkpt lat="47.55875" lon="6.74104">
        <ele>420.057037</ele>
        <time>2014-03-15T15:42:30.771Z</time>
      </trkpt>
      <trkpt lat="47.55872" lon="6.74077">
        <ele>419.371124</ele>
        <time>2014-03-15T15:42:34.768Z</time>
      </trkpt>
      <trkpt lat="47.55867" lon="6.74046">
        <ele>418.537781</ele>
        <time>2014-03-15T15:42:39.772Z</time>
      </trkpt>
      <trkpt lat="47.55863" lon="6.74018">
        <ele>418.011688</ele>
        <time>2014-03-15T15:42:43.770Z</time>
      </trkpt>
      <trkpt lat="47.55858" lon="6.73988">
        <ele>417.553406</ele>
        <time>2014-03-15T15:42:47.766Z</time>
      </trkpt>
      <trkpt lat="47.55853" lon="6.73955">
        <ele>417.002167</ele>
        <time>2014-03-15T15:42:51.767Z</time>
      </trkpt>
      <trkpt lat="47.55848" lon="6.73922">
        <ele>416.49707</ele>
        <time>2014-03-15T15:42:55.766Z</time>
      </trkpt>
      <trkpt lat="47.55843" lon="6.7389">
        <ele>415.901703</ele>
        <time>2014-03-15T15:42:59.768Z</time>
      </trkpt>
      <trkpt lat="47.55828" lon="6.73874">
        <ele>413.766418</ele>
        <time>2014-03-15T15:43:09.772Z</time>
      </trkpt>
      <trkpt lat="47.55807" lon="6.73871">
        <ele>411.67746</ele>
        <time>2014-03-15T15:43:18.771Z</time>
      </trkpt>
      <trkpt lat="47.55788" lon="6.73872">
        <ele>410.322357</ele>
        <time>2014-03-15T15:43:24.766Z</time>
      </trkpt>
      <trkpt lat="47.55769" lon="6.73876">
        <ele>409.05246</ele>
        <time>2014-03-15T15:43:30.773Z</time>
      </trkpt>
      <trkpt lat="47.55753" lon="6.73891">
        <ele>407.26886</ele>
        <time>2014-03-15T15:43:39.769Z</time>
      </trkpt>
      <trkpt lat="47.55737" lon="6.73906">
        <ele>406.369293</ele>
        <time>2014-03-15T15:43:48.771Z</time>
      </trkpt>
      <trkpt lat="47.55726" lon="6.73929">
        <ele>406.477081</ele>
        <time>2014-03-15T15:44:00.771Z</time>
      </trkpt>
      <trkpt lat="47.55717" lon="6.73953">
        <ele>407.860046</ele>
        <time>2014-03-15T15:44:12.769Z</time>
      </trkpt>
      <trkpt lat="47.55708" lon="6.73976">
        <ele>410.227112</ele>
        <time>2014-03-15T15:44:23.769Z</time>
      </trkpt>
      <trkpt lat="47.55698" lon="6.74">
        <ele>412.290619</ele>
        <time>2014-03-15T15:44:33.782Z</time>
      </trkpt>
      <trkpt lat="47.55686" lon="6.74021">
        <ele>414.164459</ele>
        <time>2014-03-15T15:44:43.782Z</time>
      </trkpt>
      <trkpt lat="47.55677" lon="6.74045">
        <ele>415.444275</ele>
        <time>2014-03-15T15:44:54.782Z</time>
      </trkpt>
      <trkpt lat="47.55668" lon="6.74069">
        <ele>416.359711</ele>
        <time>2014-03-15T15:45:04.782Z</time>
      </trkpt>
      <trkpt lat="47.55659" lon="6.74093">
        <ele>417.561737</ele>
        <time>2014-03-15T15:45:14.783Z</time>
      </trkpt>
      <trkpt lat="47.55648" lon="6.74115">
        <ele>417.96582</ele>
        <time>2014-03-15T15:45:23.785Z</time>
      </trkpt>
      <trkpt lat="47.55633" lon="6.74096">
        <ele>419.156067</ele>
        <time>2014-03-15T15:45:34.781Z</time>
      </trkpt>
      <trkpt lat="47.55624" lon="6.74072">
        <ele>420.392151</ele>
        <time>2014-03-15T15:45:41.782Z</time>
      </trkpt>
      <trkpt lat="47.55614" lon="6.74046">
        <ele>421.094269</ele>
        <time>2014-03-15T15:45:46.783Z</time>
      </trkpt>
      <trkpt lat="47.55601" lon="6.74023">
        <ele>421.886292</ele>
        <time>2014-03-15T15:45:52.784Z</time>
      </trkpt>
      <trkpt lat="47.55588" lon="6.74">
        <ele>422.487579</ele>
        <time>2014-03-15T15:45:58.785Z</time>
      </trkpt>
      <trkpt lat="47.55577" lon="6.73975">
        <ele>422.705444</ele>
        <time>2014-03-15T15:46:03.833Z</time>
      </trkpt>
      <trkpt lat="47.55567" lon="6.73946">
        <ele>422.678741</ele>
        <time>2014-03-15T15:46:11.822Z</time>
      </trkpt>
      <trkpt lat="47.55554" lon="6.73924">
        <ele>422.144714</ele>
        <time>2014-03-15T15:46:15.784Z</time>
      </trkpt>
      <trkpt lat="47.5554" lon="6.73903">
        <ele>421.954071</ele>
        <time>2014-03-15T15:46:18.780Z</time>
      </trkpt>
      <trkpt lat="47.55527" lon="6.73879">
        <ele>421.871033</ele>
        <time>2014-03-15T15:46:22.781Z</time>
      </trkpt>
      <trkpt lat="47.55516" lon="6.73854">
        <ele>421.609222</ele>
        <time>2014-03-15T15:46:26.781Z</time>
      </trkpt>
      <trkpt lat="47.55503" lon="6.73827">
        <ele>420.867065</ele>
        <time>2014-03-15T15:46:30.781Z</time>
      </trkpt>
      <trkpt lat="47.55487" lon="6.73808">
        <ele>420.135834</ele>
        <time>2014-03-15T15:46:33.784Z</time>
      </trkpt>
      <trkpt lat="47.55468" lon="6.73789">
        <ele>419.211761</ele>
        <time>2014-03-15T15:46:37.782Z</time>
      </trkpt>
      <trkpt lat="47.55454" lon="6.73772">
        <ele>418.416321</ele>
        <time>2014-03-15T15:46:40.782Z</time>
      </trkpt>
      <trkpt lat="47.55435" lon="6.73752">
        <ele>417.764252</ele>
        <time>2014-03-15T15:46:43.789Z</time>
      </trkpt>
      <trkpt lat="47.55419" lon="6.73733">
        <ele>417.147125</ele>
        <time>2014-03-15T15:46:46.777Z</time>
      </trkpt>
      <trkpt lat="47.554" lon="6.73711">
        <ele>416.269409</ele>
        <time>2014-03-15T15:46:50.773Z</time>
      </trkpt>
      <trkpt lat="47.55383" lon="6.73694">
        <ele>415.695709</ele>
        <time>2014-03-15T15:46:53.773Z</time>
      </trkpt>
      <trkpt lat="47.55367" lon="6.73675">
        <ele>415.225372</ele>
        <time>2014-03-15T15:46:56.772Z</time>
      </trkpt>
      <trkpt lat="47.5535" lon="6.73654">
        <ele>414.678711</ele>
        <time>2014-03-15T15:46:59.776Z</time>
      </trkpt>
      <trkpt lat="47.55332" lon="6.73633">
        <ele>414.08139</ele>
        <time>2014-03-15T15:47:02.766Z</time>
      </trkpt>
      <trkpt lat="47.55319" lon="6.73614">
        <ele>413.413513</ele>
        <time>2014-03-15T15:47:05.774Z</time>
      </trkpt>
      <trkpt lat="47.55307" lon="6.73594">
        <ele>412.906616</ele>
        <time>2014-03-15T15:47:08.776Z</time>
      </trkpt>
      <trkpt lat="47.55292" lon="6.73576">
        <ele>412.543488</ele>
        <time>2014-03-15T15:47:11.773Z</time>
      </trkpt>
      <trkpt lat="47.55275" lon="6.73559">
        <ele>412.424805</ele>
        <time>2014-03-15T15:47:14.793Z</time>
      </trkpt>
      <trkpt lat="47.55255" lon="6.73544">
        <ele>412.21228</ele>
        <time>2014-03-15T15:47:18.776Z</time>
      </trkpt>
      <trkpt lat="47.55232" lon="6.7353">
        <ele>411.711578</ele>
        <time>2014-03-15T15:47:21.773Z</time>
      </trkpt>
      <trkpt lat="47.55213" lon="6.73515">
        <ele>411.052032</ele>
        <time>2014-03-15T15:47:24.773Z</time>
      </trkpt>
      <trkpt lat="47.55193" lon="6.73504">
        <ele>409.982666</ele>
        <time>2014-03-15T15:47:28.774Z</time>
      </trkpt>
      <trkpt lat="47.55171" lon="6.73498">
        <ele>409.096252</ele>
        <time>2014-03-15T15:47:32.773Z</time>
      </trkpt>
      <trkpt lat="47.55148" lon="6.73491">
        <ele>407.996185</ele>
        <time>2014-03-15T15:47:36.769Z</time>
      </trkpt>
      <trkpt lat="47.55127" lon="6.73489">
        <ele>406.80307</ele>
        <time>2014-03-15T15:47:40.773Z</time>
      </trkpt>
      <trkpt lat="47.55113" lon="6.7351">
        <ele>405.467102</ele>
        <time>2014-03-15T15:47:46.774Z</time>
      </trkpt>
      <trkpt lat="47.55103" lon="6.73537">
        <ele>404.359802</ele>
        <time>2014-03-15T15:47:54.773Z</time>
      </trkpt>
      <trkpt lat="47.55097" lon="6.73564">
        <ele>403.671326</ele>
        <time>2014-03-15T15:48:03.775Z</time>
      </trkpt>
      <trkpt lat="47.55092" lon="6.73593">
        <ele>403.193512</ele>
        <time>2014-03-15T15:48:16.777Z</time>
      </trkpt>
      <trkpt lat="47.55093" lon="6.73621">
        <ele>403.76709</ele>
        <time>2014-03-15T15:48:29.780Z</time>
      </trkpt>
      <trkpt lat="47.55089" lon="6.73649">
        <ele>407.030731</ele>
        <time>2014-03-15T15:48:43.778Z</time>
      </trkpt>
      <trkpt lat="47.55087" lon="6.73676">
        <ele>409.687683</ele>
        <time>2014-03-15T15:48:58.775Z</time>
      </trkpt>
      <trkpt lat="47.55087" lon="6.73704">
        <ele>410.200012</ele>
        <time>2014-03-15T15:49:12.828Z</time>
      </trkpt>
      <trkpt lat="47.55083" lon="6.73731">
        <ele>412.588806</ele>
        <time>2014-03-15T15:49:25.775Z</time>
      </trkpt>
      <trkpt lat="47.55077" lon="6.73758">
        <ele>415.698761</ele>
        <time>2014-03-15T15:49:38.783Z</time>
      </trkpt>
      <trkpt lat="47.5507" lon="6.73783">
        <ele>417.406219</ele>
        <time>2014-03-15T15:49:47.778Z</time>
      </trkpt>
      <trkpt lat="47.55063" lon="6.73809">
        <ele>418.850067</ele>
        <time>2014-03-15T15:49:57.776Z</time>
      </trkpt>
      <trkpt lat="47.55057" lon="6.73835">
        <ele>421.342285</ele>
        <time>2014-03-15T15:50:04.779Z</time>
      </trkpt>
      <trkpt lat="47.55056" lon="6.73862">
        <ele>423.938293</ele>
        <time>2014-03-15T15:50:12.778Z</time>
      </trkpt>
      <trkpt lat="47.55052" lon="6.73891">
        <ele>426.013855</ele>
        <time>2014-03-15T15:50:20.780Z</time>
      </trkpt>
      <trkpt lat="47.55046" lon="6.73917">
        <ele>427.722321</ele>
        <time>2014-03-15T15:50:28.779Z</time>
      </trkpt>
      <trkpt lat="47.55039" lon="6.73943">
        <ele>428.623016</ele>
        <time>2014-03-15T15:50:34.779Z</time>
      </trkpt>
      <trkpt lat="47.55031" lon="6.73968">
        <ele>429.628326</ele>
        <time>2014-03-15T15:50:39.781Z</time>
      </trkpt>
      <trkpt lat="47.55023" lon="6.73991">
        <ele>430.259613</ele>
        <time>2014-03-15T15:50:43.778Z</time>
      </trkpt>
      <trkpt lat="47.55013" lon="6.74018">
        <ele>431.591064</ele>
        <time>2014-03-15T15:50:48.783Z</time>
      </trkpt>
      <trkpt lat="47.55007" lon="6.74049">
        <ele>432.967041</ele>
        <time>2014-03-15T15:50:53.784Z</time>
      </trkpt>
      <trkpt lat="47.54999" lon="6.7408">
        <ele>434.039825</ele>
        <time>2014-03-15T15:50:58.782Z</time>
      </trkpt>
      <trkpt lat="47.54991" lon="6.74105">
        <ele>433.961273</ele>
        <time>2014-03-15T15:51:04.781Z</time>
      </trkpt>
      <trkpt lat="47.54997" lon="6.74132">
        <ele>432.764069</ele>
        <time>2014-03-15T15:51:12.780Z</time>
      </trkpt>
      <trkpt lat="47.55008" lon="6.74156">
        <ele>429.861053</ele>
        <time>2014-03-15T15:51:23.781Z</time>
      </trkpt>
      <trkpt lat="47.55016" lon="6.74182">
        <ele>428.847137</ele>
        <time>2014-03-15T15:51:32.781Z</time>
      </trkpt>
      <trkpt lat="47.5502" lon="6.74212">
        <ele>428.32962</ele>
        <time>2014-03-15T15:51:42.781Z</time>
      </trkpt>
      <trkpt lat="47.55025" lon="6.74238">
        <ele>427.040375</ele>
        <time>2014-03-15T15:51:50.781Z</time>
      </trkpt>
      <trkpt lat="47.55024" lon="6.74268">
        <ele>425.725555</ele>
        <time>2014-03-15T15:51:57.782Z</time>
      </trkpt>
      <trkpt lat="47.55022" lon="6.74296">
        <ele>426.27774</ele>
        <time>2014-03-15T15:52:10.779Z</time>
      </trkpt>
      <trkpt lat="47.55023" lon="6.74323">
        <ele>428.663452</ele>
        <time>2014-03-15T15:52:19.774Z</time>
      </trkpt>
      <trkpt lat="47.55037" lon="6.74342">
        <ele>432.267975</ele>
        <time>2014-03-15T15:52:27.777Z</time>
      </trkpt>
      <trkpt lat="47.5505" lon="6.74361">
        <ele>436.195007</ele>
        <time>2014-03-15T15:52:39.779Z</time>
      </trkpt>
      <trkpt lat="47.55061" lon="6.74382">
        <ele>441.891266</ele>
        <time>2014-03-15T15:52:53.783Z</time>
      </trkpt>
      <trkpt lat="47.55063" lon="6.74409">
        <ele>449.107452</ele>
        <time>2014-03-15T15:53:10.778Z</time>
      </trkpt>
      <trkpt lat="47.55073" lon="6.74434">
        <ele>450.552155</ele>
        <time>2014-03-15T15:53:25.775Z</time>
      </trkpt>
      <trkpt lat="47.55079" lon="6.7446">
        <ele>451.199524</ele>
        <time>2014-03-15T15:53:41.781Z</time>
      </trkpt>
      <trkpt lat="47.55088" lon="6.74483">
        <ele>450.183167</ele>
        <time>2014-03-15T15:53:57.777Z</time>
      </trkpt>
      <trkpt lat="47.55098" lon="6.74507">
        <ele>449.486786</ele>
        <time>2014-03-15T15:54:13.781Z</time>
      </trkpt>
      <trkpt lat="47.55095" lon="6.74533">
        <ele>450.017029</ele>
        <time>2014-03-15T15:54:32.782Z</time>
      </trkpt>
      <trkpt lat="47.55078" lon="6.74544">
        <ele>448.783325</ele>
        <time>2014-03-15T15:54:50.784Z</time>
      </trkpt>
      <trkpt lat="47.55062" lon="6.74559">
        <ele>449.443787</ele>
        <time>2014-03-15T15:55:08.772Z</time>
      </trkpt>
      <trkpt lat="47.55047" lon="6.74574">
        <ele>448.547424</ele>
        <time>2014-03-15T15:55:19.780Z</time>
      </trkpt>
      <trkpt lat="47.5503" lon="6.74585">
        <ele>448.0867</ele>
        <time>2014-03-15T15:55:37.781Z</time>
      </trkpt>
      <trkpt lat="47.55013" lon="6.74593">
        <ele>448.301544</ele>
        <time>2014-03-15T15:55:50.780Z</time>
      </trkpt>
      <trkpt lat="47.54998" lon="6.74608">
        <ele>447.026733</ele>
        <time>2014-03-15T15:56:10.777Z</time>
      </trkpt>
      <trkpt lat="47.54982" lon="6.74623">
        <ele>448.701202</ele>
        <time>2014-03-15T15:56:27.773Z</time>
      </trkpt>
      <trkpt lat="47.54966" lon="6.74636">
        <ele>448.252655</ele>
        <time>2014-03-15T15:56:41.774Z</time>
      </trkpt>
      <trkpt lat="47.54952" lon="6.74658">
        <ele>449.052612</ele>
        <time>2014-03-15T15:56:59.774Z</time>
      </trkpt>
      <trkpt lat="47.54949" lon="6.74686">
        <ele>450.440735</ele>
        <time>2014-03-15T15:57:13.774Z</time>
      </trkpt>
      <trkpt lat="47.54941" lon="6.74711">
        <ele>452.224121</ele>
        <time>2014-03-15T15:57:32.774Z</time>
      </trkpt>
      <trkpt lat="47.54928" lon="6.74732">
        <ele>452.839203</ele>
        <time>2014-03-15T15:57:47.774Z</time>
      </trkpt>
      <trkpt lat="47.54922" lon="6.74758">
        <ele>453.613342</ele>
        <time>2014-03-15T15:58:01.822Z</time>
      </trkpt>
      <trkpt lat="47.5491" lon="6.74778">
        <ele>451.91983</ele>
        <time>2014-03-15T15:58:14.774Z</time>
      </trkpt>
      <trkpt lat="47.54907" lon="6.74806">
        <ele>449.915833</ele>
        <time>2014-03-15T15:58:26.774Z</time>
      </trkpt>
      <trkpt lat="47.54895" lon="6.74827">
        <ele>457.762207</ele>
        <time>2014-03-15T16:00:02.770Z</time>
      </trkpt>
      <trkpt lat="47.54882" lon="6.74849">
        <ele>457.783905</ele>
        <time>2014-03-15T16:00:10.772Z</time>
      </trkpt>
      <trkpt lat="47.54869" lon="6.74872">
        <ele>455.807678</ele>
        <time>2014-03-15T16:00:17.773Z</time>
      </trkpt>
      <trkpt lat="47.54856" lon="6.74894">
        <ele>454.577942</ele>
        <time>2014-03-15T16:00:26.772Z</time>
      </trkpt>
      <trkpt lat="47.54837" lon="6.74911">
        <ele>454.307404</ele>
        <time>2014-03-15T16:00:34.774Z</time>
      </trkpt>
      <trkpt lat="47.5482" lon="6.74926">
        <ele>452.932495</ele>
        <time>2014-03-15T16:00:43.776Z</time>
      </trkpt>
      <trkpt lat="47.54807" lon="6.74946">
        <ele>451.580597</ele>
        <time>2014-03-15T16:00:53.773Z</time>
      </trkpt>
      <trkpt lat="47.54791" lon="6.74963">
        <ele>450.674408</ele>
        <time>2014-03-15T16:01:02.773Z</time>
      </trkpt>
      <trkpt lat="47.54775" lon="6.74976">
        <ele>450.694092</ele>
        <time>2014-03-15T16:01:09.774Z</time>
      </trkpt>
      <trkpt lat="47.54757" lon="6.74989">
        <ele>450.37616</ele>
        <time>2014-03-15T16:01:18.774Z</time>
      </trkpt>
      <trkpt lat="47.54739" lon="6.74994">
        <ele>449.918304</ele>
        <time>2014-03-15T16:01:26.775Z</time>
      </trkpt>
      <trkpt lat="47.54719" lon="6.74999">
        <ele>448.778839</ele>
        <time>2014-03-15T16:01:35.774Z</time>
      </trkpt>
      <trkpt lat="47.54703" lon="6.75014">
        <ele>448.127716</ele>
        <time>2014-03-15T16:01:44.771Z</time>
      </trkpt>
      <trkpt lat="47.54686" lon="6.75022">
        <ele>447.376678</ele>
        <time>2014-03-15T16:01:52.773Z</time>
      </trkpt>
      <trkpt lat="47.54668" lon="6.7503">
        <ele>447.030365</ele>
        <time>2014-03-15T16:02:02.774Z</time>
      </trkpt>
      <trkpt lat="47.5465" lon="6.75031">
        <ele>446.953094</ele>
        <time>2014-03-15T16:02:12.773Z</time>
      </trkpt>
      <trkpt lat="47.54633" lon="6.75042">
        <ele>447.250824</ele>
        <time>2014-03-15T16:02:23.774Z</time>
      </trkpt>
      <trkpt lat="47.54614" lon="6.75051">
        <ele>449.575195</ele>
        <time>2014-03-15T16:02:36.774Z</time>
      </trkpt>
      <trkpt lat="47.54595" lon="6.75059">
        <ele>451.222626</ele>
        <time>2014-03-15T16:02:48.770Z</time>
      </trkpt>
      <trkpt lat="47.54577" lon="6.7507">
        <ele>452.163361</ele>
        <time>2014-03-15T16:02:59.776Z</time>
      </trkpt>
      <trkpt lat="47.54561" lon="6.75084">
        <ele>453.184326</ele>
        <time>2014-03-15T16:03:08.773Z</time>
      </trkpt>
      <trkpt lat="47.54545" lon="6.75099">
        <ele>454.372437</ele>
        <time>2014-03-15T16:03:20.775Z</time>
      </trkpt>
      <trkpt lat="47.54531" lon="6.75117">
        <ele>456.001862</ele>
        <time>2014-03-15T16:03:34.775Z</time>
      </trkpt>
      <trkpt lat="47.54513" lon="6.75124">
        <ele>458.923798</ele>
        <time>2014-03-15T16:03:48.774Z</time>
      </trkpt>
      <trkpt lat="47.54495" lon="6.75136">
        <ele>461.24649</ele>
        <time>2014-03-15T16:04:57.776Z</time>
      </trkpt>
      <trkpt lat="47.54481" lon="6.75155">
        <ele>459.389038</ele>
        <time>2014-03-15T16:06:33.774Z</time>
      </trkpt>
      <trkpt lat="47.54462" lon="6.75166">
        <ele>461.224152</ele>
        <time>2014-03-15T16:06:41.776Z</time>
      </trkpt>
      <trkpt lat="47.54447" lon="6.75182">
        <ele>462.797028</ele>
        <time>2014-03-15T16:06:46.778Z</time>
      </trkpt>
      <trkpt lat="47.54432" lon="6.75197">
        <ele>464.274597</ele>
        <time>2014-03-15T16:06:52.777Z</time>
      </trkpt>
      <trkpt lat="47.54414" lon="6.75209">
        <ele>465.986755</ele>
        <time>2014-03-15T16:06:57.776Z</time>
      </trkpt>
      <trkpt lat="47.54396" lon="6.75223">
        <ele>467.744263</ele>
        <time>2014-03-15T16:07:02.776Z</time>
      </trkpt>
      <trkpt lat="47.5438" lon="6.75246">
        <ele>468.014923</ele>
        <time>2014-03-15T16:07:07.777Z</time>
      </trkpt>
      <trkpt lat="47.54364" lon="6.75266">
        <ele>467.577576</ele>
        <time>2014-03-15T16:07:11.827Z</time>
      </trkpt>
      <trkpt lat="47.54345" lon="6.75283">
        <ele>465.97348</ele>
        <time>2014-03-15T16:07:16.776Z</time>
      </trkpt>
      <trkpt lat="47.54335" lon="6.75306">
        <ele>464.463684</ele>
        <time>2014-03-15T16:07:21.777Z</time>
      </trkpt>
      <trkpt lat="47.54328" lon="6.75332">
        <ele>464.767212</ele>
        <time>2014-03-15T16:07:27.777Z</time>
      </trkpt>
      <trkpt lat="47.54312" lon="6.75357">
        <ele>465.437561</ele>
        <time>2014-03-15T16:07:34.777Z</time>
      </trkpt>
      <trkpt lat="47.54297" lon="6.75376">
        <ele>465.631805</ele>
        <time>2014-03-15T16:07:38.774Z</time>
      </trkpt>
      <trkpt lat="47.54284" lon="6.75396">
        <ele>465.729279</ele>
        <time>2014-03-15T16:07:42.777Z</time>
      </trkpt>
      <trkpt lat="47.54274" lon="6.75422">
        <ele>465.047272</ele>
        <time>2014-03-15T16:07:47.777Z</time>
      </trkpt>
      <trkpt lat="47.54261" lon="6.75444">
        <ele>464.399109</ele>
        <time>2014-03-15T16:07:52.867Z</time>
      </trkpt>
      <trkpt lat="47.54252" lon="6.75471">
        <ele>464.062469</ele>
        <time>2014-03-15T16:07:57.779Z</time>
      </trkpt>
      <trkpt lat="47.54239" lon="6.75499">
        <ele>463.294769</ele>
        <time>2014-03-15T16:08:03.778Z</time>
      </trkpt>
      <trkpt lat="47.54233" lon="6.75527">
        <ele>462.745819</ele>
        <time>2014-03-15T16:08:07.779Z</time>
      </trkpt>
      <trkpt lat="47.54221" lon="6.75551">
        <ele>462.185181</ele>
        <time>2014-03-15T16:08:12.777Z</time>
      </trkpt>
      <trkpt lat="47.54212" lon="6.75583">
        <ele>462.046051</ele>
        <time>2014-03-15T16:08:16.777Z</time>
      </trkpt>
      <trkpt lat="47.54204" lon="6.7561">
        <ele>461.470642</ele>
        <time>2014-03-15T16:08:21.779Z</time>
      </trkpt>
      <trkpt lat="47.54194" lon="6.75636">
        <ele>460.243958</ele>
        <time>2014-03-15T16:08:26.778Z</time>
      </trkpt>
      <trkpt lat="47.54184" lon="6.75663">
        <ele>458.920349</ele>
        <time>2014-03-15T16:08:30.791Z</time>
      </trkpt>
      <trkpt lat="47.54177" lon="6.75692">
        <ele>457.648376</ele>
        <time>2014-03-15T16:08:34.777Z</time>
      </trkpt>
      <trkpt lat="47.5417" lon="6.75719">
        <ele>457.057709</ele>
        <time>2014-03-15T16:08:37.778Z</time>
      </trkpt>
      <trkpt lat="47.54163" lon="6.7575">
        <ele>456.326294</ele>
        <time>2014-03-15T16:08:41.777Z</time>
      </trkpt>
      <trkpt lat="47.54153" lon="6.75777">
        <ele>455.376617</ele>
        <time>2014-03-15T16:08:46.778Z</time>
      </trkpt>
      <trkpt lat="47.54144" lon="6.75802">
        <ele>454.404785</ele>
        <time>2014-03-15T16:08:50.778Z</time>
      </trkpt>
      <trkpt lat="47.54141" lon="6.75831">
        <ele>444.506104</ele>
        <time>2014-03-15T16:09:36.778Z</time>
      </trkpt>
      <trkpt lat="47.54135" lon="6.75861">
        <ele>442.609222</ele>
        <time>2014-03-15T16:09:45.778Z</time>
      </trkpt>
      <trkpt lat="47.54136" lon="6.75891">
        <ele>441.89325</ele>
        <time>2014-03-15T16:09:51.780Z</time>
      </trkpt>
      <trkpt lat="47.54133" lon="6.75918">
        <ele>441.20462</ele>
        <time>2014-03-15T16:09:57.776Z</time>
      </trkpt>
      <trkpt lat="47.54129" lon="6.75946">
        <ele>439.861084</ele>
        <time>2014-03-15T16:10:03.780Z</time>
      </trkpt>
      <trkpt lat="47.54124" lon="6.75975">
        <ele>438.974335</ele>
        <time>2014-03-15T16:10:08.780Z</time>
      </trkpt>
      <trkpt lat="47.54116" lon="6.76001">
        <ele>438.679169</ele>
        <time>2014-03-15T16:10:14.781Z</time>
      </trkpt>
      <trkpt lat="47.54107" lon="6.76027">
        <ele>438.395599</ele>
        <time>2014-03-15T16:10:19.779Z</time>
      </trkpt>
      <trkpt lat="47.54098" lon="6.76053">
        <ele>437.668579</ele>
        <time>2014-03-15T16:10:25.780Z</time>
      </trkpt>
      <trkpt lat="47.54094" lon="6.76084">
        <ele>437.323822</ele>
        <time>2014-03-15T16:10:31.779Z</time>
      </trkpt>
      <trkpt lat="47.54094" lon="6.76111">
        <ele>437.167603</ele>
        <time>2014-03-15T16:10:38.779Z</time>
      </trkpt>
      <trkpt lat="47.54089" lon="6.76138">
        <ele>437.190613</ele>
        <time>2014-03-15T16:10:44.779Z</time>
      </trkpt>
      <trkpt lat="47.54082" lon="6.76163">
        <ele>437.925934</ele>
        <time>2014-03-15T16:10:51.780Z</time>
      </trkpt>
      <trkpt lat="47.54071" lon="6.76187">
        <ele>438.264832</ele>
        <time>2014-03-15T16:10:57.779Z</time>
      </trkpt>
      <trkpt lat="47.54062" lon="6.76216">
        <ele>438.937805</ele>
        <time>2014-03-15T16:11:04.779Z</time>
      </trkpt>
      <trkpt lat="47.54053" lon="6.7624">
        <ele>439.297302</ele>
        <time>2014-03-15T16:11:09.778Z</time>
      </trkpt>
      <trkpt lat="47.54049" lon="6.76266">
        <ele>439.329895</ele>
        <time>2014-03-15T16:11:15.779Z</time>
      </trkpt>
      <trkpt lat="47.54039" lon="6.76297">
        <ele>438.851196</ele>
        <time>2014-03-15T16:11:21.778Z</time>
      </trkpt>
      <trkpt lat="47.54027" lon="6.76325">
        <ele>438.61438</ele>
        <time>2014-03-15T16:11:25.783Z</time>
      </trkpt>
      <trkpt lat="47.54022" lon="6.76352">
        <ele>438.566833</ele>
        <time>2014-03-15T16:11:29.779Z</time>
      </trkpt>
      <trkpt lat="47.54013" lon="6.76375">
        <ele>438.508911</ele>
        <time>2014-03-15T16:11:35.778Z</time>
      </trkpt>
      <trkpt lat="47.53999" lon="6.76396">
        <ele>438.139435</ele>
        <time>2014-03-15T16:11:40.780Z</time>
      </trkpt>
      <trkpt lat="47.53986" lon="6.76421">
        <ele>437.315643</ele>
        <time>2014-03-15T16:11:46.780Z</time>
      </trkpt>
      <trkpt lat="47.53974" lon="6.76444">
        <ele>436.573334</ele>
        <time>2014-03-15T16:11:51.779Z</time>
      </trkpt>
      <trkpt lat="47.53962" lon="6.76467">
        <ele>436.021332</ele>
        <time>2014-03-15T16:11:56.780Z</time>
      </trkpt>
      <trkpt lat="47.53949" lon="6.76491">
        <ele>435.673981</ele>
        <time>2014-03-15T16:12:01.781Z</time>
      </trkpt>
      <trkpt lat="47.53936" lon="6.76514">
        <ele>435.359955</ele>
        <time>2014-03-15T16:12:06.779Z</time>
      </trkpt>
      <trkpt lat="47.53923" lon="6.76537">
        <ele>434.507812</ele>
        <time>2014-03-15T16:12:14.780Z</time>
      </trkpt>
      <trkpt lat="47.53911" lon="6.76559">
        <ele>434.80545</ele>
        <time>2014-03-15T16:12:21.780Z</time>
      </trkpt>
      <trkpt lat="47.539" lon="6.76581">
        <ele>435.096527</ele>
        <time>2014-03-15T16:12:28.778Z</time>
      </trkpt>
      <trkpt lat="47.53885" lon="6.76598">
        <ele>435.139465</ele>
        <time>2014-03-15T16:12:37.829Z</time>
      </trkpt>
      <trkpt lat="47.53872" lon="6.76621">
        <ele>435.529449</ele>
        <time>2014-03-15T16:12:46.780Z</time>
      </trkpt>
      <trkpt lat="47.5386" lon="6.76641">
        <ele>435.698395</ele>
        <time>2014-03-15T16:12:54.780Z</time>
      </trkpt>
      <trkpt lat="47.53847" lon="6.7666">
        <ele>436.329346</ele>
        <time>2014-03-15T16:13:01.784Z</time>
      </trkpt>
      <trkpt lat="47.53832" lon="6.76677">
        <ele>437.021484</ele>
        <time>2014-03-15T16:13:07.781Z</time>
      </trkpt>
      <trkpt lat="47.5382" lon="6.76701">
        <ele>437.760651</ele>
        <time>2014-03-15T16:13:13.781Z</time>
      </trkpt>
      <trkpt lat="47.53809" lon="6.76727">
        <ele>438.051178</ele>
        <time>2014-03-15T16:13:17.780Z</time>
      </trkpt>
      <trkpt lat="47.53798" lon="6.76752">
        <ele>437.97226</ele>
        <time>2014-03-15T16:13:21.781Z</time>
      </trkpt>
      <trkpt lat="47.5379" lon="6.76784">
        <ele>437.956421</ele>
        <time>2014-03-15T16:13:25.781Z</time>
      </trkpt>
      <trkpt lat="47.53787" lon="6.76811">
        <ele>438.114136</ele>
        <time>2014-03-15T16:13:40.781Z</time>
      </trkpt>
      <trkpt lat="47.53783" lon="6.7684">
        <ele>437.680542</ele>
        <time>2014-03-15T16:13:45.782Z</time>
      </trkpt>
      <trkpt lat="47.53781" lon="6.76869">
        <ele>437.071594</ele>
        <time>2014-03-15T16:13:50.781Z</time>
      </trkpt>
      <trkpt lat="47.53777" lon="6.76898">
        <ele>435.842957</ele>
        <time>2014-03-15T16:13:56.783Z</time>
      </trkpt>
      <trkpt lat="47.53776" lon="6.7693">
        <ele>434.389587</ele>
        <time>2014-03-15T16:14:02.785Z</time>
      </trkpt>
      <trkpt lat="47.53775" lon="6.76957">
        <ele>432.83548</ele>
        <time>2014-03-15T16:14:07.779Z</time>
      </trkpt>
      <trkpt lat="47.53777" lon="6.76989">
        <ele>430.786774</ele>
        <time>2014-03-15T16:14:13.783Z</time>
      </trkpt>
      <trkpt lat="47.5378" lon="6.7702">
        <ele>429.543335</ele>
        <time>2014-03-15T16:14:17.783Z</time>
      </trkpt>
      <trkpt lat="47.53779" lon="6.77052">
        <ele>428.17514</ele>
        <time>2014-03-15T16:14:22.784Z</time>
      </trkpt>
      <trkpt lat="47.53779" lon="6.77086">
        <ele>426.901276</ele>
        <time>2014-03-15T16:14:26.782Z</time>
      </trkpt>
      <trkpt lat="47.53775" lon="6.77118">
        <ele>425.852753</ele>
        <time>2014-03-15T16:14:30.788Z</time>
      </trkpt>
      <trkpt lat="47.53777" lon="6.77146">
        <ele>424.780548</ele>
        <time>2014-03-15T16:14:33.791Z</time>
      </trkpt>
      <trkpt lat="47.53777" lon="6.77178">
        <ele>423.046326</ele>
        <time>2014-03-15T16:14:37.782Z</time>
      </trkpt>
      <trkpt lat="47.53774" lon="6.77212">
        <ele>421.827576</ele>
        <time>2014-03-15T16:14:41.780Z</time>
      </trkpt>
      <trkpt lat="47.53773" lon="6.77242">
        <ele>420.848816</ele>
        <time>2014-03-15T16:14:44.783Z</time>
      </trkpt>
      <trkpt lat="47.53768" lon="6.77268">
        <ele>419.806793</ele>
        <time>2014-03-15T16:14:47.783Z</time>
      </trkpt>
      <trkpt lat="47.53755" lon="6.77294">
        <ele>418.304962</ele>
        <time>2014-03-15T16:14:51.782Z</time>
      </trkpt>
      <trkpt lat="47.53742" lon="6.77313">
        <ele>417.028809</ele>
        <time>2014-03-15T16:14:54.782Z</time>
      </trkpt>
      <trkpt lat="47.53723" lon="6.77331">
        <ele>415.957764</ele>
        <time>2014-03-15T16:14:57.784Z</time>
      </trkpt>
      <trkpt lat="47.537" lon="6.77343">
        <ele>414.806152</ele>
        <time>2014-03-15T16:15:00.782Z</time>
      </trkpt>
      <trkpt lat="47.53678" lon="6.77341">
        <ele>413.114502</ele>
        <time>2014-03-15T16:15:05.785Z</time>
      </trkpt>
      <trkpt lat="47.53662" lon="6.77326">
        <ele>411.49054</ele>
        <time>2014-03-15T16:15:09.785Z</time>
      </trkpt>
      <trkpt lat="47.53647" lon="6.77307">
        <ele>409.965332</ele>
        <time>2014-03-15T16:15:13.784Z</time>
      </trkpt>
      <trkpt lat="47.53631" lon="6.77292">
        <ele>407.428833</ele>
        <time>2014-03-15T16:15:19.782Z</time>
      </trkpt>
      <trkpt lat="47.53611" lon="6.77288">
        <ele>404.55127</ele>
        <time>2014-03-15T16:15:25.782Z</time>
      </trkpt>
      <trkpt lat="47.53589" lon="6.77285">
        <ele>402.270874</ele>
        <time>2014-03-15T16:15:30.786Z</time>
      </trkpt>
      <trkpt lat="47.53565" lon="6.77281">
        <ele>400.301819</ele>
        <time>2014-03-15T16:15:34.782Z</time>
      </trkpt>
      <trkpt lat="47.53547" lon="6.77277">
        <ele>398.882812</ele>
        <time>2014-03-15T16:15:37.780Z</time>
      </trkpt>
      <trkpt lat="47.53528" lon="6.77275">
        <ele>397.413849</ele>
        <time>2014-03-15T16:15:40.782Z</time>
      </trkpt>
      <trkpt lat="47.53505" lon="6.77274">
        <ele>395.239044</ele>
        <time>2014-03-15T16:15:44.782Z</time>
      </trkpt>
      <trkpt lat="47.53484" lon="6.77266">
        <ele>393.623535</ele>
        <time>2014-03-15T16:15:47.780Z</time>
      </trkpt>
      <trkpt lat="47.53465" lon="6.77255">
        <ele>391.894653</ele>
        <time>2014-03-15T16:15:50.781Z</time>
      </trkpt>
      <trkpt lat="47.53443" lon="6.77244">
        <ele>389.518158</ele>
        <time>2014-03-15T16:15:54.823Z</time>
      </trkpt>
      <trkpt lat="47.5342" lon="6.77234">
        <ele>386.889252</ele>
        <time>2014-03-15T16:15:58.783Z</time>
      </trkpt>
      <trkpt lat="47.534" lon="6.77226">
        <ele>385.023621</ele>
        <time>2014-03-15T16:16:01.781Z</time>
      </trkpt>
      <trkpt lat="47.5338" lon="6.77226">
        <ele>383.009979</ele>
        <time>2014-03-15T16:16:04.784Z</time>
      </trkpt>
      <trkpt lat="47.53359" lon="6.77228">
        <ele>380.363892</ele>
        <time>2014-03-15T16:16:09.783Z</time>
      </trkpt>
      <trkpt lat="47.53339" lon="6.77221">
        <ele>361.192505</ele>
        <time>2014-03-15T16:17:03.782Z</time>
      </trkpt>
      <trkpt lat="47.53321" lon="6.77217">
        <ele>370.438873</ele>
        <time>2014-03-15T16:22:25.787Z</time>
      </trkpt>
      <trkpt lat="47.53301" lon="6.77225">
        <ele>371.556793</ele>
        <time>2014-03-15T16:22:36.788Z</time>
      </trkpt>
      <trkpt lat="47.53282" lon="6.77229">
        <ele>372.988831</ele>
        <time>2014-03-15T16:22:42.787Z</time>
      </trkpt>
      <trkpt lat="47.53263" lon="6.77228">
        <ele>373.738007</ele>
        <time>2014-03-15T16:22:47.787Z</time>
      </trkpt>
      <trkpt lat="47.53242" lon="6.77227">
        <ele>373.714478</ele>
        <time>2014-03-15T16:22:52.788Z</time>
      </trkpt>
      <trkpt lat="47.53221" lon="6.77224">
        <ele>373.36618</ele>
        <time>2014-03-15T16:22:57.786Z</time>
      </trkpt>
      <trkpt lat="47.532" lon="6.77227">
        <ele>374.185547</ele>
        <time>2014-03-15T16:23:04.788Z</time>
      </trkpt>
      <trkpt lat="47.5318" lon="6.77227">
        <ele>374.489288</ele>
        <time>2014-03-15T16:23:09.789Z</time>
      </trkpt>
      <trkpt lat="47.53159" lon="6.77231">
        <ele>373.069519</ele>
        <time>2014-03-15T16:23:15.788Z</time>
      </trkpt>
      <trkpt lat="47.53137" lon="6.77234">
        <ele>372.373932</ele>
        <time>2014-03-15T16:23:21.788Z</time>
      </trkpt>
      <trkpt lat="47.53119" lon="6.77232">
        <ele>371.63855</ele>
        <time>2014-03-15T16:23:25.788Z</time>
      </trkpt>
      <trkpt lat="47.53099" lon="6.77232">
        <ele>370.818481</ele>
        <time>2014-03-15T16:23:29.791Z</time>
      </trkpt>
      <trkpt lat="47.53078" lon="6.77229">
        <ele>369.942566</ele>
        <time>2014-03-15T16:23:34.788Z</time>
      </trkpt>
      <trkpt lat="47.53057" lon="6.77232">
        <ele>368.741058</ele>
        <time>2014-03-15T16:23:40.790Z</time>
      </trkpt>
      <trkpt lat="47.53038" lon="6.77235">
        <ele>367.995819</ele>
        <time>2014-03-15T16:23:45.789Z</time>
      </trkpt>
      <trkpt lat="47.53017" lon="6.77238">
        <ele>368.278625</ele>
        <time>2014-03-15T16:23:50.788Z</time>
      </trkpt>
      <trkpt lat="47.52997" lon="6.77239">
        <ele>369.259613</ele>
        <time>2014-03-15T16:23:56.789Z</time>
      </trkpt>
      <trkpt lat="47.52976" lon="6.77235">
        <ele>369.496063</ele>
        <time>2014-03-15T16:24:02.789Z</time>
      </trkpt>
      <trkpt lat="47.52957" lon="6.77234">
        <ele>368.565521</ele>
        <time>2014-03-15T16:24:09.788Z</time>
      </trkpt>
      <trkpt lat="47.52936" lon="6.77237">
        <ele>368.044342</ele>
        <time>2014-03-15T16:24:15.789Z</time>
      </trkpt>
      <trkpt lat="47.52917" lon="6.7724">
        <ele>369.340027</ele>
        <time>2014-03-15T16:24:22.789Z</time>
      </trkpt>
      <trkpt lat="47.52898" lon="6.77242">
        <ele>371.121552</ele>
        <time>2014-03-15T16:24:28.790Z</time>
      </trkpt>
      <trkpt lat="47.52879" lon="6.77244">
        <ele>372.690002</ele>
        <time>2014-03-15T16:24:37.789Z</time>
      </trkpt>
      <trkpt lat="47.5286" lon="6.77248">
        <ele>373.593597</ele>
        <time>2014-03-15T16:24:43.789Z</time>
      </trkpt>
      <trkpt lat="47.5284" lon="6.77248">
        <ele>374.870911</ele>
        <time>2014-03-15T16:24:52.787Z</time>
      </trkpt>
      <trkpt lat="47.52821" lon="6.77247">
        <ele>377.100342</ele>
        <time>2014-03-15T16:25:03.790Z</time>
      </trkpt>
      <trkpt lat="47.52801" lon="6.77248">
        <ele>381.424561</ele>
        <time>2014-03-15T16:25:14.793Z</time>
      </trkpt>
      <trkpt lat="47.52783" lon="6.77246">
        <ele>383.033325</ele>
        <time>2014-03-15T16:25:23.789Z</time>
      </trkpt>
      <trkpt lat="47.52764" lon="6.77247">
        <ele>384.89679</ele>
        <time>2014-03-15T16:25:32.790Z</time>
      </trkpt>
      <trkpt lat="47.52745" lon="6.77249">
        <ele>386.267609</ele>
        <time>2014-03-15T16:25:41.789Z</time>
      </trkpt>
      <trkpt lat="47.52724" lon="6.77249">
        <ele>387.1745</ele>
        <time>2014-03-15T16:25:49.789Z</time>
      </trkpt>
      <trkpt lat="47.52705" lon="6.77252">
        <ele>387.388824</ele>
        <time>2014-03-15T16:25:58.790Z</time>
      </trkpt>
      <trkpt lat="47.52685" lon="6.77252">
        <ele>385.998749</ele>
        <time>2014-03-15T16:26:05.790Z</time>
      </trkpt>
      <trkpt lat="47.52661" lon="6.77261">
        <ele>385.863007</ele>
        <time>2014-03-15T16:26:10.789Z</time>
      </trkpt>
      <trkpt lat="47.52642" lon="6.77272">
        <ele>386.274689</ele>
        <time>2014-03-15T16:26:14.790Z</time>
      </trkpt>
      <trkpt lat="47.52625" lon="6.77287">
        <ele>386.680389</ele>
        <time>2014-03-15T16:26:19.791Z</time>
      </trkpt>
      <trkpt lat="47.52608" lon="6.77301">
        <ele>386.702972</ele>
        <time>2014-03-15T16:26:25.791Z</time>
      </trkpt>
      <trkpt lat="47.5259" lon="6.77316">
        <ele>386.621552</ele>
        <time>2014-03-15T16:26:31.790Z</time>
      </trkpt>
      <trkpt lat="47.52572" lon="6.77336">
        <ele>386.427551</ele>
        <time>2014-03-15T16:26:36.790Z</time>
      </trkpt>
      <trkpt lat="47.52554" lon="6.77351">
        <ele>385.946899</ele>
        <time>2014-03-15T16:26:41.790Z</time>
      </trkpt>
      <trkpt lat="47.52536" lon="6.77364">
        <ele>385.395752</ele>
        <time>2014-03-15T16:26:46.790Z</time>
      </trkpt>
      <trkpt lat="47.52515" lon="6.77375">
        <ele>385.186584</ele>
        <time>2014-03-15T16:26:51.791Z</time>
      </trkpt>
      <trkpt lat="47.52497" lon="6.77385">
        <ele>385.2034</ele>
        <time>2014-03-15T16:26:56.790Z</time>
      </trkpt>
      <trkpt lat="47.52478" lon="6.77394">
        <ele>386.078888</ele>
        <time>2014-03-15T16:27:01.790Z</time>
      </trkpt>
      <trkpt lat="47.52461" lon="6.77403">
        <ele>388.43396</ele>
        <time>2014-03-15T16:27:09.790Z</time>
      </trkpt>
      <trkpt lat="47.52444" lon="6.77411">
        <ele>389.800201</ele>
        <time>2014-03-15T16:27:19.790Z</time>
      </trkpt>
      <trkpt lat="47.52428" lon="6.77425">
        <ele>390.686432</ele>
        <time>2014-03-15T16:27:29.790Z</time>
      </trkpt>
      <trkpt lat="47.52416" lon="6.77448">
        <ele>392.441681</ele>
        <time>2014-03-15T16:27:40.791Z</time>
      </trkpt>
      <trkpt lat="47.52402" lon="6.77467">
        <ele>393.000397</ele>
        <time>2014-03-15T16:27:49.791Z</time>
      </trkpt>
      <trkpt lat="47.52386" lon="6.77482">
        <ele>393.699585</ele>
        <time>2014-03-15T16:27:58.792Z</time>
      </trkpt>
      <trkpt lat="47.5237" lon="6.77497">
        <ele>393.17514</ele>
        <time>2014-03-15T16:28:07.792Z</time>
      </trkpt>
      <trkpt lat="47.52351" lon="6.77508">
        <ele>391.966858</ele>
        <time>2014-03-15T16:28:15.792Z</time>
      </trkpt>
      <trkpt lat="47.52332" lon="6.77521">
        <ele>391.525146</ele>
        <time>2014-03-15T16:28:20.791Z</time>
      </trkpt>
      <trkpt lat="47.52316" lon="6.77532">
        <ele>391.16272</ele>
        <time>2014-03-15T16:28:24.792Z</time>
      </trkpt>
      <trkpt lat="47.52297" lon="6.77544">
        <ele>390.641815</ele>
        <time>2014-03-15T16:28:28.791Z</time>
      </trkpt>
      <trkpt lat="47.52278" lon="6.77556">
        <ele>389.956726</ele>
        <time>2014-03-15T16:28:32.792Z</time>
      </trkpt>
      <trkpt lat="47.5226" lon="6.77568">
        <ele>389.25882</ele>
        <time>2014-03-15T16:28:36.796Z</time>
      </trkpt>
      <trkpt lat="47.52242" lon="6.77581">
        <ele>389.092896</ele>
        <time>2014-03-15T16:28:40.791Z</time>
      </trkpt>
      <trkpt lat="47.52223" lon="6.77594">
        <ele>389.107605</ele>
        <time>2014-03-15T16:28:44.793Z</time>
      </trkpt>
      <trkpt lat="47.52201" lon="6.77607">
        <ele>389.34671</ele>
        <time>2014-03-15T16:28:48.791Z</time>
      </trkpt>
      <trkpt lat="47.52183" lon="6.77619">
        <ele>389.585541</ele>
        <time>2014-03-15T16:28:52.792Z</time>
      </trkpt>
      <trkpt lat="47.52165" lon="6.77632">
        <ele>389.476776</ele>
        <time>2014-03-15T16:28:56.792Z</time>
      </trkpt>
      <trkpt lat="47.52146" lon="6.77646">
        <ele>389.319702</ele>
        <time>2014-03-15T16:29:00.792Z</time>
      </trkpt>
      <trkpt lat="47.52126" lon="6.77657">
        <ele>389.179443</ele>
        <time>2014-03-15T16:29:04.794Z</time>
      </trkpt>
      <trkpt lat="47.5211" lon="6.77669">
        <ele>389.066315</ele>
        <time>2014-03-15T16:29:08.795Z</time>
      </trkpt>
      <trkpt lat="47.52095" lon="6.77652">
        <ele>389.465576</ele>
        <time>2014-03-15T16:29:17.792Z</time>
      </trkpt>
      <trkpt lat="47.52094" lon="6.77623">
        <ele>389.620605</ele>
        <time>2014-03-15T16:29:22.792Z</time>
      </trkpt>
      <trkpt lat="47.52094" lon="6.77593">
        <ele>390.021088</ele>
        <time>2014-03-15T16:29:27.792Z</time>
      </trkpt>
      <trkpt lat="47.52089" lon="6.77562">
        <ele>390.447388</ele>
        <time>2014-03-15T16:29:33.791Z</time>
      </trkpt>
      <trkpt lat="47.52072" lon="6.77547">
        <ele>390.549744</ele>
        <time>2014-03-15T16:29:38.792Z</time>
      </trkpt>
      <trkpt lat="47.52054" lon="6.77542">
        <ele>390.709229</ele>
        <time>2014-03-15T16:29:42.792Z</time>
      </trkpt>
      <trkpt lat="47.52035" lon="6.7754">
        <ele>390.86908</ele>
        <time>2014-03-15T16:29:46.793Z</time>
      </trkpt>
      <trkpt lat="47.52013" lon="6.77535">
        <ele>390.87442</ele>
        <time>2014-03-15T16:29:50.796Z</time>
      </trkpt>
      <trkpt lat="47.5199" lon="6.7753">
        <ele>390.88916</ele>
        <time>2014-03-15T16:29:54.792Z</time>
      </trkpt>
      <trkpt lat="47.51972" lon="6.77526">
        <ele>391.056244</ele>
        <time>2014-03-15T16:29:57.794Z</time>
      </trkpt>
      <trkpt lat="47.51953" lon="6.77523">
        <ele>391.039307</ele>
        <time>2014-03-15T16:30:00.795Z</time>
      </trkpt>
      <trkpt lat="47.5193" lon="6.77519">
        <ele>391.174377</ele>
        <time>2014-03-15T16:30:04.795Z</time>
      </trkpt>
      <trkpt lat="47.51911" lon="6.77514">
        <ele>391.209442</ele>
        <time>2014-03-15T16:30:08.793Z</time>
      </trkpt>
      <trkpt lat="47.51891" lon="6.7751">
        <ele>390.968445</ele>
        <time>2014-03-15T16:30:12.793Z</time>
      </trkpt>
      <trkpt lat="47.51868" lon="6.77505">
        <ele>390.585754</ele>
        <time>2014-03-15T16:30:16.793Z</time>
      </trkpt>
      <trkpt lat="47.51849" lon="6.77505">
        <ele>390.316315</ele>
        <time>2014-03-15T16:30:19.792Z</time>
      </trkpt>
      <trkpt lat="47.5183" lon="6.77502">
        <ele>390.072571</ele>
        <time>2014-03-15T16:30:22.792Z</time>
      </trkpt>
      <trkpt lat="47.51811" lon="6.77499">
        <ele>389.735626</ele>
        <time>2014-03-15T16:30:26.795Z</time>
      </trkpt>
      <trkpt lat="47.5179" lon="6.77495">
        <ele>389.340546</ele>
        <time>2014-03-15T16:30:31.794Z</time>
      </trkpt>
      <trkpt lat="47.51769" lon="6.77485">
        <ele>389.228729</ele>
        <time>2014-03-15T16:30:37.849Z</time>
      </trkpt>
      <trkpt lat="47.51751" lon="6.77482">
        <ele>389.350525</ele>
        <time>2014-03-15T16:30:42.791Z</time>
      </trkpt>
      <trkpt lat="47.51729" lon="6.77486">
        <ele>389.357605</ele>
        <time>2014-03-15T16:30:48.794Z</time>
      </trkpt>
      <trkpt lat="47.51721" lon="6.77515">
        <ele>389.3284</ele>
        <time>2014-03-15T16:30:53.793Z</time>
      </trkpt>
      <trkpt lat="47.51716" lon="6.77542">
        <ele>389.459106</ele>
        <time>2014-03-15T16:30:58.793Z</time>
      </trkpt>
      <trkpt lat="47.51696" lon="6.77545">
        <ele>389.707153</ele>
        <time>2014-03-15T16:31:05.798Z</time>
      </trkpt>
      <trkpt lat="47.51679" lon="6.77526">
        <ele>389.874146</ele>
        <time>2014-03-15T16:31:09.794Z</time>
      </trkpt>
      <trkpt lat="47.51665" lon="6.77509">
        <ele>390.024231</ele>
        <time>2014-03-15T16:31:12.793Z</time>
      </trkpt>
      <trkpt lat="47.51646" lon="6.77486">
        <ele>390.134949</ele>
        <time>2014-03-15T16:31:16.794Z</time>
      </trkpt>
      <trkpt lat="47.51633" lon="6.77469">
        <ele>390.162903</ele>
        <time>2014-03-15T16:31:19.804Z</time>
      </trkpt>
      <trkpt lat="47.51618" lon="6.77451">
        <ele>390.169312</ele>
        <time>2014-03-15T16:31:22.799Z</time>
      </trkpt>
      <trkpt lat="47.51601" lon="6.77433">
        <ele>390.006561</ele>
        <time>2014-03-15T16:31:25.791Z</time>
      </trkpt>
      <trkpt lat="47.51583" lon="6.77411">
        <ele>389.852997</ele>
        <time>2014-03-15T16:31:28.799Z</time>
      </trkpt>
      <trkpt lat="47.51566" lon="6.77389">
        <ele>389.573364</ele>
        <time>2014-03-15T16:31:31.807Z</time>
      </trkpt>
      <trkpt lat="47.51549" lon="6.77369">
        <ele>389.098877</ele>
        <time>2014-03-15T16:31:34.805Z</time>
      </trkpt>
      <trkpt lat="47.51529" lon="6.77347">
        <ele>388.705109</ele>
        <time>2014-03-15T16:31:37.802Z</time>
      </trkpt>
      <trkpt lat="47.51515" lon="6.7733">
        <ele>388.413361</ele>
        <time>2014-03-15T16:31:39.816Z</time>
      </trkpt>
      <trkpt lat="47.51498" lon="6.77307">
        <ele>387.697052</ele>
        <time>2014-03-15T16:31:42.808Z</time>
      </trkpt>
      <trkpt lat="47.51488" lon="6.77279">
        <ele>386.963745</ele>
        <time>2014-03-15T16:31:45.819Z</time>
      </trkpt>
      <trkpt lat="47.51484" lon="6.77248">
        <ele>385.971771</ele>
        <time>2014-03-15T16:31:48.814Z</time>
      </trkpt>
      <trkpt lat="47.51483" lon="6.77218">
        <ele>385.035187</ele>
        <time>2014-03-15T16:31:51.815Z</time>
      </trkpt>
      <trkpt lat="47.51463" lon="6.77204">
        <ele>383.312622</ele>
        <time>2014-03-15T16:31:57.793Z</time>
      </trkpt>
      <trkpt lat="47.51441" lon="6.77212">
        <ele>382.332428</ele>
        <time>2014-03-15T16:32:00.799Z</time>
      </trkpt>
      <trkpt lat="47.51418" lon="6.77224">
        <ele>381.325867</ele>
        <time>2014-03-15T16:32:03.798Z</time>
      </trkpt>
      <trkpt lat="47.51397" lon="6.77235">
        <ele>380.405365</ele>
        <time>2014-03-15T16:32:06.804Z</time>
      </trkpt>
      <trkpt lat="47.51379" lon="6.77246">
        <ele>379.602936</ele>
        <time>2014-03-15T16:32:09.802Z</time>
      </trkpt>
      <trkpt lat="47.51359" lon="6.77259">
        <ele>378.64975</ele>
        <time>2014-03-15T16:32:13.808Z</time>
      </trkpt>
      <trkpt lat="47.51341" lon="6.77276">
        <ele>377.836731</ele>
        <time>2014-03-15T16:32:20.812Z</time>
      </trkpt>
      <trkpt lat="47.51322" lon="6.77283">
        <ele>376.761993</ele>
        <time>2014-03-15T16:32:31.802Z</time>
      </trkpt>
      <trkpt lat="47.51305" lon="6.77276">
        <ele>376.707916</ele>
        <time>2014-03-15T16:32:42.812Z</time>
      </trkpt>
      <trkpt lat="47.51287" lon="6.77267">
        <ele>378.210785</ele>
        <time>2014-03-15T16:32:51.809Z</time>
      </trkpt>
      <trkpt lat="47.5127" lon="6.77256">
        <ele>379.270721</ele>
        <time>2014-03-15T16:33:00.794Z</time>
      </trkpt>
      <trkpt lat="47.51254" lon="6.77236">
        <ele>380.155914</ele>
        <time>2014-03-15T16:33:07.797Z</time>
      </trkpt>
      <trkpt lat="47.51242" lon="6.77215">
        <ele>380.643982</ele>
        <time>2014-03-15T16:33:12.797Z</time>
      </trkpt>
      <trkpt lat="47.51231" lon="6.77192">
        <ele>380.680054</ele>
        <time>2014-03-15T16:33:16.808Z</time>
      </trkpt>
      <trkpt lat="47.51217" lon="6.77166">
        <ele>380.739166</ele>
        <time>2014-03-15T16:33:21.802Z</time>
      </trkpt>
      <trkpt lat="47.51205" lon="6.77144">
        <ele>380.729614</ele>
        <time>2014-03-15T16:33:24.799Z</time>
      </trkpt>
      <trkpt lat="47.51194" lon="6.77121">
        <ele>380.777069</ele>
        <time>2014-03-15T16:33:27.804Z</time>
      </trkpt>
      <trkpt lat="47.51181" lon="6.77094">
        <ele>380.581787</ele>
        <time>2014-03-15T16:33:30.802Z</time>
      </trkpt>
      <trkpt lat="47.51168" lon="6.77073">
        <ele>380.554688</ele>
        <time>2014-03-15T16:33:33.796Z</time>
      </trkpt>
      <trkpt lat="47.51152" lon="6.77051">
        <ele>380.322418</ele>
        <time>2014-03-15T16:33:36.801Z</time>
      </trkpt>
      <trkpt lat="47.51135" lon="6.77035">
        <ele>380.084808</ele>
        <time>2014-03-15T16:33:39.799Z</time>
      </trkpt>
      <trkpt lat="47.51112" lon="6.77018">
        <ele>379.51712</ele>
        <time>2014-03-15T16:33:43.799Z</time>
      </trkpt>
      <trkpt lat="47.51094" lon="6.77004">
        <ele>378.945404</ele>
        <time>2014-03-15T16:33:46.806Z</time>
      </trkpt>
      <trkpt lat="47.51077" lon="6.76989">
        <ele>378.711578</ele>
        <time>2014-03-15T16:33:49.803Z</time>
      </trkpt>
      <trkpt lat="47.5106" lon="6.76975">
        <ele>378.504974</ele>
        <time>2014-03-15T16:33:52.802Z</time>
      </trkpt>
      <trkpt lat="47.51041" lon="6.76961">
        <ele>378.015839</ele>
        <time>2014-03-15T16:33:55.804Z</time>
      </trkpt>
      <trkpt lat="47.51024" lon="6.76945">
        <ele>377.567322</ele>
        <time>2014-03-15T16:33:58.794Z</time>
      </trkpt>
      <trkpt lat="47.51005" lon="6.76932">
        <ele>376.919556</ele>
        <time>2014-03-15T16:34:02.801Z</time>
      </trkpt>
      <trkpt lat="47.5099" lon="6.76917">
        <ele>376.471588</ele>
        <time>2014-03-15T16:34:05.799Z</time>
      </trkpt>
      <trkpt lat="47.50969" lon="6.76907">
        <ele>376.245087</ele>
        <time>2014-03-15T16:34:09.806Z</time>
      </trkpt>
      <trkpt lat="47.50954" lon="6.76891">
        <ele>376.137085</ele>
        <time>2014-03-15T16:34:14.798Z</time>
      </trkpt>
      <trkpt lat="47.50938" lon="6.76871">
        <ele>375.932037</ele>
        <time>2014-03-15T16:34:20.796Z</time>
      </trkpt>
      <trkpt lat="47.50923" lon="6.76852">
        <ele>375.921356</ele>
        <time>2014-03-15T16:34:26.814Z</time>
      </trkpt>
      <trkpt lat="47.50913" lon="6.76825">
        <ele>376.179535</ele>
        <time>2014-03-15T16:34:33.800Z</time>
      </trkpt>
      <trkpt lat="47.50904" lon="6.76802">
        <ele>376.530151</ele>
        <time>2014-03-15T16:34:39.797Z</time>
      </trkpt>
      <trkpt lat="47.50892" lon="6.76778">
        <ele>377.455231</ele>
        <time>2014-03-15T16:34:46.802Z</time>
      </trkpt>
      <trkpt lat="47.50883" lon="6.76753">
        <ele>378.071136</ele>
        <time>2014-03-15T16:34:54.812Z</time>
      </trkpt>
      <trkpt lat="47.50874" lon="6.76725">
        <ele>379.678406</ele>
        <time>2014-03-15T16:35:01.797Z</time>
      </trkpt>
      <trkpt lat="47.50867" lon="6.76699">
        <ele>381.077881</ele>
        <time>2014-03-15T16:35:09.808Z</time>
      </trkpt>
      <trkpt lat="47.50856" lon="6.76676">
        <ele>382.078888</ele>
        <time>2014-03-15T16:35:17.799Z</time>
      </trkpt>
      <trkpt lat="47.50846" lon="6.76654">
        <ele>383.125153</ele>
        <time>2014-03-15T16:35:25.808Z</time>
      </trkpt>
      <trkpt lat="47.50838" lon="6.76629">
        <ele>384.512756</ele>
        <time>2014-03-15T16:35:34.807Z</time>
      </trkpt>
      <trkpt lat="47.50828" lon="6.76605">
        <ele>385.5354</ele>
        <time>2014-03-15T16:35:44.809Z</time>
      </trkpt>
      <trkpt lat="47.50821" lon="6.76578">
        <ele>386.832397</ele>
        <time>2014-03-15T16:35:53.808Z</time>
      </trkpt>
      <trkpt lat="47.50815" lon="6.76549">
        <ele>387.668243</ele>
        <time>2014-03-15T16:36:02.808Z</time>
      </trkpt>
      <trkpt lat="47.50814" lon="6.7652">
        <ele>389.199585</ele>
        <time>2014-03-15T16:36:12.797Z</time>
      </trkpt>
      <trkpt lat="47.50821" lon="6.76492">
        <ele>389.855042</ele>
        <time>2014-03-15T16:36:19.797Z</time>
      </trkpt>
      <trkpt lat="47.50808" lon="6.76472">
        <ele>389.992279</ele>
        <time>2014-03-15T16:36:25.797Z</time>
      </trkpt>
      <trkpt lat="47.508" lon="6.76442">
        <ele>390.029968</ele>
        <time>2014-03-15T16:36:30.797Z</time>
      </trkpt>
      <trkpt lat="47.50795" lon="6.76411">
        <ele>389.834595</ele>
        <time>2014-03-15T16:36:34.800Z</time>
      </trkpt>
      <trkpt lat="47.50787" lon="6.76378">
        <ele>389.434998</ele>
        <time>2014-03-15T16:36:38.819Z</time>
      </trkpt>
      <trkpt lat="47.50776" lon="6.7635">
        <ele>389.204346</ele>
        <time>2014-03-15T16:36:41.818Z</time>
      </trkpt>
      <trkpt lat="47.50763" lon="6.76315">
        <ele>388.546661</ele>
        <time>2014-03-15T16:36:44.804Z</time>
      </trkpt>
      <trkpt lat="47.50754" lon="6.7629">
        <ele>387.961029</ele>
        <time>2014-03-15T16:36:46.803Z</time>
      </trkpt>
      <trkpt lat="47.50741" lon="6.76259">
        <ele>387.272095</ele>
        <time>2014-03-15T16:36:49.803Z</time>
      </trkpt>
      <trkpt lat="47.5073" lon="6.76225">
        <ele>386.51535</ele>
        <time>2014-03-15T16:36:52.804Z</time>
      </trkpt>
      <trkpt lat="47.50722" lon="6.76187">
        <ele>385.906036</ele>
        <time>2014-03-15T16:36:55.797Z</time>
      </trkpt>
      <trkpt lat="47.5072" lon="6.76152">
        <ele>385.462402</ele>
        <time>2014-03-15T16:36:58.795Z</time>
      </trkpt>
      <trkpt lat="47.5072" lon="6.76118">
        <ele>384.992828</ele>
        <time>2014-03-15T16:37:01.804Z</time>
      </trkpt>
      <trkpt lat="47.50721" lon="6.76086">
        <ele>384.350861</ele>
        <time>2014-03-15T16:37:04.807Z</time>
      </trkpt>
      <trkpt lat="47.50723" lon="6.76058">
        <ele>383.433472</ele>
        <time>2014-03-15T16:37:07.808Z</time>
      </trkpt>
      <trkpt lat="47.50726" lon="6.76029">
        <ele>382.478088</ele>
        <time>2014-03-15T16:37:10.804Z</time>
      </trkpt>
      <trkpt lat="47.50729" lon="6.75999">
        <ele>381.423187</ele>
        <time>2014-03-15T16:37:13.803Z</time>
      </trkpt>
      <trkpt lat="47.50734" lon="6.75967">
        <ele>380.341492</ele>
        <time>2014-03-15T16:37:16.803Z</time>
      </trkpt>
      <trkpt lat="47.50738" lon="6.7593">
        <ele>379.349976</ele>
        <time>2014-03-15T16:37:19.796Z</time>
      </trkpt>
      <trkpt lat="47.50741" lon="6.75895">
        <ele>378.376373</ele>
        <time>2014-03-15T16:37:22.802Z</time>
      </trkpt>
      <trkpt lat="47.50742" lon="6.75863">
        <ele>377.308441</ele>
        <time>2014-03-15T16:37:25.803Z</time>
      </trkpt>
      <trkpt lat="47.50742" lon="6.75833">
        <ele>376.078491</ele>
        <time>2014-03-15T16:37:28.807Z</time>
      </trkpt>
      <trkpt lat="47.50738" lon="6.75798">
        <ele>374.362213</ele>
        <time>2014-03-15T16:37:32.798Z</time>
      </trkpt>
      <trkpt lat="47.50732" lon="6.75763">
        <ele>372.708801</ele>
        <time>2014-03-15T16:37:36.906Z</time>
      </trkpt>
      <trkpt lat="47.50728" lon="6.75729">
        <ele>371.417175</ele>
        <time>2014-03-15T16:37:39.843Z</time>
      </trkpt>
      <trkpt lat="47.50726" lon="6.75691">
        <ele>370.086761</ele>
        <time>2014-03-15T16:37:42.812Z</time>
      </trkpt>
      <trkpt lat="47.50725" lon="6.7565">
        <ele>368.842834</ele>
        <time>2014-03-15T16:37:45.805Z</time>
      </trkpt>
      <trkpt lat="47.50724" lon="6.75623">
        <ele>368.026276</ele>
        <time>2014-03-15T16:37:47.795Z</time>
      </trkpt>
      <trkpt lat="47.50723" lon="6.75584">
        <ele>366.725922</ele>
        <time>2014-03-15T16:37:50.805Z</time>
      </trkpt>
      <trkpt lat="47.50719" lon="6.7555">
        <ele>365.164032</ele>
        <time>2014-03-15T16:37:53.806Z</time>
      </trkpt>
      <trkpt lat="47.50712" lon="6.75512">
        <ele>363.32486</ele>
        <time>2014-03-15T16:37:56.803Z</time>
      </trkpt>
      <trkpt lat="47.50705" lon="6.75486">
        <ele>361.960266</ele>
        <time>2014-03-15T16:37:58.815Z</time>
      </trkpt>
      <trkpt lat="47.50692" lon="6.7545">
        <ele>359.796844</ele>
        <time>2014-03-15T16:38:01.804Z</time>
      </trkpt>
      <trkpt lat="47.50677" lon="6.75419">
        <ele>357.492889</ele>
        <time>2014-03-15T16:38:04.803Z</time>
      </trkpt>
      <trkpt lat="47.50655" lon="6.75399">
        <ele>355.176788</ele>
        <time>2014-03-15T16:38:07.804Z</time>
      </trkpt>
      <trkpt lat="47.50629" lon="6.75389">
        <ele>352.843079</ele>
        <time>2014-03-15T16:38:10.805Z</time>
      </trkpt>
      <trkpt lat="47.50611" lon="6.75386">
        <ele>351.429932</ele>
        <time>2014-03-15T16:38:12.804Z</time>
      </trkpt>
      <trkpt lat="47.50591" lon="6.75384">
        <ele>350.065796</ele>
        <time>2014-03-15T16:38:14.807Z</time>
      </trkpt>
      <trkpt lat="47.50562" lon="6.75382">
        <ele>348.191132</ele>
        <time>2014-03-15T16:38:18.024Z</time>
      </trkpt>
      <trkpt lat="47.50535" lon="6.75377">
        <ele>346.457153</ele>
        <time>2014-03-15T16:38:20.806Z</time>
      </trkpt>
      <trkpt lat="47.50512" lon="6.75362">
        <ele>344.522583</ele>
        <time>2014-03-15T16:38:23.796Z</time>
      </trkpt>
      <trkpt lat="47.50499" lon="6.75333">
        <ele>342.571014</ele>
        <time>2014-03-15T16:38:26.799Z</time>
      </trkpt>
      <trkpt lat="47.50495" lon="6.753">
        <ele>340.691895</ele>
        <time>2014-03-15T16:38:29.803Z</time>
      </trkpt>
      <trkpt lat="47.50493" lon="6.75271">
        <ele>338.760406</ele>
        <time>2014-03-15T16:38:32.832Z</time>
      </trkpt>
      <trkpt lat="47.50491" lon="6.75239">
        <ele>336.877014</ele>
        <time>2014-03-15T16:38:35.801Z</time>
      </trkpt>
      <trkpt lat="47.50488" lon="6.75211">
        <ele>335.150421</ele>
        <time>2014-03-15T16:38:38.803Z</time>
      </trkpt>
      <trkpt lat="47.50491" lon="6.75181">
        <ele>333.912292</ele>
        <time>2014-03-15T16:38:41.858Z</time>
      </trkpt>
      <trkpt lat="47.50505" lon="6.75163">
        <ele>331.769928</ele>
        <time>2014-03-15T16:38:47.794Z</time>
      </trkpt>
      <trkpt lat="47.50511" lon="6.75137">
        <ele>330.025879</ele>
        <time>2014-03-15T16:38:53.800Z</time>
      </trkpt>
      <trkpt lat="47.5051" lon="6.75108">
        <ele>328.490326</ele>
        <time>2014-03-15T16:39:05.802Z</time>
      </trkpt>
      <trkpt lat="47.50509" lon="6.7508">
        <ele>328.64151</ele>
        <time>2014-03-15T16:39:17.799Z</time>
      </trkpt>
      <trkpt lat="47.5051" lon="6.75053">
        <ele>329.660461</ele>
        <time>2014-03-15T16:39:30.799Z</time>
      </trkpt>
      <trkpt lat="47.5051" lon="6.75026">
        <ele>332.214294</ele>
        <time>2014-03-15T16:39:46.799Z</time>
      </trkpt>
      <trkpt lat="47.50512" lon="6.74999">
        <ele>333.950012</ele>
        <time>2014-03-15T16:40:01.801Z</time>
      </trkpt>
      <trkpt lat="47.50517" lon="6.74973">
        <ele>336.377502</ele>
        <time>2014-03-15T16:40:15.816Z</time>
      </trkpt>
      <trkpt lat="47.50521" lon="6.74947">
        <ele>338.647308</ele>
        <time>2014-03-15T16:40:30.798Z</time>
      </trkpt>
      <trkpt lat="47.5052" lon="6.7492">
        <ele>340.476654</ele>
        <time>2014-03-15T16:40:43.805Z</time>
      </trkpt>
      <trkpt lat="47.50511" lon="6.74895">
        <ele>342.220367</ele>
        <time>2014-03-15T16:40:55.802Z</time>
      </trkpt>
      <trkpt lat="47.505" lon="6.74873">
        <ele>344.260284</ele>
        <time>2014-03-15T16:41:09.803Z</time>
      </trkpt>
      <trkpt lat="47.50488" lon="6.74852">
        <ele>345.615082</ele>
        <time>2014-03-15T16:41:23.810Z</time>
      </trkpt>
      <trkpt lat="47.50472" lon="6.74837">
        <ele>346.872742</ele>
        <time>2014-03-15T16:41:36.813Z</time>
      </trkpt>
      <trkpt lat="47.50454" lon="6.74824">
        <ele>348.82782</ele>
        <time>2014-03-15T16:41:49.801Z</time>
      </trkpt>
      <trkpt lat="47.50438" lon="6.74808">
        <ele>350.270752</ele>
        <time>2014-03-15T16:42:02.806Z</time>
      </trkpt>
      <trkpt lat="47.50427" lon="6.74786">
        <ele>350.559784</ele>
        <time>2014-03-15T16:42:09.807Z</time>
      </trkpt>
      <trkpt lat="47.50419" lon="6.7476">
        <ele>350.897064</ele>
        <time>2014-03-15T16:42:16.806Z</time>
      </trkpt>
      <trkpt lat="47.50413" lon="6.74731">
        <ele>351.339508</ele>
        <time>2014-03-15T16:42:23.810Z</time>
      </trkpt>
      <trkpt lat="47.50406" lon="6.74701">
        <ele>351.780914</ele>
        <time>2014-03-15T16:42:29.808Z</time>
      </trkpt>
      <trkpt lat="47.50405" lon="6.74671">
        <ele>352.308228</ele>
        <time>2014-03-15T16:42:35.804Z</time>
      </trkpt>
      <trkpt lat="47.50402" lon="6.74642">
        <ele>352.593353</ele>
        <time>2014-03-15T16:42:41.802Z</time>
      </trkpt>
      <trkpt lat="47.50399" lon="6.74615">
        <ele>352.713104</ele>
        <time>2014-03-15T16:42:46.805Z</time>
      </trkpt>
      <trkpt lat="47.50395" lon="6.74585">
        <ele>352.78479</ele>
        <time>2014-03-15T16:42:52.800Z</time>
      </trkpt>
      <trkpt lat="47.50389" lon="6.74554">
        <ele>352.837555</ele>
        <time>2014-03-15T16:42:58.806Z</time>
      </trkpt>
      <trkpt lat="47.50385" lon="6.74526">
        <ele>353.313934</ele>
        <time>2014-03-15T16:43:04.812Z</time>
      </trkpt>
      <trkpt lat="47.50374" lon="6.74501">
        <ele>353.613617</ele>
        <time>2014-03-15T16:43:09.805Z</time>
      </trkpt>
      <trkpt lat="47.50361" lon="6.74477">
        <ele>353.559418</ele>
        <time>2014-03-15T16:43:13.810Z</time>
      </trkpt>
      <trkpt lat="47.50348" lon="6.74458">
        <ele>353.479645</ele>
        <time>2014-03-15T16:43:17.815Z</time>
      </trkpt>
      <trkpt lat="47.5033" lon="6.74441">
        <ele>353.201477</ele>
        <time>2014-03-15T16:43:21.820Z</time>
      </trkpt>
      <trkpt lat="47.50316" lon="6.74421">
        <ele>353.086212</ele>
        <time>2014-03-15T16:43:25.806Z</time>
      </trkpt>
      <trkpt lat="47.50299" lon="6.74398">
        <ele>352.495453</ele>
        <time>2014-03-15T16:43:30.801Z</time>
      </trkpt>
      <trkpt lat="47.50283" lon="6.74379">
        <ele>352.169739</ele>
        <time>2014-03-15T16:43:34.803Z</time>
      </trkpt>
      <trkpt lat="47.50266" lon="6.74371">
        <ele>351.989655</ele>
        <time>2014-03-15T16:43:38.802Z</time>
      </trkpt>
      <trkpt lat="47.50254" lon="6.74344">
        <ele>351.944427</ele>
        <time>2014-03-15T16:43:44.800Z</time>
      </trkpt>
      <trkpt lat="47.5024" lon="6.74322">
        <ele>351.754364</ele>
        <time>2014-03-15T16:43:50.804Z</time>
      </trkpt>
      <trkpt lat="47.50226" lon="6.74301">
        <ele>351.917938</ele>
        <time>2014-03-15T16:43:56.803Z</time>
      </trkpt>
      <trkpt lat="47.50212" lon="6.7428">
        <ele>351.808929</ele>
        <time>2014-03-15T16:44:04.803Z</time>
      </trkpt>
      <trkpt lat="47.50199" lon="6.74258">
        <ele>352.691498</ele>
        <time>2014-03-15T16:44:14.803Z</time>
      </trkpt>
      <trkpt lat="47.50187" lon="6.74236">
        <ele>353.583313</ele>
        <time>2014-03-15T16:44:24.804Z</time>
      </trkpt>
      <trkpt lat="47.50176" lon="6.74213">
        <ele>355.160858</ele>
        <time>2014-03-15T16:44:34.803Z</time>
      </trkpt>
      <trkpt lat="47.50167" lon="6.74187">
        <ele>356.157074</ele>
        <time>2014-03-15T16:44:43.808Z</time>
      </trkpt>
      <trkpt lat="47.50158" lon="6.74162">
        <ele>357.426483</ele>
        <time>2014-03-15T16:44:52.808Z</time>
      </trkpt>
      <trkpt lat="47.50147" lon="6.74136">
        <ele>358.399231</ele>
        <time>2014-03-15T16:44:58.808Z</time>
      </trkpt>
      <trkpt lat="47.50137" lon="6.74107">
        <ele>359.143585</ele>
        <time>2014-03-15T16:45:02.805Z</time>
      </trkpt>
      <trkpt lat="47.50129" lon="6.74082">
        <ele>359.505646</ele>
        <time>2014-03-15T16:45:05.805Z</time>
      </trkpt>
      <trkpt lat="47.5012" lon="6.74056">
        <ele>359.796448</ele>
        <time>2014-03-15T16:45:08.805Z</time>
      </trkpt>
      <trkpt lat="47.5011" lon="6.74029">
        <ele>359.992798</ele>
        <time>2014-03-15T16:45:11.805Z</time>
      </trkpt>
      <trkpt lat="47.50101" lon="6.74002">
        <ele>360.042389</ele>
        <time>2014-03-15T16:45:14.809Z</time>
      </trkpt>
      <trkpt lat="47.50093" lon="6.73973">
        <ele>360.083679</ele>
        <time>2014-03-15T16:45:17.811Z</time>
      </trkpt>
      <trkpt lat="47.50086" lon="6.73939">
        <ele>360.094971</ele>
        <time>2014-03-15T16:45:20.808Z</time>
      </trkpt>
      <trkpt lat="47.50082" lon="6.73908">
        <ele>359.948303</ele>
        <time>2014-03-15T16:45:23.809Z</time>
      </trkpt>
      <trkpt lat="47.50078" lon="6.73876">
        <ele>359.651001</ele>
        <time>2014-03-15T16:45:26.808Z</time>
      </trkpt>
      <trkpt lat="47.50073" lon="6.73842">
        <ele>359.301788</ele>
        <time>2014-03-15T16:45:29.812Z</time>
      </trkpt>
      <trkpt lat="47.50067" lon="6.73808">
        <ele>358.960815</ele>
        <time>2014-03-15T16:45:32.812Z</time>
      </trkpt>
      <trkpt lat="47.50062" lon="6.73775">
        <ele>358.559967</ele>
        <time>2014-03-15T16:45:35.804Z</time>
      </trkpt>
      <trkpt lat="47.50059" lon="6.7374">
        <ele>357.916656</ele>
        <time>2014-03-15T16:45:38.809Z</time>
      </trkpt>
      <trkpt lat="47.50059" lon="6.7371">
        <ele>357.16687</ele>
        <time>2014-03-15T16:45:41.804Z</time>
      </trkpt>
      <trkpt lat="47.50059" lon="6.73681">
        <ele>356.359528</ele>
        <time>2014-03-15T16:45:44.809Z</time>
      </trkpt>
      <trkpt lat="47.50059" lon="6.73652">
        <ele>355.499512</ele>
        <time>2014-03-15T16:45:47.809Z</time>
      </trkpt>
      <trkpt lat="47.5006" lon="6.73622">
        <ele>354.682983</ele>
        <time>2014-03-15T16:45:50.811Z</time>
      </trkpt>
      <trkpt lat="47.50061" lon="6.73591">
        <ele>353.929077</ele>
        <time>2014-03-15T16:45:53.829Z</time>
      </trkpt>
      <trkpt lat="47.50062" lon="6.7356">
        <ele>353.004181</ele>
        <time>2014-03-15T16:45:56.813Z</time>
      </trkpt>
      <trkpt lat="47.50065" lon="6.73527">
        <ele>351.965393</ele>
        <time>2014-03-15T16:45:59.806Z</time>
      </trkpt>
      <trkpt lat="47.50069" lon="6.73497">
        <ele>351.00235</ele>
        <time>2014-03-15T16:46:02.812Z</time>
      </trkpt>
      <trkpt lat="47.50076" lon="6.73466">
        <ele>349.735382</ele>
        <time>2014-03-15T16:46:06.806Z</time>
      </trkpt>
      <trkpt lat="47.50086" lon="6.73438">
        <ele>348.283386</ele>
        <time>2014-03-15T16:46:11.823Z</time>
      </trkpt>
    </trkseg>
  </trk>
</gpx>